GFSGL_850_thetae_000.txt.gz
Theta_e
304 303 302 301 299 299 299 298 298 298 297 297 296 296 296 294 294 294 293 293 293 293 292 292 291 291 291 291 291 291 291 291 291 292 292 292 292 293 293 293 293 293 294
302 301 301 299 299 298 298 298 298 297 297 296 295 294 294 293 293 293 293 292 291 291 291 291 290 289 289 289 290 290 290 290 290 291 291 291 292 292 292 292 293 293 293
300 300 299 299 298 298 297 296 296 295 295 294 293 293 293 293 293 292 290 290 290 290 290 289 289 289 289 289 289 289 289 289 289 289 290 290 290 291 291 291 292 292 292
298 299 298 298 297 294 294 294 294 293 293 293 292 292 291 290 289 289 289 289 289 288 288 288 287 287 287 287 287 287 287 287 287 288 288 288 289 289 289 290 290 291 291
298 297 296 295 294 294 293 292 291 290 289 288 288 288 288 288 287 287 287 287 288 287 287 287 287 286 285 285 284 285 286 286 287 288 288 289 289 289 289 290 290 290 290
297 295 294 293 293 291 291 290 289 288 288 288 287 287 287 287 286 285 284 286 286 286 286 286 286 285 285 284 283 283 283 285 286 287 287 287 288 288 288 288 288 288 288
296 294 294 293 291 290 289 288 288 288 287 287 287 287 287 286 285 284 283 283 284 285 285 285 285 284 283 284 284 284 283 282 282 283 284 285 286 286 287 287 287 287 287
295 294 294 292 290 289 288 288 287 287 287 287 286 286 285 285 283 283 282 282 283 284 284 284 283 283 284 284 283 283 283 284 284 284 284 284 285 285 286 286 286 287 287
294 294 293 291 290 288 288 287 287 287 286 286 286 285 285 284 283 281 280 281 282 282 283 283 283 282 282 282 282 282 283 284 284 284 284 283 283 283 284 285 285 286 286
294 294 292 291 289 288 288 288 287 287 286 286 285 284 283 282 281 279 279 280 280 281 281 281 282 282 282 282 282 282 282 283 284 284 284 285 285 284 284 284 285 285 286
292 292 292 291 289 288 288 288 287 287 286 285 283 282 282 282 280 279 279 279 279 280 281 282 283 283 282 282 281 281 281 281 281 282 282 283 284 285 285 286 285 285 285
292 292 291 290 289 288 288 287 287 287 285 284 283 282 282 281 280 279 278 279 279 279 280 281 283 282 281 281 280 280 280 281 281 282 282 283 284 285 286 286 286 285 285
292 291 290 289 289 288 288 287 287 286 284 283 283 282 281 281 280 279 279 279 279 279 280 281 280 280 280 279 279 280 281 281 281 281 282 283 284 285 285 286 285 285 285
291 290 290 289 288 288 287 287 286 285 283 282 282 281 280 279 279 278 278 278 279 279 279 280 279 279 279 279 279 279 279 280 281 281 282 283 284 285 286 286 285 286 286
289 289 289 288 288 288 287 285 284 283 281 280 279 279 279 278 277 277 277 277 277 278 278 278 278 278 278 279 278 278 279 279 280 280 281 282 283 284 286 286 286 286 286
287 288 288 287 288 287 285 285 284 282 280 278 278 277 276 276 276 277 277 278 278 278 277 278 277 278 277 278 278 278 278 278 279 280 281 282 282 284 285 286 285 285 286
287 287 287 287 286 286 285 284 283 282 280 279 278 276 275 275 276 277 277 277 277 278 277 277 277 277 276 277 277 277 277 277 278 279 280 281 283 283 284 285 286 286 286
286 286 286 286 285 284 284 282 282 281 281 280 278 276 275 275 276 277 277 277 277 277 277 276 276 275 275 275 275 275 276 277 277 278 278 279 282 282 283 283 284 285 286
285 285 286 285 284 284 283 282 281 281 280 280 278 277 275 274 275 275 276 275 276 276 276 275 274 274 274 274 274 275 276 276 276 277 277 278 280 280 281 282 283 284 284
284 284 285 284 283 283 282 281 281 280 280 279 278 276 275 275 274 274 273 273 273 272 273 273 273 273 273 273 274 274 276 276 276 276 277 278 279 279 280 281 281 282 282
284 284 284 284 283 282 281 281 280 280 279 279 278 275 276 274 274 273 273 272 272 272 272 272 272 273 273 273 273 274 275 275 275 277 277 277 278 279 279 280 280 281 281
284 283 283 283 282 282 281 280 280 279 279 278 277 276 275 274 274 273 273 272 272 272 272 272 272 273 274 274 274 273 274 274 274 275 276 277 278 278 279 279 279 280 280
283 283 283 283 282 282 281 281 280 279 279 278 277 276 275 275 274 274 274 274 272 272 272 272 272 273 273 273 273 274 274 274 275 275 275 275 277 277 278 278 278 279 279
283 282 282 282 282 282 281 281 280 279 279 278 277 276 275 275 275 275 275 275 275 273 272 272 273 272 273 273 273 273 273 274 274 274 274 274 275 276 276 277 278 277 278
282 282 282 282 282 281 282 281 281 280 279 278 277 277 276 275 274 274 275 275 276 275 273 272 272 273 273 273 273 273 273 273 274 274 274 274 274 274 275 275 276 276 276
283 282 282 282 282 281 282 282 282 281 280 279 278 277 276 275 274 274 274 274 274 274 274 273 273 273 273 273 273 273 273 273 273 273 273 273 274 274 274 274 274 275 275

GFSGL_850_thetae_003.txt.gz
Theta_e
307 305 304 303 302 301 300 300 299 299 298 298 297 297 296 296 295 294 294 294 294 294 294 294 294 293 293 292 292 292 292 293 293 293 293 294 294 294 294 295 295 295 295
304 303 302 301 301 300 300 298 297 297 297 295 295 295 294 294 293 293 292 292 292 292 292 292 292 292 292 291 291 291 291 291 291 291 292 292 293 293 294 294 294 295 294
303 302 301 300 299 299 297 296 295 295 295 294 294 293 293 292 292 291 291 291 291 291 290 290 290 290 290 290 290 290 290 290 290 290 290 291 291 292 292 293 293 293 293
302 301 299 298 297 296 295 295 294 293 292 291 290 290 290 289 289 289 289 289 288 288 289 289 289 289 289 289 289 289 289 289 289 289 289 289 290 290 290 291 291 292 292
301 300 298 296 295 295 294 293 292 291 290 289 289 289 289 289 288 288 287 287 287 287 288 288 288 288 288 287 287 286 286 286 287 287 288 289 290 290 290 291 291 291 291
301 299 297 295 295 294 292 291 290 290 289 289 289 289 289 288 287 287 286 285 284 285 286 286 287 287 287 286 285 285 284 284 285 285 287 288 288 289 289 290 290 290 290
299 298 296 295 295 293 292 290 290 289 289 289 289 288 288 287 287 286 285 284 283 283 284 285 286 286 286 285 285 285 285 285 284 284 284 285 286 287 287 288 288 289 289
298 297 296 295 294 293 291 290 289 289 289 289 288 288 287 287 286 285 284 282 282 283 283 284 284 285 285 284 284 284 284 284 284 284 284 284 284 285 286 286 286 287 287
298 297 296 295 294 293 291 290 289 289 289 288 288 287 286 285 284 283 281 280 281 281 282 282 283 283 283 282 282 282 283 283 284 284 284 284 284 284 284 285 285 286 286
296 295 294 294 293 292 291 290 289 289 289 288 287 286 285 284 283 282 280 280 280 280 281 281 281 282 282 282 282 282 282 283 284 283 284 285 285 285 285 283 283 284 285
294 294 294 293 293 291 290 289 289 289 288 287 286 285 284 284 283 282 280 279 279 280 280 281 282 283 283 282 282 282 281 281 281 281 282 283 283 284 285 285 285 285 285
294 294 293 292 291 290 289 289 289 288 288 286 285 284 284 283 282 281 280 279 279 279 279 281 282 282 281 281 281 280 280 280 281 282 282 283 284 284 284 285 286 286 286
293 293 292 291 290 289 289 288 288 288 287 285 284 283 283 282 281 280 279 278 278 279 279 280 280 280 280 280 280 279 280 281 281 282 282 283 284 285 285 286 286 286 286
292 291 291 290 290 289 288 288 287 286 285 284 282 282 281 280 280 279 277 277 278 278 278 279 279 279 279 280 280 280 280 281 281 281 282 282 283 285 286 286 287 286 286
290 290 289 289 289 289 288 287 286 285 284 282 280 279 279 278 278 276 276 277 277 278 278 278 278 278 279 279 279 279 279 280 280 281 281 282 283 284 285 286 286 286 286
289 289 289 289 288 288 287 287 286 284 283 282 281 279 278 276 275 275 276 277 277 278 277 277 277 277 278 278 278 278 279 279 279 280 281 281 282 283 285 286 286 286 287
287 287 288 288 287 287 286 285 285 284 283 282 281 279 278 276 275 275 275 277 277 277 277 276 276 276 277 278 277 277 278 278 278 279 280 281 281 282 284 285 286 286 287
287 287 287 287 287 286 285 284 283 283 283 283 281 280 278 277 275 274 275 276 276 276 276 275 275 275 276 276 276 277 277 278 278 279 279 280 280 282 283 283 284 285 285
286 285 286 286 286 285 284 283 283 283 283 282 281 280 278 276 276 276 275 275 274 274 274 275 275 275 275 275 275 276 277 277 277 278 279 279 280 281 281 282 282 283 284
287 285 284 285 285 284 284 283 283 282 282 282 281 280 277 276 277 276 275 274 274 274 273 274 274 274 274 274 275 275 276 277 276 277 278 279 280 280 281 281 281 282 282
287 286 285 284 284 284 283 283 282 282 282 281 281 279 277 276 276 276 275 274 273 273 273 273 273 273 273 273 274 274 275 275 276 276 276 278 279 279 280 280 280 281 281
284 285 285 284 284 283 283 283 282 282 281 281 280 280 278 277 276 276 275 274 273 273 273 273 273 273 273 273 273 273 274 274 274 274 275 277 278 278 279 280 280 280 280
284 284 284 284 284 283 283 283 282 282 281 280 280 279 279 278 276 276 275 274 274 274 273 273 273 273 273 273 273 273 273 274 274 274 274 275 276 277 278 279 279 279 279
284 284 284 284 283 283 282 282 282 282 281 280 280 280 279 278 277 276 275 275 275 274 273 273 273 273 273 273 273 273 273 273 274 274 274 275 275 275 276 277 278 278 278
284 284 284 284 284 283 282 282 282 282 282 281 280 280 279 278 277 276 276 275 274 274 274 274 274 273 273 273 273 273 273 273 273 273 274 274 274 274 275 276 276 278 277
283 283 283 283 283 283 283 282 282 282 282 281 280 280 279 278 277 276 276 275 275 274 274 273 273 273 273 273 273 273 273 273 273 273 273 274 274 274 274 274 274 275 275

GFSGL_850_thetae_006.txt.gz
Theta_e
308 307 305 303 302 302 300 300 300 298 295 294 294 293 293 293 293 293 292 292 292 292 292 293 293 293 293 293 293 293 292 292 293 292 293 293 293 293 295 295 295 295 296
306 305 303 302 301 300 299 299 296 295 295 295 294 293 292 292 291 291 291 291 291 291 291 291 291 291 290 290 290 290 291 291 291 291 291 291 291 291 292 293 293 295 295
305 304 302 301 299 298 297 296 295 294 293 293 292 291 290 290 290 289 289 290 290 289 288 288 289 289 289 289 288 289 289 289 289 289 290 290 290 290 290 291 291 292 293
304 303 301 300 298 296 296 295 294 293 292 291 290 290 289 289 289 289 289 288 288 287 286 285 287 287 288 289 289 289 289 289 289 288 288 288 288 289 289 289 290 290 291
303 302 300 300 298 296 295 294 293 291 290 290 289 289 289 289 289 288 288 287 287 286 285 285 284 285 286 287 287 287 287 286 286 285 286 286 287 288 289 290 291 291 292
301 301 300 299 297 296 295 293 292 291 290 289 289 289 289 289 288 288 287 287 286 285 284 283 283 284 285 286 286 286 285 285 285 284 284 285 285 286 287 288 288 289 289
300 300 299 298 297 296 295 293 292 291 290 289 289 289 288 288 287 287 286 285 283 282 281 282 282 283 284 285 285 285 285 285 285 285 284 284 283 284 285 286 286 287 287
298 299 298 298 296 295 295 294 291 290 289 289 289 289 288 287 287 285 284 283 282 280 280 280 281 282 283 283 284 283 283 283 284 283 283 284 284 285 284 284 285 285 286
296 298 297 295 295 294 294 293 291 290 289 289 289 288 288 286 284 284 284 282 281 280 280 280 281 281 281 281 282 282 282 282 282 283 283 284 284 284 284 284 284 284 285
296 296 295 294 294 294 293 292 290 289 289 289 288 288 286 284 284 284 283 281 280 280 280 280 280 281 282 282 283 283 283 283 283 282 283 283 283 283 284 285 285 284 283
295 295 294 294 293 292 292 290 290 289 289 288 288 286 284 284 283 282 281 280 280 279 279 279 280 281 281 281 281 281 281 281 281 281 282 282 282 282 283 283 284 285 285
293 294 293 293 292 292 290 290 289 288 288 288 286 284 283 283 282 281 281 280 279 278 278 279 280 280 280 280 280 280 280 280 281 281 282 283 283 284 284 284 284 285 285
292 292 292 291 291 290 290 289 288 288 287 286 284 283 281 281 279 279 279 278 278 278 278 278 279 279 279 280 280 280 281 281 282 282 282 283 283 284 284 285 285 286 286
292 291 291 290 290 289 289 288 288 287 286 285 283 281 281 279 278 277 277 277 277 277 278 278 278 278 279 280 280 280 280 281 281 281 282 282 283 284 285 285 286 287 287
291 290 289 289 289 289 288 288 287 286 286 284 282 282 280 279 277 276 276 276 276 277 278 278 277 278 278 278 279 279 279 279 280 280 281 282 282 283 284 285 286 286 286
289 288 288 288 288 287 288 287 286 285 285 283 283 282 280 279 278 276 276 276 277 277 277 277 277 277 277 277 277 278 278 278 279 279 280 281 282 282 284 285 286 287 286
288 287 287 287 288 288 287 286 285 284 283 283 283 281 280 279 277 276 276 276 276 276 276 276 276 276 276 276 277 277 278 278 278 279 280 280 281 282 283 284 285 285 286
288 287 286 286 286 286 286 285 284 283 283 283 282 282 280 280 278 277 276 276 275 275 275 275 275 275 275 275 276 277 278 278 278 278 279 280 280 281 282 282 283 284 284
288 288 287 286 285 285 284 284 284 283 283 282 282 282 281 279 278 277 276 275 274 274 274 274 274 275 275 275 275 276 277 277 277 277 279 279 280 281 281 281 282 282 283
287 288 287 285 285 284 284 284 283 283 282 282 282 281 281 279 278 277 276 276 275 274 274 274 274 274 274 274 274 275 275 276 276 276 278 279 279 280 280 281 281 281 281
287 287 286 285 284 284 284 283 283 282 282 282 281 281 280 279 278 277 276 276 275 274 273 273 274 274 274 274 274 274 275 275 275 275 277 278 278 279 280 280 280 280 280
287 285 284 284 284 284 283 283 282 282 282 282 281 281 280 279 278 277 276 276 275 276 274 273 273 273 273 274 274 274 273 273 274 274 276 276 277 277 278 279 279 279 279
284 284 284 284 284 284 283 283 282 282 282 282 281 281 280 280 279 278 277 276 275 276 276 274 273 273 273 273 273 273 273 273 273 273 274 275 275 276 277 277 278 278 278
284 284 284 284 284 284 283 283 283 282 282 282 281 281 280 280 279 278 277 277 276 276 276 275 274 274 273 273 273 273 273 273 273 273 273 275 274 275 275 276 277 277 277
285 284 284 284 284 284 284 283 283 282 282 282 282 281 281 280 279 278 278 277 276 275 275 274 274 274 274 274 274 273 273 273 273 273 273 274 273 274 274 275 275 276 276
285 284 284 284 284 284 284 284 283 282 282 282 281 281 281 280 279 278 278 277 276 276 274 275 275 274 274 274 273 273 273 273 273 273 273 273 273 273 273 273 273 274 274

GFSGL_850_thetae_009.txt.gz
Theta_e
307 306 304 304 303 302 301 301 300 297 295 293 293 292 292 291 290 290 289 289 290 290 290 291 290 289 290 290 290 290 290 290 291 291 291 291 291 291 291 292 292 294 295
304 304 305 304 302 301 300 299 296 295 294 293 293 291 290 290 289 289 289 289 289 289 289 289 288 287 286 288 289 289 289 289 289 289 290 290 290 290 290 291 291 292 292
302 304 304 303 302 301 300 296 295 295 294 292 291 290 289 289 289 289 289 289 288 288 288 287 287 286 285 285 286 287 288 289 289 289 289 289 289 289 289 289 290 290 291
300 303 302 301 301 300 297 296 294 294 292 291 290 290 289 289 289 289 288 289 288 287 287 286 286 285 285 284 284 286 286 287 288 288 287 287 286 287 287 288 288 290 290
297 298 299 300 300 298 298 296 295 294 291 290 290 289 289 289 288 288 288 288 287 286 285 284 283 282 283 284 285 286 286 287 287 286 286 285 285 284 285 287 288 288 291
296 296 296 299 299 298 297 296 294 293 291 290 289 289 289 289 288 288 288 287 285 284 283 282 281 280 282 283 283 284 285 285 286 285 285 285 284 284 284 284 285 286 287
295 295 297 296 296 296 295 295 294 294 291 289 289 289 289 289 288 287 285 284 284 283 282 281 280 280 280 281 282 282 283 284 284 285 285 285 284 284 283 283 284 284 284
294 295 295 295 295 295 295 294 293 291 290 290 289 289 288 288 286 284 284 283 283 282 281 280 280 280 280 280 281 281 282 282 282 282 282 283 282 283 283 283 284 284 284
294 295 294 294 294 294 294 293 291 290 290 289 289 288 288 286 284 284 283 282 281 281 280 279 279 279 280 281 281 282 282 282 282 282 282 283 283 283 284 284 284 284 284
294 294 293 293 293 293 292 292 290 289 289 288 288 288 286 284 283 283 282 281 280 279 279 279 279 280 281 280 280 281 281 281 281 282 282 282 282 282 283 282 283 284 285
294 293 292 292 292 292 291 290 289 289 288 288 288 287 284 283 281 281 280 279 279 278 278 278 278 279 280 280 280 280 280 280 280 281 281 281 282 282 283 283 283 282 283
293 293 292 291 291 291 290 290 289 288 288 288 287 285 284 282 280 278 278 278 277 278 278 278 279 279 279 280 280 280 280 280 280 281 281 282 282 283 284 284 285 284 284
293 292 291 290 290 289 289 289 288 288 287 287 285 284 282 281 279 279 278 277 277 278 278 278 278 278 279 279 280 280 280 281 281 281 281 282 282 283 283 284 285 285 285
291 290 290 289 289 289 289 288 288 287 287 285 284 283 282 281 279 278 277 277 277 277 277 277 277 278 278 278 278 279 279 279 280 280 281 281 282 283 284 284 285 286 286
291 290 289 288 287 287 287 287 287 287 285 284 283 283 281 281 279 277 277 277 277 277 277 277 277 277 277 277 277 278 278 278 279 279 280 281 281 282 284 285 286 286 286
291 289 288 287 287 287 288 287 287 286 284 283 283 282 281 281 279 278 277 276 277 276 276 276 275 275 276 276 277 277 278 278 278 279 280 280 281 282 283 284 285 285 286
290 289 288 287 286 286 286 286 286 284 283 283 282 282 281 281 280 278 277 276 275 276 276 275 275 275 275 275 276 277 277 277 278 279 279 280 281 282 282 282 283 284 285
290 289 288 288 287 285 285 284 284 283 283 282 282 282 281 281 280 278 277 277 276 274 274 274 274 274 275 275 275 276 276 276 277 278 279 280 280 281 281 281 282 283 283
288 288 288 287 287 285 284 284 283 283 283 282 282 281 281 281 280 278 277 277 276 274 274 274 274 274 274 274 274 275 275 276 276 277 278 279 280 280 280 280 281 281 282
288 287 287 287 286 284 284 284 283 283 282 282 281 281 281 280 279 279 277 277 276 276 274 274 274 274 273 274 274 274 274 274 275 277 278 278 279 279 280 280 280 280 280
287 287 287 286 285 284 284 283 283 282 282 282 282 281 280 280 279 279 278 277 276 276 276 273 274 274 274 273 274 274 273 273 274 275 276 277 277 278 279 279 279 279 279
287 286 286 285 284 284 284 283 282 282 282 282 282 281 281 280 280 279 279 278 277 276 277 275 274 273 274 274 274 274 273 273 273 274 275 275 276 277 277 278 278 278 278
286 284 283 284 283 284 284 284 283 282 282 282 281 281 281 281 280 279 279 278 277 277 276 275 275 274 274 274 273 273 273 273 273 273 273 274 275 275 276 276 277 277 277
286 285 283 283 283 283 284 283 283 283 282 282 282 282 281 281 280 279 278 278 278 277 276 275 274 274 273 274 274 274 274 273 273 273 273 273 273 274 274 275 276 277 276
287 286 285 284 284 284 284 284 283 283 282 282 282 281 281 280 280 280 279 278 278 278 277 275 275 275 274 274 274 273 273 273 273 273 273 273 273 273 273 273 274 275 275
286 286 285 284 283 283 283 283 283 284 282 282 281 281 281 280 280 280 279 278 278 278 277 276 276 275 276 276 276 275 273 273 273 273 273 273 273 273 273 273 273 273 273

GFSGL_850_thetae_012.txt.gz
Theta_e
302 301 301 302 302 302 303 302 301 300 298 295 294 293 291 290 289 289 289 289 289 289 289 289 289 288 288 288 287 286 287 288 290 289 289 288 289 290 291 291 291 291 291
300 300 302 303 303 302 302 301 298 296 294 293 293 292 290 290 289 289 288 288 288 288 288 288 288 287 286 286 286 285 285 286 287 288 289 289 289 289 289 290 290 290 290
299 298 297 296 296 298 301 300 297 295 295 294 291 290 290 289 289 289 288 288 288 288 288 287 287 285 285 284 284 284 284 284 286 287 287 288 288 288 288 288 288 288 289
298 297 296 294 295 299 298 297 297 296 294 292 290 290 290 289 289 289 288 288 288 288 287 286 284 282 281 281 282 283 284 285 285 286 287 287 287 287 287 286 286 287 288
296 295 294 293 294 294 294 294 296 293 293 290 290 290 289 289 289 288 288 288 287 285 284 283 282 281 280 280 282 283 283 284 285 286 286 286 285 285 285 284 284 284 286
294 294 294 293 294 293 293 294 295 294 291 292 291 289 289 289 288 288 287 285 284 283 283 282 281 280 280 280 280 281 282 283 283 284 285 285 285 285 285 284 284 283 284
294 294 294 294 293 292 293 294 294 294 292 291 290 289 289 288 287 286 285 284 283 282 282 281 280 279 279 280 280 280 280 281 281 282 283 284 284 284 284 284 283 283 284
294 294 294 294 293 292 293 292 293 291 291 290 289 288 288 287 286 284 283 282 282 281 280 279 279 279 279 279 280 281 281 281 281 282 282 282 282 282 282 282 283 283 283
294 294 294 293 292 291 292 292 291 291 290 289 288 288 287 285 284 282 281 280 279 279 279 279 278 278 279 280 280 280 280 281 281 282 282 282 282 282 283 283 283 284 284
294 294 293 293 292 292 291 291 290 289 289 288 287 287 285 284 282 281 279 279 278 278 278 279 278 279 279 280 280 280 280 280 280 281 281 281 282 282 282 282 282 283 283
294 293 292 292 291 291 291 290 290 289 288 287 287 286 284 283 281 280 280 277 277 277 278 278 278 278 279 279 280 280 280 280 280 280 280 281 281 281 282 282 282 282 282
293 293 291 291 290 290 289 289 288 288 287 287 286 285 284 282 281 280 279 277 277 277 278 278 278 278 278 279 279 280 280 280 281 281 281 281 282 282 283 283 284 284 284
292 292 291 290 289 289 289 289 288 287 287 286 285 284 283 282 280 279 278 277 277 277 277 277 277 278 278 278 278 279 279 280 280 280 281 281 282 282 283 284 284 285 285
292 292 291 289 288 287 287 287 287 287 286 285 284 283 282 281 280 279 278 277 277 277 277 277 277 277 277 277 278 278 278 278 279 279 280 281 281 282 283 284 285 285 286
291 291 291 288 287 286 286 287 287 287 286 284 283 283 282 281 280 278 278 277 276 276 276 276 276 276 276 276 277 278 277 278 279 279 280 280 281 282 283 284 285 286 286
290 291 290 289 287 286 286 286 286 286 284 283 283 282 282 281 280 278 278 277 276 275 275 276 275 275 275 275 276 277 277 277 278 279 279 280 281 282 282 283 284 284 285
290 290 289 288 287 287 286 285 284 284 283 283 282 282 281 281 280 279 278 277 276 274 274 274 275 275 274 275 275 275 276 276 277 278 279 280 281 281 281 282 283 283 284
288 288 288 287 287 287 286 284 283 283 283 282 282 281 281 281 280 279 278 278 278 275 274 274 274 274 274 274 274 275 275 276 277 278 278 279 280 280 280 281 281 282 283
288 288 287 287 287 286 285 284 283 283 282 282 282 281 281 280 280 279 279 278 277 277 274 274 274 274 273 274 274 274 273 273 275 277 278 278 279 280 280 280 280 280 281
288 287 287 286 286 285 284 284 283 282 282 282 282 281 281 280 280 279 279 278 277 277 277 274 274 273 273 273 273 273 273 273 274 276 277 277 278 278 279 279 279 279 279
288 287 286 285 285 284 284 283 283 282 282 282 282 281 281 280 280 280 279 278 278 277 276 276 275 274 273 273 273 273 273 273 273 274 275 276 276 277 278 278 278 278 278
288 287 286 284 284 283 283 283 283 283 282 282 282 281 281 281 280 280 279 279 278 277 276 276 275 274 274 274 274 274 274 274 274 273 273 274 275 275 276 277 277 277 277
288 287 285 284 283 283 283 283 283 283 282 282 282 281 281 281 281 280 279 279 278 278 277 276 275 275 274 274 273 274 274 274 274 274 273 273 274 274 274 275 275 276 277
288 287 286 286 284 283 283 283 283 283 283 282 282 282 282 281 281 280 280 279 279 278 278 277 276 275 275 275 274 273 273 274 274 273 273 273 273 273 273 273 274 275 275
288 287 286 286 285 285 284 283 283 283 283 283 282 281 281 281 280 280 280 279 279 279 278 278 277 276 275 276 276 276 276 274 273 274 273 273 273 273 273 273 273 273 273
287 287 287 286 286 285 284 284 283 283 283 283 282 281 281 280 280 280 279 279 279 279 278 278 277 277 276 276 276 276 275 275 275 275 275 275 273 272 272 273 273 273 273

GFSGL_850_thetae_015.txt.gz
Theta_e
300 299 299 298 299 296 295 298 300 298 297 298 297 294 292 291 290 289 288 288 288 288 288 288 288 288 288 287 287 286 285 285 285 285 286 287 289 289 288 288 289 290 290
299 299 297 296 294 293 294 298 298 297 296 297 296 295 291 290 289 289 288 288 288 288 288 287 287 287 287 286 284 283 283 283 284 284 284 286 287 288 288 288 287 288 289
298 297 296 295 293 292 292 292 292 293 295 296 294 293 290 289 290 289 289 288 288 288 287 287 286 284 283 283 282 282 281 282 283 284 284 284 286 287 287 287 287 287 287
297 296 295 293 293 293 293 293 291 294 295 293 292 290 289 290 289 289 289 288 288 287 286 284 283 283 282 281 280 280 281 282 283 283 284 285 286 286 286 286 286 286 286
296 295 294 293 294 293 293 292 292 294 294 293 292 290 290 289 289 289 288 287 286 284 283 283 282 281 281 280 280 280 280 281 282 283 283 284 285 286 286 285 285 284 284
295 294 294 294 294 293 293 291 292 293 293 293 291 290 289 289 288 288 287 285 284 283 282 281 280 280 279 279 279 280 280 281 281 281 282 283 284 285 285 285 284 284 283
294 294 294 294 294 293 292 291 292 292 292 291 291 290 289 288 287 286 284 283 282 281 280 279 279 279 279 279 279 280 281 281 281 281 281 281 282 283 284 284 284 283 283
294 294 294 293 293 292 291 291 292 291 291 291 289 289 288 287 286 284 282 281 280 280 279 279 279 278 278 279 279 280 280 280 280 281 281 281 281 282 282 282 282 282 282
294 293 293 293 292 291 291 291 291 290 290 289 288 288 287 286 284 282 280 280 281 280 279 279 278 278 279 279 280 280 280 280 280 280 280 281 282 282 282 282 282 283 283
292 293 293 292 291 291 291 290 290 290 289 289 288 287 286 284 282 281 280 281 280 279 279 279 278 278 279 279 280 280 280 280 280 280 280 280 280 281 282 282 282 282 282
292 292 292 291 290 290 289 290 289 289 288 287 287 286 284 283 281 280 280 280 278 277 278 278 278 278 278 279 279 279 279 280 280 280 280 280 281 281 281 281 281 281 281
291 291 292 291 291 289 289 289 289 288 287 286 286 284 283 282 281 280 280 279 277 277 277 277 277 277 278 278 278 278 279 279 280 280 281 281 281 282 282 282 283 283 283
290 291 292 291 291 288 288 288 287 287 286 286 285 283 282 282 281 280 280 279 278 277 277 277 277 276 276 277 277 278 278 278 279 279 280 280 281 282 282 283 283 284 284
289 290 290 290 290 288 287 287 287 286 286 285 284 283 282 282 281 280 279 279 278 276 276 277 276 276 276 276 277 277 278 278 278 279 279 280 281 282 283 283 284 285 285
289 289 290 290 289 287 286 286 286 286 285 284 283 283 282 281 281 280 278 278 277 276 275 276 276 276 276 276 276 277 277 277 278 279 279 280 281 282 283 284 284 285 285
288 289 289 289 288 287 286 286 285 284 284 283 283 282 282 281 281 280 278 277 278 276 275 275 275 275 275 275 275 276 276 277 277 278 279 280 281 281 282 282 283 284 285
288 288 288 288 287 287 286 286 284 283 283 283 282 282 281 281 280 280 279 278 277 277 275 274 275 274 274 274 274 275 275 275 276 278 279 279 280 280 281 281 282 283 283
288 288 288 287 287 286 286 285 284 283 282 282 282 282 281 281 280 280 279 278 277 277 277 274 274 274 274 274 274 273 273 274 275 277 278 279 279 280 280 280 280 281 281
288 288 287 287 286 286 285 284 284 283 282 282 282 282 281 281 280 280 279 278 277 277 277 276 274 274 274 274 274 273 273 273 274 276 277 278 278 278 279 279 279 279 280
288 288 287 286 286 285 284 284 284 283 282 282 281 281 281 281 280 280 279 279 278 277 276 276 276 275 274 274 274 274 274 274 274 274 275 276 277 277 278 278 278 278 278
288 288 287 286 285 284 283 283 284 283 282 282 281 282 281 281 280 280 280 279 279 278 277 276 275 275 274 275 275 275 274 274 274 273 273 274 275 275 277 277 277 277 277
288 288 287 286 285 284 283 282 283 283 283 283 281 281 281 281 281 281 280 279 279 279 278 277 275 275 275 274 274 274 275 274 274 274 273 273 273 274 274 275 276 276 277
287 287 288 287 285 284 284 283 283 283 283 283 282 281 281 281 281 281 280 280 279 279 278 278 277 276 276 275 275 275 274 274 274 274 274 273 273 273 273 273 274 274 275
286 287 288 287 286 286 285 284 284 283 283 282 282 282 282 281 281 281 280 280 280 280 279 278 278 277 277 276 276 276 276 276 275 274 274 274 273 273 273 273 273 273 274
287 287 287 287 286 286 285 285 285 284 283 283 283 282 282 282 281 281 280 280 280 280 279 279 278 277 277 277 276 276 276 276 275 275 275 275 275 273 273 273 273 273 273
286 287 287 286 286 286 286 286 286 285 284 283 283 283 283 282 281 281 281 280 280 280 279 279 278 277 277 277 276 276 276 275 275 275 275 275 275 274 273 273 273 273 273

GFSGL_850_thetae_018.txt.gz
Theta_e
300 299 298 296 295 294 293 292 292 292 292 295 295 296 295 294 292 290 289 289 288 288 288 288 288 287 287 287 286 285 284 283 282 282 282 283 284 285 285 288 288 288 288
299 298 297 295 294 293 293 293 293 292 291 293 295 294 293 293 291 289 289 289 288 288 288 288 287 287 286 284 283 283 282 281 280 281 282 282 283 284 287 287 288 288 288
298 296 295 294 293 292 293 293 293 291 291 293 294 293 293 291 289 290 289 289 288 288 288 287 286 284 283 283 282 281 281 280 280 282 282 282 283 284 284 286 286 286 287
296 295 294 293 293 293 293 293 292 291 291 292 294 294 293 289 290 290 289 289 288 287 286 285 283 282 282 281 280 280 280 280 280 280 281 283 283 284 285 286 286 286 286
295 295 294 293 293 293 293 293 292 291 291 293 293 292 290 290 290 289 288 287 287 285 284 282 281 280 280 280 280 280 280 280 280 280 281 281 282 283 284 285 285 285 285
295 294 294 294 293 293 293 292 291 291 291 291 291 292 291 290 288 288 287 286 285 282 281 281 280 279 279 278 279 279 279 280 280 280 280 280 280 281 282 284 284 284 284
294 294 293 294 293 293 292 291 291 291 291 291 291 290 289 288 288 287 286 284 282 281 281 280 279 279 279 279 279 279 279 280 280 280 280 281 281 281 281 282 282 283 283
294 293 293 293 293 292 291 290 290 291 291 290 290 289 288 288 287 286 284 282 281 281 280 279 279 279 278 278 279 279 279 280 280 280 280 280 280 282 281 281 282 282 282
291 291 292 292 291 291 290 290 289 290 290 289 288 288 287 286 285 283 282 281 281 281 280 279 278 278 278 279 279 279 279 280 280 280 280 280 280 280 281 282 281 281 281
291 291 291 290 291 291 290 290 289 289 289 289 288 287 286 285 283 282 281 280 281 280 279 279 278 278 278 278 278 278 279 279 279 280 280 280 280 280 281 281 282 282 282
290 289 289 289 291 291 290 289 289 289 288 288 287 286 285 284 282 281 280 280 280 279 278 278 278 277 277 277 277 278 278 278 279 280 280 281 281 281 281 281 281 281 282
289 289 289 290 291 291 290 288 288 288 287 287 286 286 284 282 282 281 280 280 279 278 277 277 278 277 276 276 277 277 278 278 278 279 280 280 280 281 281 282 282 282 282
289 289 289 289 290 290 289 287 287 287 286 286 286 285 283 282 281 281 280 279 279 278 276 276 277 276 276 276 277 277 277 278 278 279 279 280 280 281 281 282 283 283 283
289 289 288 289 289 289 289 287 286 286 286 285 285 284 282 282 281 280 280 279 279 279 276 276 275 275 276 276 276 276 276 277 278 278 279 280 281 282 282 283 284 284 284
289 288 288 288 289 289 288 287 286 285 285 284 284 283 282 282 281 281 280 279 278 279 277 276 276 276 276 276 276 276 276 276 278 278 279 280 281 281 282 283 284 285 285
288 288 288 287 288 288 287 286 285 285 284 283 283 283 282 281 281 280 280 279 278 278 278 276 276 275 275 275 275 275 274 275 277 278 278 279 280 280 281 282 283 283 284
288 288 288 288 288 287 287 285 285 284 283 282 282 282 282 281 281 280 280 279 278 278 278 277 275 275 275 274 274 274 274 274 275 277 278 278 279 279 280 280 281 282 283
288 288 288 288 288 287 286 286 285 284 283 283 282 282 282 281 281 280 280 279 279 277 277 278 277 276 275 274 274 274 274 274 274 276 277 277 278 278 279 279 279 280 280
288 288 288 288 287 287 286 286 284 283 283 283 281 281 281 281 281 280 280 280 279 279 277 277 277 277 276 275 274 274 274 274 273 274 275 276 277 277 278 278 278 278 279
288 288 287 287 287 286 285 284 284 284 283 282 281 281 281 281 281 280 280 280 280 279 279 277 276 276 275 275 275 276 276 275 274 274 273 274 275 275 276 277 277 277 277
286 287 287 287 287 286 285 284 283 283 283 282 282 282 281 281 281 281 280 280 280 280 279 279 278 276 276 276 275 274 274 274 274 274 274 274 274 274 274 275 276 276 276
286 286 286 286 287 286 285 284 283 283 282 283 282 283 282 281 281 281 281 281 280 280 279 279 279 278 277 276 276 276 275 274 275 274 274 274 274 273 273 273 274 274 276
285 286 286 286 287 287 286 285 284 284 283 283 283 282 282 281 281 281 281 281 280 280 280 279 279 279 278 277 276 276 276 276 276 275 274 274 274 273 273 273 273 273 274
285 285 286 286 287 287 286 285 285 285 284 284 283 283 282 282 282 282 282 281 281 280 280 280 279 279 278 278 277 276 276 276 276 276 275 275 276 275 273 273 273 273 273
285 285 285 286 286 286 286 285 285 285 285 285 285 284 283 283 282 282 282 281 281 280 280 280 279 279 278 278 277 276 276 276 276 275 275 275 275 275 274 273 272 273 273
285 285 286 286 286 287 287 287 287 287 287 287 286 286 285 283 283 282 282 282 281 281 280 280 280 279 278 277 277 277 276 276 275 275 275 275 275 274 274 273 274 273 273

GFSGL_850_thetae_024.txt.gz
Theta_e
301 299 298 298 297 297 296 296 295 295 295 294 294 294 295 295 295 295 294 295 293 292 292 291 291 290 289 288 288 287 287 287 286 286 286 286 286 285 285 286 286 287 287
300 298 298 297 297 297 296 296 295 295 294 294 294 294 294 294 294 294 294 292 292 291 291 290 290 289 288 287 287 286 286 285 285 285 285 285 285 284 285 285 285 286 287
299 298 298 298 297 296 296 296 296 295 294 294 294 294 294 294 292 292 292 291 291 290 290 289 288 287 286 286 285 285 285 284 284 284 284 283 284 284 284 285 285 286 286
298 298 297 297 297 296 296 296 295 294 293 293 293 293 293 292 292 291 290 290 290 289 288 287 286 284 284 283 283 283 283 283 283 283 283 283 283 284 284 284 285 285 286
298 297 297 297 295 295 295 296 295 294 293 293 293 293 292 291 290 290 290 289 288 287 286 285 284 283 282 281 281 281 281 281 282 282 283 283 283 284 284 284 284 284 285
297 297 296 294 294 294 295 294 293 293 293 293 292 292 291 289 290 289 288 287 287 285 284 283 283 282 282 280 280 279 279 280 281 282 282 283 283 283 283 283 283 284 285
296 296 294 293 293 294 294 293 293 293 292 292 292 291 290 289 289 288 287 286 285 284 283 283 282 282 281 281 280 280 281 281 281 281 281 283 283 283 283 283 283 283 284
296 294 293 293 293 293 293 293 293 292 292 292 292 290 289 288 288 287 286 284 284 283 282 282 282 281 281 279 279 280 281 281 281 281 281 281 281 282 282 282 282 283 283
294 293 292 292 292 292 292 292 292 292 291 291 291 290 289 287 287 286 285 284 284 283 282 282 280 280 279 278 278 279 280 280 281 280 279 279 280 281 281 281 282 283 284
291 290 290 292 291 291 291 292 292 291 290 290 290 289 288 288 287 286 284 283 283 282 282 281 280 278 279 277 277 278 279 279 279 279 280 281 281 282 282 282 282 282 283
290 290 290 291 291 291 291 291 291 291 290 289 288 288 287 287 286 285 284 283 282 281 281 281 280 277 277 277 276 277 277 277 278 279 280 281 282 282 282 283 283 283 283
289 289 290 290 290 290 291 291 291 290 290 289 287 287 286 285 285 284 283 283 282 281 280 280 279 277 277 276 277 276 277 277 278 278 279 280 281 281 281 282 282 283 283
289 289 291 291 290 290 290 290 290 290 289 289 288 287 287 286 285 284 283 282 282 281 280 279 279 278 277 277 277 276 276 277 277 278 279 279 279 280 282 283 283 284 283
289 290 291 291 290 289 289 289 289 289 289 288 288 287 286 286 285 284 283 281 281 280 280 279 279 279 278 277 277 277 276 275 276 277 277 278 279 280 281 282 283 285 285
290 290 290 290 290 290 289 288 289 288 288 288 287 286 285 284 284 284 282 282 281 280 280 279 279 278 278 278 278 277 277 276 276 276 277 278 278 279 280 281 282 283 285
289 289 290 289 290 289 289 289 288 287 287 286 285 285 284 283 283 283 282 282 281 281 280 280 279 279 278 278 278 277 277 276 275 275 276 277 277 278 279 280 281 282 283
289 288 289 289 289 289 288 287 287 288 287 286 286 285 284 283 282 282 282 282 281 281 279 281 280 279 278 278 278 277 277 276 276 275 275 276 276 277 278 279 280 280 281
289 289 288 288 288 288 288 287 287 287 287 286 286 285 284 283 282 282 282 281 280 280 280 280 280 279 279 278 277 277 276 276 276 276 275 275 275 276 277 278 278 278 279
289 288 288 288 287 287 287 287 287 287 287 286 286 285 284 283 282 282 281 281 281 281 282 281 280 279 279 278 277 277 277 276 275 276 275 275 275 275 276 276 277 277 278
289 288 287 286 287 287 287 286 286 287 287 286 286 285 284 284 283 282 282 282 281 281 281 281 281 280 279 278 277 277 276 276 276 275 275 275 275 275 275 275 276 277 278
290 289 287 286 287 286 286 286 286 286 287 286 285 285 284 284 284 283 283 283 282 282 281 281 281 280 279 278 277 277 276 276 276 276 276 275 275 275 274 274 275 276 276
289 288 288 288 287 286 285 286 286 286 286 286 285 284 284 284 283 283 283 283 282 282 282 281 281 280 280 279 278 277 277 276 276 275 276 276 275 275 274 274 274 274 275
288 288 287 287 287 286 285 285 286 286 286 286 286 286 285 285 285 284 284 284 283 283 282 281 281 281 280 280 280 279 278 276 276 277 276 276 275 274 274 274 274 274 274
287 286 286 286 286 286 286 286 285 286 286 286 286 286 286 285 285 285 285 285 285 283 282 282 282 281 281 280 280 280 279 278 277 277 277 276 276 274 274 274 274 274 274
287 286 285 285 286 286 285 285 285 286 285 286 286 285 285 285 285 285 285 285 285 285 284 283 282 282 281 280 280 280 279 278 277 277 277 276 276 276 275 275 274 274 274
287 285 285 285 285 285 285 285 285 285 284 284 284 284 284 284 284 284 285 285 285 284 285 285 283 282 282 281 280 280 279 278 277 277 276 276 276 275 275 274 274 273 273

GFSGL_850_thetae_027.txt.gz
Theta_e
304 304 303 301 300 300 300 299 298 298 297 296 296 295 295 295 295 296 295 295 295 295 294 293 293 292 292 291 290 289 289 288 288 288 287 287 287 286 286 286 286 286 286
307 304 301 301 300 300 299 298 298 298 297 296 295 295 295 295 294 294 294 293 293 294 293 292 292 291 290 289 288 288 287 287 286 286 286 285 286 286 285 285 285 286 286
306 303 301 300 300 300 299 298 298 297 297 296 295 295 295 294 293 293 292 293 292 292 292 291 290 289 288 287 286 286 285 285 285 285 285 284 284 284 285 285 285 285 286
303 302 300 300 300 299 298 297 297 297 296 295 295 294 294 294 293 292 292 292 291 291 290 289 288 287 286 285 284 284 284 284 283 283 284 284 284 284 285 285 285 285 285
302 301 300 299 299 298 297 297 297 296 295 295 294 294 294 293 292 291 291 290 290 289 289 287 286 285 284 283 282 282 282 282 282 282 282 283 283 284 284 284 284 284 285
301 300 299 299 298 297 296 296 296 295 294 294 294 294 293 292 291 289 289 289 288 287 287 286 285 285 284 283 282 281 281 281 281 282 282 282 282 283 284 284 284 284 284
300 299 298 298 296 295 295 295 294 294 294 294 294 293 293 292 290 289 288 287 286 286 286 285 285 284 284 283 282 281 281 281 281 282 282 282 283 282 282 283 283 284 284
299 298 298 296 295 295 294 294 294 294 294 294 293 293 292 291 290 288 287 286 286 286 285 285 284 284 282 281 280 280 281 281 282 282 281 281 281 281 281 282 282 283 283
298 297 296 294 294 294 293 293 293 294 293 293 292 292 291 291 289 288 287 286 286 285 285 284 283 282 281 279 278 279 280 280 281 280 280 280 280 281 281 282 282 283 283
297 295 294 293 293 293 293 293 293 293 293 292 292 291 291 290 289 288 286 285 284 285 284 284 283 282 281 278 277 278 279 280 279 279 279 281 281 282 283 283 283 284 284
294 291 291 292 292 293 292 292 293 293 292 292 291 290 290 289 287 287 286 285 284 284 283 283 283 282 280 278 277 278 278 276 277 279 280 281 282 282 282 283 283 284 284
291 292 292 292 293 292 292 292 292 292 292 291 290 290 289 288 287 286 285 284 283 282 282 282 281 280 279 278 278 277 277 278 279 279 280 281 281 281 281 282 283 284 284
291 292 292 292 292 292 292 291 291 291 291 291 290 289 288 287 287 286 285 284 283 283 281 281 281 280 280 280 279 279 278 279 278 278 279 279 280 280 281 282 283 284 285
291 292 292 292 292 291 291 291 291 290 290 290 289 289 289 288 287 286 285 284 282 282 282 282 281 281 281 280 280 280 280 279 278 278 278 279 279 280 281 281 282 283 285
291 291 291 291 291 291 291 291 290 289 289 289 289 288 288 287 286 285 285 284 283 282 282 281 281 282 281 281 281 280 280 280 279 277 278 278 279 279 280 280 281 282 283
289 289 290 290 290 290 290 290 289 289 289 288 287 287 286 285 285 284 284 283 282 282 282 281 282 282 281 281 281 280 280 280 279 277 278 278 278 278 279 280 281 281 282
289 289 289 290 291 290 290 289 289 289 289 289 288 287 286 286 285 284 283 282 282 282 281 281 282 282 281 281 281 280 280 279 278 278 278 278 277 277 278 280 280 280 280
290 290 290 291 290 289 289 288 288 289 288 288 288 288 286 286 285 284 283 282 281 281 281 281 282 282 282 281 281 280 280 278 278 277 277 277 277 277 278 278 279 279 280
291 291 290 289 288 288 288 288 288 288 287 287 288 288 287 286 285 284 283 282 282 282 282 283 283 283 282 281 281 280 278 278 277 277 277 277 277 277 277 277 278 278 279
292 291 290 290 288 288 287 287 287 287 287 287 287 288 286 286 285 284 284 283 283 283 283 282 283 283 283 281 280 279 279 278 278 278 277 277 276 276 277 277 277 277 278
292 291 290 290 289 289 288 288 287 287 287 287 287 288 286 285 285 285 285 284 284 283 283 283 282 282 282 281 280 279 279 278 278 277 276 277 276 276 277 277 277 276 277
291 291 290 289 288 288 288 288 287 286 286 286 287 287 287 286 285 285 285 285 284 284 283 283 283 282 282 281 280 280 279 279 278 277 276 276 275 276 276 276 277 276 276
290 290 289 288 287 287 287 287 287 286 286 286 286 287 287 287 286 286 285 285 285 285 285 284 283 282 282 281 281 280 280 279 278 277 277 276 275 276 276 276 276 276 276
289 289 288 288 287 286 286 286 287 286 286 286 286 286 287 287 286 286 286 286 285 285 285 285 284 283 283 282 281 281 280 280 279 279 278 277 276 275 275 275 276 276 276
290 289 288 287 286 286 286 286 286 286 286 286 286 286 286 286 286 286 285 285 285 285 285 285 285 284 284 283 282 282 281 280 280 279 278 277 277 276 276 274 275 275 275
287 288 287 287 286 286 285 285 285 285 285 284 284 284 284 284 284 284 284 284 284 284 284 285 285 284 284 284 283 282 281 280 280 279 278 277 276 275 274 275 275 275 275

GFSGL_850_thetae_030.txt.gz
Theta_e
309 308 306 306 304 302 301 301 300 298 298 298 297 296 295 295 295 295 295 293 294 293 293 294 294 293 292 291 290 289 288 288 287 287 287 286 286 286 285 285 285 284 284
308 307 306 305 304 301 301 300 299 298 298 298 297 296 295 295 295 295 294 294 292 293 293 293 292 291 290 290 288 287 287 287 286 286 285 285 284 284 284 284 284 284 285
306 305 305 303 301 301 300 300 299 298 298 298 297 296 295 295 295 294 293 292 292 292 292 291 290 289 288 287 287 286 285 284 284 284 284 283 283 283 283 284 284 284 285
305 306 303 302 301 300 300 300 298 298 297 297 296 295 295 294 294 293 292 292 291 291 290 290 289 287 287 286 285 284 283 282 282 282 282 282 282 282 283 283 284 284 284
306 304 302 301 300 300 300 298 297 297 297 297 295 295 294 294 294 293 292 289 290 289 288 288 287 286 286 285 284 283 283 282 281 281 281 281 282 282 282 283 283 283 283
306 303 301 302 300 299 298 297 296 296 296 295 295 295 294 294 293 292 291 289 288 287 287 287 286 286 285 284 284 283 283 281 281 281 281 282 282 282 282 282 281 281 282
305 302 301 300 299 298 296 295 295 295 294 294 295 294 294 294 293 292 291 288 287 286 286 286 286 285 284 284 283 282 279 280 281 281 282 282 281 281 281 280 280 281 282
304 301 300 298 297 296 295 294 294 294 294 294 294 293 293 293 292 291 290 288 287 286 286 286 285 284 284 283 282 279 279 279 280 281 281 280 280 280 280 281 281 281 282
301 299 299 297 295 295 293 293 293 293 293 294 294 293 292 292 291 291 290 288 287 285 285 285 285 284 283 283 281 279 278 279 280 280 279 279 280 281 281 282 283 283 283
299 297 296 295 293 292 293 293 293 293 293 293 293 292 292 291 291 290 289 288 286 285 284 284 284 283 283 282 280 279 278 278 277 278 279 279 280 281 282 282 283 283 283
296 296 294 294 292 292 292 292 292 292 293 293 292 292 291 291 290 289 288 287 285 285 284 283 283 283 283 281 280 279 279 278 279 279 279 279 280 280 281 281 282 283 283
292 294 293 291 292 293 293 292 292 291 292 292 292 291 291 290 289 288 287 286 285 284 284 283 282 282 280 280 280 280 280 279 279 278 278 279 279 280 280 281 281 282 283
293 292 292 291 292 292 293 293 292 291 291 290 290 291 290 289 288 288 287 287 286 284 284 283 282 281 281 281 281 280 280 280 279 279 278 278 278 279 280 280 281 282 283
292 292 291 292 292 292 290 291 292 291 291 290 289 289 289 289 289 288 287 286 286 285 283 283 282 281 282 281 281 281 280 280 280 279 279 278 278 278 279 279 280 281 282
290 290 290 290 290 290 291 291 291 291 290 289 289 289 289 289 288 287 287 285 285 284 284 283 282 282 282 281 281 281 280 280 280 279 278 278 278 278 278 279 280 280 281
289 289 289 289 289 290 291 291 290 289 289 289 289 289 288 287 287 286 285 285 284 284 283 283 282 282 282 282 281 281 281 280 280 279 278 278 278 277 277 278 279 280 280
289 290 290 290 290 290 290 289 289 289 289 288 289 289 288 288 287 286 286 285 283 282 282 282 282 282 282 282 281 281 281 280 280 278 278 277 277 277 277 278 278 279 279
290 290 291 291 291 291 289 288 288 288 288 288 288 288 288 288 288 286 285 284 283 282 281 281 281 282 282 282 281 282 281 280 279 278 278 277 277 277 277 277 277 278 278
292 292 292 292 291 290 290 289 288 288 287 287 288 287 287 288 288 286 285 284 283 283 282 282 282 282 283 283 282 281 281 280 279 278 278 277 277 277 277 277 277 277 278
292 292 292 292 291 291 290 289 289 289 288 287 287 287 287 287 288 286 286 285 284 283 283 283 283 283 283 283 283 282 281 280 279 279 278 278 277 277 277 277 277 277 277
292 292 291 291 291 290 289 289 288 288 288 288 287 286 287 287 288 287 286 285 285 285 284 284 283 283 282 283 282 282 281 280 279 279 278 278 277 277 277 277 277 277 276
290 290 290 290 290 290 289 288 287 287 287 288 287 286 286 287 288 287 286 285 285 285 285 285 284 284 284 283 282 282 281 280 279 279 279 278 277 277 276 277 277 277 276
289 289 290 290 289 289 289 288 287 286 286 287 287 286 286 286 287 288 287 286 286 286 285 285 285 285 284 284 283 282 281 280 280 279 279 279 278 277 276 276 276 276 276
284 285 286 287 287 289 288 287 286 286 286 286 287 286 286 286 286 286 287 287 286 286 286 285 285 285 285 285 284 283 282 281 281 280 280 279 278 278 277 276 276 276 276
282 283 284 285 286 288 287 287 286 286 286 286 286 285 285 285 285 285 285 285 285 284 284 284 284 285 285 285 285 284 283 282 282 280 280 279 278 278 277 277 276 276 275
282 284 285 285 285 286 287 286 285 284 283 283 283 282 282 283 283 282 282 283 283 284 284 284 284 284 284 284 284 284 284 283 282 281 280 279 278 278 277 276 275 276 275

GFSGL_850_thetae_033.txt.gz
Theta_e
316 313 310 309 306 302 304 303 300 300 299 298 298 297 297 297 295 295 295 295 294 293 292 293 292 292 292 292 290 290 289 288 287 287 286 285 284 284 285 284 283 283 284
315 311 309 309 305 305 302 301 302 300 299 298 298 298 297 296 295 295 295 294 293 292 292 292 292 291 290 289 289 288 287 286 286 284 283 283 283 282 282 282 282 283 283
313 310 309 308 306 303 301 301 300 299 298 298 298 298 297 296 295 295 294 294 293 292 292 291 290 289 289 288 287 286 286 285 283 283 282 282 281 281 282 282 282 282 283
312 309 309 307 304 302 302 300 300 300 298 297 297 297 297 294 295 294 294 294 292 291 290 290 289 288 287 287 286 285 284 283 283 282 281 281 281 281 282 282 282 282 282
313 310 308 304 303 302 300 301 301 297 297 296 297 296 295 295 294 294 294 293 292 291 288 288 287 287 286 286 285 284 284 283 283 281 280 281 281 281 282 282 281 280 280
314 308 307 303 302 301 300 301 297 295 294 295 295 295 295 295 294 294 294 293 291 289 287 285 286 286 285 285 284 284 283 282 280 279 280 280 281 281 281 280 280 280 280
309 307 303 302 301 299 299 297 296 294 294 294 294 294 294 294 294 293 293 292 291 289 287 285 286 286 285 284 284 284 282 281 279 279 280 281 281 280 280 280 280 281 281
306 303 302 300 299 297 297 294 294 293 293 293 293 293 294 294 293 292 292 291 291 289 288 285 286 285 285 284 283 282 281 280 279 279 280 280 280 279 280 281 281 282 282
303 301 299 298 296 295 294 293 293 293 293 293 293 293 293 293 292 292 292 291 290 289 287 285 284 285 284 283 283 282 281 280 279 278 279 279 279 280 281 282 281 281 282
300 298 296 296 294 294 295 293 293 293 292 292 293 293 293 292 292 292 291 290 289 288 286 285 284 284 283 283 282 281 280 280 280 280 279 279 279 280 280 280 280 281 281
298 297 297 297 297 293 293 292 292 292 292 292 291 292 292 292 292 291 290 289 288 287 285 284 283 283 283 282 281 280 280 280 280 279 279 278 279 279 279 280 280 281 281
297 299 298 294 293 293 292 292 293 293 292 292 291 291 290 290 290 290 289 288 287 286 286 285 283 283 282 281 281 281 280 280 280 279 279 279 278 278 279 279 279 280 281
300 295 293 293 292 291 291 292 292 292 291 291 291 291 290 289 289 289 288 288 287 287 286 285 284 283 282 281 281 281 281 280 280 279 279 279 278 278 278 278 279 280 281
294 292 292 290 290 291 291 291 290 290 291 291 290 290 289 289 289 289 289 288 287 286 285 285 284 283 283 281 282 281 281 281 280 280 279 279 278 278 278 278 279 280 280
291 290 290 289 289 289 289 290 290 290 291 290 289 289 288 288 288 288 288 288 287 286 285 284 284 283 283 282 282 281 281 281 280 280 279 279 278 278 278 278 278 279 279
290 290 289 289 290 290 290 290 290 290 288 288 288 289 288 289 289 288 288 287 286 285 284 284 284 283 283 282 282 282 281 281 281 280 280 278 278 277 277 277 277 278 278
290 290 290 290 290 291 291 291 290 290 289 288 287 288 288 288 287 288 288 287 286 285 284 284 282 282 282 282 282 282 281 281 281 280 280 278 277 277 277 277 277 277 278
291 291 291 291 291 292 291 291 290 290 289 289 288 287 287 287 287 287 287 288 285 285 284 283 282 282 282 282 282 282 282 281 281 281 280 278 277 277 277 277 277 277 277
291 291 291 292 292 292 292 291 291 290 290 289 288 288 288 287 287 287 287 288 286 285 285 284 283 282 282 282 282 282 282 282 281 281 280 279 278 277 277 277 277 277 277
292 291 291 291 291 291 291 291 291 290 289 288 288 287 287 287 286 286 287 288 286 286 285 285 284 283 282 282 282 283 283 283 282 282 280 280 278 277 277 277 276 276 276
288 288 288 288 288 289 289 290 290 290 289 288 287 287 287 287 286 286 286 287 287 286 285 285 285 284 284 283 283 282 282 282 282 281 280 279 279 278 277 277 276 276 276
283 284 283 282 283 284 286 288 289 289 289 288 287 286 286 287 286 286 286 287 287 287 286 285 285 285 285 285 284 283 283 282 282 281 280 280 279 278 277 277 276 276 276
280 280 281 282 283 282 283 284 285 286 288 287 286 286 286 286 286 286 286 287 287 287 287 286 285 285 285 285 285 285 284 283 283 282 281 280 280 279 278 277 277 276 276
279 280 280 281 283 283 284 285 285 287 287 286 286 286 287 286 285 285 285 285 285 286 286 286 285 285 285 285 285 285 285 284 284 282 281 281 280 279 278 277 277 276 276
278 278 278 279 279 281 282 284 285 286 286 285 285 284 284 284 284 283 283 284 284 284 284 285 285 285 284 284 284 284 284 284 284 283 282 281 280 279 278 278 277 276 276
276 276 276 276 277 278 278 280 280 280 280 281 281 281 281 281 281 281 281 281 280 280 280 281 282 284 284 285 284 284 284 284 284 284 283 282 280 279 278 277 277 277 276

GFSGL_850_thetae_036.txt.gz
Theta_e
322 320 319 317 315 312 308 306 303 302 301 302 301 298 298 298 298 297 296 294 295 294 294 292 291 292 291 291 290 289 289 288 287 286 285 284 283 283 283 283 282 282 282
320 319 318 316 314 311 306 302 305 303 302 299 298 298 298 298 297 297 295 294 295 294 294 292 291 291 290 289 289 288 287 286 285 285 283 283 282 282 281 281 282 281 281
319 317 316 314 311 308 306 306 306 303 300 298 298 298 298 297 297 296 294 295 294 294 293 291 290 290 289 288 288 287 286 285 284 283 283 282 281 281 281 281 281 281 282
317 317 316 314 310 308 306 304 305 299 300 299 298 297 296 297 296 294 295 294 294 294 292 291 289 289 288 287 287 286 285 284 284 283 282 280 280 281 281 281 281 281 280
317 314 311 309 306 304 302 301 299 299 298 296 295 295 295 294 293 294 294 294 294 293 292 291 288 286 286 286 286 285 284 284 283 282 280 279 280 280 280 280 280 280 280
316 312 308 305 302 303 301 299 298 298 299 295 295 294 294 293 294 294 294 294 293 293 292 290 289 286 285 285 285 284 284 284 282 281 279 279 280 280 280 280 279 280 281
313 308 306 304 303 302 301 297 297 296 295 294 294 293 293 293 294 294 294 293 293 292 291 290 288 287 285 285 285 284 284 283 281 280 279 279 280 279 279 279 280 281 281
308 306 304 302 302 298 296 296 298 298 296 294 293 293 292 293 294 293 293 292 292 292 291 290 288 286 285 285 284 284 283 282 281 280 279 279 279 279 279 280 281 281 281
306 303 301 300 297 296 297 298 299 294 293 293 293 291 292 293 293 292 292 292 291 291 290 289 287 285 285 284 284 283 282 281 280 280 280 279 278 279 279 280 280 280 280
302 301 299 296 297 300 299 295 293 293 292 291 291 291 291 291 292 292 292 291 291 290 289 288 286 284 284 283 283 282 281 280 280 280 280 279 278 278 278 279 279 279 280
299 298 298 300 300 296 293 292 292 292 292 292 292 292 292 291 290 290 290 290 290 289 288 287 286 285 284 283 282 281 281 280 280 280 279 279 279 279 278 278 279 279 279
299 300 300 297 293 293 292 291 290 291 291 292 292 292 291 291 290 289 289 290 289 288 287 287 286 285 284 283 282 281 281 281 280 280 279 279 279 278 278 278 278 279 279
300 298 294 293 292 291 290 290 290 290 290 290 290 290 290 290 289 289 289 289 288 288 288 287 287 285 284 283 282 281 281 281 280 280 280 279 279 278 278 278 278 279 280
293 292 292 290 290 290 289 289 289 289 289 289 290 290 290 289 289 288 288 288 287 289 288 287 286 285 284 283 283 282 281 281 281 280 280 280 279 278 278 278 278 278 278
290 290 290 289 289 289 289 289 290 290 289 289 289 289 288 288 288 288 288 288 288 288 287 286 286 285 284 283 283 282 281 281 281 281 280 280 280 278 278 277 277 277 278
290 290 290 289 290 290 290 290 290 290 290 290 289 289 288 287 287 287 288 287 288 288 287 286 285 285 284 283 283 282 282 282 281 281 281 280 280 278 278 277 277 277 277
290 290 291 291 291 291 291 291 292 291 291 290 290 289 289 288 287 287 287 287 287 288 287 286 285 285 284 283 282 282 282 282 281 281 281 281 280 278 277 277 277 277 277
290 290 290 291 291 291 291 291 291 291 291 291 291 290 289 288 288 287 287 287 287 287 287 286 286 285 284 282 282 282 282 282 282 281 281 281 280 279 278 277 277 277 277
291 290 290 289 289 289 289 289 289 289 289 289 289 290 289 288 287 287 287 286 287 287 287 287 286 285 284 283 282 282 282 282 282 282 282 281 280 279 278 277 277 276 276
284 283 283 283 283 282 282 282 282 284 286 288 288 289 289 287 287 286 287 286 286 286 286 287 286 285 285 283 282 282 282 282 283 282 282 281 281 280 279 277 277 276 276
281 280 280 280 280 281 281 282 282 282 283 284 287 289 289 288 286 286 286 286 286 286 286 287 287 285 285 285 284 283 282 282 282 282 282 282 281 280 279 278 277 277 276
279 278 279 279 279 279 281 281 282 283 283 284 285 285 286 287 286 286 286 286 286 286 286 287 287 286 285 285 285 284 284 283 283 283 282 282 281 280 279 278 277 277 276
277 277 278 278 278 278 279 280 281 282 283 284 286 287 286 286 286 286 286 285 285 286 286 286 286 286 286 285 285 285 285 284 284 284 283 282 282 281 280 279 277 277 277
277 277 277 277 277 277 277 278 279 279 281 283 283 283 285 285 285 285 285 284 285 285 285 285 285 285 285 285 285 285 285 285 284 284 284 283 282 281 280 279 278 277 277
276 276 276 276 275 275 275 276 276 277 278 278 278 278 278 280 281 281 282 282 282 282 283 284 284 284 284 285 284 284 284 284 284 284 284 284 283 281 281 279 278 277 277
275 275 275 274 274 274 274 274 274 274 275 276 276 276 277 277 278 278 279 279 279 280 280 280 280 280 281 282 283 284 284 284 283 284 284 284 283 282 281 280 278 277 277

GFSGL_850_thetae_039.txt.gz
Theta_e
326 325 324 323 322 321 318 314 312 310 310 308 302 303 300 298 298 297 297 297 295 294 294 294 294 292 290 290 290 289 289 288 287 286 285 284 283 282 282 282 282 282 282
324 324 324 320 318 316 315 314 311 308 303 301 302 299 298 298 298 297 297 296 294 294 294 294 293 292 290 290 290 289 288 287 286 285 284 283 282 282 281 281 281 281 281
323 322 322 319 318 315 311 306 304 301 301 302 301 298 298 297 297 297 296 293 294 294 294 294 293 291 290 289 289 288 287 286 285 284 284 283 282 281 281 281 281 281 280
322 322 319 317 315 311 307 305 304 301 303 301 299 297 297 296 296 295 293 293 294 294 294 293 292 291 289 287 286 286 286 285 284 284 283 282 281 280 280 280 281 280 279
321 319 318 316 312 308 306 303 301 302 300 299 296 296 295 296 295 293 294 294 294 294 293 293 292 291 289 288 286 285 285 284 284 283 282 281 280 279 280 279 279 279 280
320 318 316 310 307 306 303 302 302 299 298 296 299 299 297 294 294 293 294 294 294 294 293 293 292 290 289 288 286 285 285 284 283 283 282 280 279 279 279 279 279 280 280
318 316 312 308 306 302 302 302 300 298 298 300 299 294 294 293 293 293 293 293 293 293 292 292 291 290 289 287 285 285 284 284 283 282 281 280 279 279 278 279 279 280 280
314 310 307 306 304 302 301 299 299 300 299 296 295 293 293 292 291 292 293 293 293 292 292 291 291 289 288 286 285 284 284 284 282 281 280 280 279 279 278 279 279 279 280
309 306 304 302 301 299 298 300 299 298 295 293 293 292 291 290 290 290 292 292 292 291 291 291 290 288 287 285 284 284 284 283 281 280 280 280 279 279 278 278 278 279 279
304 303 300 297 298 299 300 299 296 293 293 292 291 291 291 291 291 290 290 290 290 290 290 290 289 288 287 285 284 283 283 282 281 280 280 279 279 279 279 278 278 278 278
299 299 301 300 298 299 297 294 293 292 292 291 290 290 290 290 291 290 290 290 289 289 289 289 288 287 286 286 284 283 283 281 281 280 280 279 279 279 279 278 278 278 277
301 299 299 300 298 295 293 292 291 290 290 290 289 289 289 289 290 290 290 289 289 289 289 289 288 287 287 286 285 283 282 281 281 281 280 280 279 279 279 278 278 278 278
299 297 295 294 293 292 291 290 290 290 289 289 289 289 289 289 289 288 288 288 288 288 288 288 288 287 287 286 285 283 282 282 281 281 280 280 280 279 279 278 278 278 278
292 291 290 290 289 289 289 289 289 289 289 289 289 289 289 289 289 288 287 288 288 288 288 288 288 288 287 286 285 284 283 283 281 281 281 280 280 280 279 278 278 278 278
290 290 290 290 289 289 289 289 290 290 290 290 290 290 290 289 289 288 288 287 287 287 288 288 288 287 286 286 285 284 283 283 282 281 281 281 280 280 280 278 277 277 277
290 290 290 290 290 290 290 290 290 290 291 291 291 291 291 290 290 289 288 287 287 287 288 287 287 288 287 286 285 284 283 282 282 281 281 281 280 280 280 278 277 277 277
290 290 290 290 290 290 290 290 290 289 289 290 289 290 290 290 290 289 289 288 287 287 287 287 286 287 288 286 285 284 283 282 282 281 281 281 280 280 279 278 278 277 277
290 290 289 287 286 285 285 284 283 283 283 283 284 285 287 288 289 289 289 288 287 287 286 286 287 287 286 286 285 284 282 281 281 281 281 281 280 280 280 279 278 278 277
284 282 282 281 281 280 280 280 280 280 281 282 282 282 282 284 287 288 289 287 287 287 287 286 286 286 286 286 285 284 283 282 281 281 281 281 281 280 280 279 278 278 277
281 281 280 280 279 279 279 279 279 279 280 280 281 282 283 283 285 287 288 287 286 287 286 286 286 286 286 286 285 284 283 282 282 281 282 282 281 281 281 279 278 278 277
280 279 279 278 278 278 278 278 278 279 279 279 280 281 282 283 284 285 285 287 286 286 286 286 286 286 286 286 285 285 284 282 282 282 282 282 282 281 281 279 279 278 278
278 278 278 277 277 277 277 277 277 277 278 278 277 280 282 284 285 286 286 286 286 286 285 285 286 286 285 286 286 285 285 284 284 283 283 282 282 282 281 280 279 278 278
277 277 277 276 276 276 276 276 276 276 276 277 278 278 277 278 279 280 283 284 284 285 285 285 285 285 284 285 285 285 285 285 284 284 284 283 283 282 281 280 279 279 278
276 276 276 276 275 275 275 275 275 275 275 275 276 276 277 277 278 278 277 279 280 283 283 283 283 283 284 285 284 284 285 285 285 285 284 284 284 283 282 281 280 279 278
275 275 275 274 274 274 274 274 274 274 274 273 274 274 274 275 276 277 277 278 278 280 281 281 281 281 283 283 284 284 284 284 284 284 284 284 284 283 282 281 280 279 278
274 274 273 273 273 273 273 273 273 272 272 272 272 272 272 272 273 274 275 276 277 278 278 278 279 280 280 281 281 281 282 283 284 284 283 284 284 283 283 282 281 279 278

GFSGL_850_thetae_042.txt.gz
Theta_e
328 328 327 326 325 322 322 319 319 319 317 313 309 307 303 302 299 298 297 297 297 296 294 294 294 294 293 292 290 289 289 289 288 287 286 285 284 283 282 281 281 281 281
325 326 325 324 323 321 320 321 319 317 314 305 305 302 301 299 299 297 297 297 296 294 293 294 294 293 293 291 290 289 288 288 287 286 286 285 284 283 281 281 281 281 281
324 322 322 322 321 321 320 319 316 311 306 307 302 301 300 301 297 297 296 296 295 293 294 294 294 293 293 291 290 288 287 287 286 285 284 284 283 282 281 281 281 281 281
324 324 323 322 320 317 316 313 310 306 305 300 301 301 298 297 297 296 295 295 294 294 294 294 294 293 292 291 289 288 286 285 285 284 284 283 282 281 281 280 281 280 280
324 323 322 318 315 313 312 308 303 302 301 301 300 300 299 299 296 295 296 294 294 294 294 294 293 293 292 290 289 288 286 285 285 284 283 283 282 281 280 280 279 279 279
323 322 319 314 311 310 307 304 302 301 301 300 301 300 299 298 297 294 293 293 293 293 293 293 293 292 292 290 289 288 286 285 284 284 283 282 281 280 280 279 279 279 279
320 318 315 312 308 305 302 302 301 300 300 300 300 299 297 295 294 293 293 291 292 293 293 293 292 292 291 290 289 288 286 285 284 283 283 282 280 280 280 279 279 278 279
315 313 310 308 306 303 301 299 299 300 300 300 298 295 294 293 292 291 290 290 291 292 292 292 291 291 291 289 288 286 285 284 284 283 282 281 280 280 279 279 278 278 278
311 309 307 304 302 300 298 299 300 300 298 296 294 293 292 291 291 290 290 290 290 290 291 291 291 290 290 289 287 286 284 284 284 283 282 280 280 280 279 279 279 278 279
306 305 303 300 299 299 300 300 299 298 294 293 292 292 291 291 290 290 290 290 290 290 289 289 289 289 289 288 287 286 285 284 283 282 281 280 280 279 279 279 279 278 278
301 300 300 301 300 300 300 298 295 293 292 292 291 290 290 290 289 289 290 290 289 289 289 288 289 289 289 288 287 286 286 284 283 281 281 280 280 279 279 279 279 278 278
300 300 300 300 297 296 294 292 292 290 290 290 289 289 289 289 289 289 289 289 288 288 288 288 287 288 288 288 287 286 286 284 282 282 281 281 280 280 280 279 279 278 278
298 295 293 292 291 290 290 289 289 289 289 289 289 289 289 289 289 289 289 289 288 288 287 288 288 288 288 288 287 287 286 284 283 282 282 281 281 280 280 280 279 278 278
291 290 290 290 289 289 289 289 289 289 289 290 290 290 290 290 290 290 290 289 289 288 287 287 287 287 288 288 287 286 286 285 284 283 282 281 281 280 280 280 279 278 278
290 290 290 289 289 289 289 289 290 290 290 290 290 289 289 290 289 290 290 290 290 288 288 287 287 287 287 287 287 287 286 285 284 283 282 282 281 280 280 280 279 278 278
289 289 290 290 290 289 289 287 286 285 283 283 282 282 282 284 285 286 286 288 289 289 288 287 287 287 287 287 287 287 286 285 285 283 282 282 281 280 280 280 279 278 278
289 289 287 285 284 283 282 282 282 283 281 281 281 280 281 281 281 283 284 284 286 288 288 287 287 286 286 286 286 286 286 286 284 283 282 282 281 281 280 280 280 279 278
284 283 283 282 282 281 281 280 280 280 280 280 279 279 279 280 282 282 282 283 285 286 287 288 287 287 286 286 286 286 286 285 284 282 282 281 281 281 280 280 280 279 278
282 282 281 281 280 280 279 279 278 278 278 278 278 279 279 280 280 281 282 283 284 286 286 287 286 286 287 286 286 286 286 285 284 283 282 281 281 281 281 280 280 279 278
281 280 280 279 279 278 278 278 277 277 277 277 277 278 278 278 279 280 282 283 284 284 286 286 286 286 286 285 286 286 285 285 284 283 282 281 281 281 281 281 280 279 278
279 279 278 278 278 277 277 277 276 276 276 276 276 276 277 277 278 277 278 282 282 283 285 286 285 285 285 285 285 285 285 285 284 283 282 282 281 282 281 281 280 280 278
278 278 277 277 277 276 276 276 276 275 275 275 275 275 275 276 277 278 278 278 277 279 282 283 284 285 285 285 284 284 284 285 285 284 283 282 282 282 282 281 281 280 279
277 277 276 276 276 275 275 275 275 274 274 274 274 274 274 274 275 275 276 277 278 278 278 279 282 283 284 284 284 283 283 284 285 285 284 284 283 282 282 281 281 280 279
276 276 276 275 275 274 274 274 274 273 273 273 273 273 273 273 273 273 274 275 276 277 277 278 278 281 282 283 283 283 283 283 284 284 285 284 284 284 283 282 281 281 280
275 275 274 274 274 274 273 273 273 272 272 272 272 272 272 272 272 272 273 273 274 275 276 277 277 278 279 280 281 282 283 282 283 284 283 284 284 284 284 283 282 281 280
274 274 273 273 273 273 273 272 272 271 271 271 270 270 270 270 270 271 271 272 273 274 274 275 276 277 277 279 280 281 281 281 282 283 283 283 283 283 283 283 282 281 280

GFSGL_850_thetae_045.txt.gz
Theta_e
325 326 326 326 326 325 325 323 321 321 320 318 314 311 307 304 302 299 299 301 297 297 296 295 294 294 294 293 293 291 291 291 290 290 288 287 286 285 284 283 282 282 282
327 326 325 322 322 322 322 321 321 320 319 318 314 307 303 305 300 298 299 300 299 296 295 293 294 294 294 293 293 292 291 290 289 288 288 286 285 284 283 282 281 281 281
326 325 324 322 322 321 322 321 320 319 318 316 309 302 302 300 299 300 301 298 296 296 295 294 294 294 294 293 293 291 290 289 287 287 286 285 284 283 283 281 281 281 281
326 325 324 324 323 322 321 320 318 317 314 311 304 302 300 299 300 301 299 296 296 295 295 294 294 294 294 293 292 291 290 289 287 286 286 285 284 283 282 281 281 281 281
326 325 324 323 321 319 316 314 311 307 303 301 301 299 300 301 300 299 299 296 295 294 294 294 294 293 294 293 292 291 290 288 287 286 285 285 284 283 282 280 281 281 281
321 322 321 320 318 314 310 309 305 303 301 300 299 300 301 301 299 298 295 293 293 293 292 293 293 293 293 293 292 291 290 288 287 286 285 284 284 283 281 280 280 281 281
318 318 317 314 311 308 306 304 301 300 300 300 300 301 300 299 297 294 293 292 292 291 290 291 293 293 292 292 291 291 290 288 287 285 285 284 283 282 280 280 281 280 281
315 314 312 310 307 304 302 300 299 299 300 301 300 299 297 295 293 292 291 291 290 290 289 290 292 292 291 290 290 290 289 287 286 284 284 284 283 281 280 280 280 280 280
311 310 308 305 303 302 301 300 300 300 300 299 297 294 293 292 292 291 291 291 290 290 290 289 290 290 290 290 289 289 289 287 286 284 284 283 282 280 280 280 280 280 280
307 306 304 302 301 301 301 300 300 299 297 294 293 292 292 292 291 290 290 290 290 289 289 289 289 289 289 289 288 289 289 287 286 285 283 283 281 280 280 279 280 280 280
302 300 300 300 301 300 300 298 295 293 292 291 290 290 290 290 289 289 289 289 289 289 289 289 289 288 288 288 288 288 289 288 286 285 283 282 281 280 280 280 280 280 279
300 300 300 299 297 295 293 292 291 290 289 289 289 289 289 289 289 289 289 289 289 289 289 289 288 288 288 287 288 288 288 287 286 285 284 282 282 281 281 281 280 280 279
297 295 293 292 291 290 289 289 289 289 289 289 289 289 289 289 289 289 290 290 290 290 290 289 289 288 287 288 287 287 288 287 286 285 285 283 283 282 281 280 280 280 279
291 290 290 290 289 289 289 289 289 289 289 288 287 285 284 283 284 285 286 286 288 288 289 289 289 288 287 287 287 287 287 287 287 286 285 284 283 282 281 281 280 280 279
290 289 289 289 289 289 288 286 284 283 282 281 281 280 280 280 280 280 281 282 284 285 285 286 287 288 288 287 287 287 287 286 286 286 285 284 283 282 281 281 280 280 279
289 289 288 286 285 284 284 283 282 282 281 280 280 279 279 279 279 279 279 280 281 282 283 285 285 287 287 287 287 286 286 286 286 286 285 285 283 282 281 281 280 280 279
286 285 284 283 283 282 282 281 281 281 280 280 279 279 278 278 279 279 280 281 281 282 282 283 285 287 287 287 287 286 286 286 286 286 285 285 283 283 281 281 280 280 279
284 283 283 282 281 281 280 280 279 279 278 278 278 278 278 278 278 279 279 280 282 282 283 284 285 286 287 287 286 286 286 285 286 285 285 284 283 282 281 281 280 280 279
282 282 281 280 280 279 279 279 278 278 278 277 277 277 277 277 277 278 278 279 278 280 281 283 284 286 287 286 286 286 285 285 286 285 285 284 283 281 281 281 280 280 280
281 280 280 279 279 278 278 278 277 277 277 276 276 276 276 277 277 276 277 278 278 279 278 281 283 285 286 285 285 285 285 285 285 285 284 284 282 281 281 281 281 280 280
280 279 279 278 278 277 277 277 276 276 275 275 275 275 275 275 275 275 275 275 276 277 278 278 279 282 283 284 284 284 284 284 284 284 284 284 282 281 281 281 281 281 280
279 278 278 277 277 276 276 276 275 275 275 274 274 274 274 274 274 274 274 274 275 275 276 277 278 278 279 282 282 282 283 283 283 284 284 284 283 282 281 281 281 281 280
278 277 277 276 276 275 275 275 274 274 274 273 273 273 273 273 272 272 273 273 274 274 275 275 276 278 278 278 280 281 282 282 282 282 283 284 283 282 282 282 282 281 281
276 276 276 275 275 274 274 274 273 273 272 272 272 271 271 271 271 271 271 271 272 273 273 274 275 276 277 278 278 280 281 282 282 282 283 283 283 283 283 282 282 281 281
275 275 275 274 274 273 273 272 272 271 271 271 271 271 271 271 271 270 270 271 271 271 272 273 274 275 276 277 277 279 280 281 282 282 283 283 283 283 284 283 283 282 281
274 274 273 273 272 272 272 271 270 270 270 270 270 270 270 270 270 270 270 270 270 271 271 272 273 274 275 276 277 278 279 280 281 281 282 283 283 283 283 283 283 283 282

GFSGL_850_thetae_048.txt.gz
Theta_e
329 327 326 326 326 326 326 325 324 323 323 322 321 319 317 315 307 303 304 301 297 300 300 298 298 297 296 296 296 296 295 294 294 293 292 291 291 289 288 287 286 285 284
329 328 326 325 326 325 325 324 323 323 322 322 321 319 316 312 304 303 301 298 299 300 298 299 298 297 297 296 296 295 294 294 293 292 292 291 290 289 288 287 286 285 284
328 326 325 326 325 324 323 322 322 322 321 320 319 314 312 304 302 303 302 300 299 298 297 298 297 297 297 296 296 295 294 294 293 292 291 290 289 289 288 287 285 284 284
327 327 327 326 325 323 322 321 321 320 318 317 314 310 305 302 302 300 301 300 299 297 297 296 296 297 296 296 295 295 294 293 292 291 290 290 289 289 287 286 285 284 284
326 326 324 322 322 320 319 319 318 317 315 313 309 305 302 301 301 301 300 300 299 298 297 298 296 295 294 295 294 294 294 293 292 291 290 289 289 288 287 286 285 284 284
321 321 321 319 319 316 315 312 310 307 305 303 302 301 301 301 301 300 299 298 297 296 295 295 295 294 293 293 293 293 293 293 292 291 290 289 289 288 287 286 284 284 284
317 317 317 316 314 311 308 306 305 303 303 301 301 301 301 301 300 299 297 294 294 294 294 294 293 293 293 292 293 293 292 292 291 290 289 289 288 287 286 285 283 284 284
314 314 313 311 309 307 305 303 302 301 300 301 301 300 299 298 296 294 293 292 292 293 293 293 293 292 293 293 292 292 291 290 289 289 288 288 287 286 285 284 283 283 283
311 309 308 306 305 303 302 301 301 301 301 299 298 297 296 295 294 292 292 291 293 293 293 292 292 292 292 291 290 291 290 290 289 289 288 287 285 284 284 283 283 283 283
306 304 302 301 301 300 301 301 301 300 297 295 294 294 293 291 290 290 290 290 290 291 291 291 291 291 290 290 289 289 289 289 289 289 286 287 286 284 283 282 282 283 283
302 301 301 301 301 300 300 298 295 294 293 291 290 290 289 289 289 289 289 290 290 290 291 291 291 291 290 289 289 288 288 288 289 288 287 287 286 285 283 283 282 283 283
302 302 301 300 298 296 293 292 291 291 290 291 291 291 292 291 291 289 288 288 289 289 290 290 290 290 290 289 288 288 288 288 288 288 286 286 286 285 284 284 283 283 283
300 298 295 292 291 290 290 290 292 292 291 291 289 289 288 287 286 286 285 284 283 283 284 287 287 288 289 289 289 288 288 288 288 288 287 286 286 285 284 284 283 283 282
293 291 290 290 290 289 289 288 287 286 285 284 285 285 284 283 284 282 280 280 280 280 281 283 284 286 286 286 287 288 288 288 288 288 287 286 286 285 284 283 283 283 282
290 290 289 289 288 286 285 284 284 283 282 282 281 281 280 280 280 279 279 279 279 280 281 280 282 283 284 286 286 287 288 287 287 287 286 286 285 284 284 283 283 282 283
289 288 287 285 285 284 283 283 283 282 281 281 280 279 279 278 278 278 278 279 279 280 282 282 283 283 284 284 286 287 287 287 286 286 286 286 285 285 284 283 283 282 282
286 285 285 284 283 282 282 281 282 281 280 280 279 279 278 278 278 278 278 278 279 279 280 281 283 284 285 286 286 287 287 287 286 286 286 285 285 284 284 283 283 282 282
285 284 283 282 282 281 280 280 279 279 279 279 278 278 278 278 277 277 278 278 278 278 278 278 279 279 281 284 286 287 287 286 286 285 285 285 284 284 284 283 283 282 282
283 282 282 281 280 280 279 279 278 278 278 277 277 277 276 277 276 276 276 275 275 275 275 275 276 277 278 283 286 288 286 286 285 285 285 284 284 284 284 283 283 283 282
282 281 280 280 279 279 278 278 277 277 276 276 276 275 275 276 275 274 274 273 273 273 273 273 274 275 277 280 282 285 286 285 285 285 284 284 284 284 284 283 282 283 281
280 280 279 279 278 278 277 277 276 276 275 275 274 273 275 275 273 273 272 272 271 271 271 272 273 275 276 278 280 282 284 284 284 284 284 284 284 283 283 282 282 282 282
279 279 278 278 277 277 276 276 276 275 274 273 273 273 274 272 271 271 270 270 270 270 270 270 272 273 275 276 278 279 280 281 283 283 283 283 283 283 283 282 282 282 281
278 278 277 277 276 276 276 275 275 274 273 273 272 272 272 271 271 270 269 269 269 270 270 271 272 273 274 275 276 277 278 278 281 281 282 282 283 283 283 282 282 281 281
277 276 276 276 275 275 275 274 274 273 273 272 272 271 270 270 269 269 268 269 270 270 271 271 271 272 273 275 276 276 277 278 279 281 281 282 282 283 283 282 282 281 281
276 275 275 274 274 274 274 273 272 272 271 271 270 270 269 269 268 267 268 269 270 270 270 271 271 271 272 274 275 276 277 278 278 280 281 281 282 282 283 283 282 282 282
274 274 273 273 273 273 272 272 271 270 270 270 270 269 268 268 268 268 269 269 269 269 270 270 271 271 272 273 274 275 276 277 278 279 280 281 281 282 282 282 283 282 282

GFSGL_850_thetae_051.txt.gz
Theta_e
333 333 332 329 327 327 326 327 326 325 325 324 323 321 321 318 313 312 307 304 304 303 303 302 301 300 300 299 298 298 298 297 296 295 295 295 294 293 293 292 291 290 289
333 332 331 330 330 329 327 327 326 324 322 322 322 321 316 312 309 307 305 303 303 303 302 301 300 299 299 299 298 297 297 297 296 295 295 294 293 293 292 291 290 289 288
332 332 330 329 329 329 327 326 323 321 319 319 319 317 314 310 308 305 302 302 301 302 301 300 299 299 299 298 297 297 297 297 296 295 295 294 293 292 291 291 290 289 288
331 330 328 327 325 324 324 322 321 320 319 318 317 316 312 308 306 302 302 302 303 301 301 299 299 298 298 298 298 297 297 297 296 295 294 293 292 292 291 290 290 289 288
326 325 325 324 323 321 319 318 318 317 316 315 313 310 308 305 303 302 303 302 301 300 299 299 298 298 298 298 297 296 296 296 295 295 294 293 292 292 291 290 290 289 288
321 319 320 318 314 316 315 314 311 311 308 307 306 304 303 302 302 301 301 300 300 299 298 298 298 297 296 295 295 294 293 294 294 294 294 293 292 291 291 290 289 288 287
316 315 315 315 315 313 310 308 305 304 303 303 302 301 301 301 301 301 300 299 297 297 296 296 296 295 294 294 294 294 294 293 293 293 293 292 292 291 290 289 288 287 287
312 312 312 312 310 307 305 305 304 302 301 301 302 302 301 299 298 296 294 293 293 294 294 295 295 295 294 294 293 293 294 293 293 292 291 290 290 289 290 288 287 286 285
309 308 307 306 305 305 303 302 302 302 302 301 299 298 298 298 296 295 293 292 292 293 293 294 294 293 293 293 293 292 292 292 292 291 291 291 290 289 288 287 286 285 284
307 306 305 305 304 303 302 302 301 300 299 298 297 296 295 293 294 293 291 290 289 291 292 292 292 292 292 292 292 291 291 291 290 290 290 290 289 289 288 287 285 284 284
305 305 304 303 303 302 301 299 298 297 296 295 292 293 293 293 293 293 291 290 289 289 288 288 289 289 291 291 291 291 291 290 289 289 290 289 289 288 286 286 285 284 283
303 303 303 302 299 298 297 295 294 294 294 294 294 293 293 292 291 290 288 286 285 284 283 282 282 282 282 283 287 290 291 290 290 289 289 289 288 289 288 287 285 285 284
301 299 298 296 295 294 294 294 294 293 293 291 289 289 289 288 287 286 285 283 281 281 281 281 281 281 281 282 284 285 287 287 288 289 288 288 287 287 288 287 286 285 285
297 296 295 294 293 292 292 289 289 288 287 286 287 286 285 284 284 283 281 280 280 280 280 280 281 282 283 284 284 285 286 286 287 287 288 288 288 287 287 287 286 285 284
295 293 292 290 290 288 287 286 285 285 284 283 283 282 281 281 281 279 279 279 279 279 279 280 282 284 284 285 286 286 285 286 287 288 288 288 287 287 287 286 285 285 284
291 290 289 288 287 287 286 286 285 284 283 282 282 281 280 279 279 278 278 278 278 278 279 281 281 281 282 282 283 284 286 287 286 287 287 287 287 287 287 286 285 284 284
288 287 286 285 286 285 284 284 285 284 283 282 281 280 279 279 278 278 278 278 278 278 279 280 279 279 279 279 280 281 282 284 287 287 287 287 287 286 286 286 285 284 284
286 285 285 285 284 283 283 282 282 282 282 282 281 279 278 279 278 278 278 278 278 278 278 278 277 277 277 277 277 278 281 285 287 287 287 286 286 286 286 286 285 285 284
284 284 283 283 282 281 281 280 280 280 281 280 280 279 278 278 277 277 276 276 276 276 276 276 276 275 275 275 276 277 281 283 286 286 286 286 285 285 286 285 285 284 284
283 282 281 281 281 280 279 279 279 279 279 279 278 278 277 277 276 276 276 275 275 275 274 273 273 273 273 273 274 276 279 281 282 286 286 285 285 285 285 285 285 284 283
281 281 280 279 279 279 278 278 277 277 277 277 277 276 275 275 274 275 274 274 273 273 272 272 271 271 271 272 272 275 278 280 280 283 285 285 285 285 285 285 285 284 284
280 279 279 278 278 278 277 276 276 276 276 275 275 275 273 273 273 273 273 272 271 271 271 270 270 270 270 270 271 272 276 277 278 280 282 283 283 284 284 284 284 283 283
279 278 277 277 277 277 276 275 275 274 274 273 273 273 273 272 272 271 271 270 270 270 269 269 268 269 269 270 270 271 272 276 276 278 279 281 282 283 284 284 284 283 283
277 277 276 276 275 275 274 273 273 273 272 272 272 272 271 271 270 270 269 269 268 268 268 267 268 269 269 269 270 271 273 274 276 277 278 279 281 282 283 283 283 283 282
276 276 275 274 273 273 272 272 272 271 271 271 270 270 270 269 269 269 268 268 267 267 267 268 269 268 268 269 271 272 273 274 275 276 277 278 280 281 282 283 283 283 282
275 274 273 272 272 271 271 270 270 270 269 269 268 268 268 268 267 267 267 266 266 267 269 268 269 270 271 272 272 272 273 274 275 276 277 278 279 280 282 283 283 283 283

GFSGL_850_thetae_054.txt.gz
Theta_e
332 329 329 327 325 324 329 330 328 327 327 325 324 324 323 322 319 316 316 314 311 309 305 304 303 303 302 301 301 300 299 299 298 298 297 296 295 295 295 294 293 292 292
332 331 331 330 329 330 328 329 327 326 324 323 321 321 320 319 318 315 313 310 308 305 303 303 303 302 301 300 300 300 299 298 298 297 297 297 295 294 295 293 292 292 291
332 330 330 330 329 328 327 326 324 324 323 322 321 319 318 317 315 312 310 308 306 304 303 303 302 301 300 299 300 299 298 298 297 298 297 296 296 295 294 293 292 292 291
332 330 331 330 328 326 325 324 324 322 321 320 319 318 316 314 310 308 307 306 303 302 303 301 300 299 299 299 299 298 298 298 298 298 297 297 296 295 294 293 292 291 291
331 330 330 329 325 323 322 321 320 319 318 317 316 315 312 309 307 304 302 302 301 301 301 299 299 299 298 298 298 297 297 298 297 296 296 296 296 295 294 293 292 291 290
329 327 325 323 321 319 317 316 315 314 313 312 309 306 305 303 302 301 301 300 300 300 299 298 297 297 297 297 296 296 296 295 294 294 293 293 295 294 294 293 292 291 290
324 322 318 316 315 315 312 311 309 308 307 306 304 302 301 301 300 300 300 299 298 296 295 295 295 295 295 295 295 294 294 294 294 294 294 293 292 292 293 292 291 291 290
316 314 314 313 312 309 307 307 306 304 302 302 302 301 300 299 298 297 295 293 293 293 294 294 294 294 294 294 294 294 294 293 293 293 294 293 292 292 292 291 290 289 289
312 311 310 309 307 307 305 304 303 304 302 301 300 298 298 298 297 295 293 292 291 290 290 290 290 291 291 292 292 292 292 292 292 292 292 291 291 291 291 291 290 289 288
309 308 307 307 306 304 303 303 302 301 300 299 298 297 295 294 294 294 293 292 291 290 288 287 286 285 284 284 285 288 290 290 291 291 291 291 290 290 290 290 290 289 288
307 307 306 306 305 304 302 301 300 298 297 296 293 293 293 294 293 292 291 290 288 286 285 284 283 283 282 282 282 281 281 281 283 286 289 290 290 290 290 289 289 288 287
307 306 305 304 303 301 299 298 296 295 295 294 294 293 293 293 292 290 288 286 284 283 282 282 282 281 281 281 283 284 284 283 283 283 286 286 287 288 289 289 289 288 286
304 303 302 299 298 297 296 295 295 295 294 294 292 288 289 289 288 285 285 283 282 282 281 281 280 280 281 283 284 285 285 286 286 286 286 285 286 287 288 288 288 288 287
301 299 297 296 295 294 294 292 293 292 290 287 286 286 286 285 284 283 282 282 281 281 280 280 280 281 281 281 281 282 283 283 284 286 286 286 286 287 288 289 288 288 287
297 296 295 294 292 291 290 289 289 287 285 285 284 283 283 282 282 281 281 280 280 279 279 279 280 281 280 279 279 279 280 281 282 283 284 286 286 287 288 288 287 287 287
295 293 292 290 289 288 288 287 286 286 285 284 283 282 282 281 280 280 280 279 279 279 279 279 279 279 278 278 277 278 278 279 280 281 284 285 287 287 288 287 287 287 286
292 291 289 288 287 287 286 286 286 286 284 283 282 282 281 280 280 279 279 279 278 278 278 278 278 277 277 276 276 276 276 277 279 281 283 285 287 287 287 287 286 286 286
289 286 286 287 286 285 285 284 284 284 283 282 282 281 280 280 279 278 278 278 278 277 277 277 276 276 275 275 275 274 274 276 278 280 282 286 287 287 287 287 286 286 286
285 286 286 286 285 284 283 282 281 281 281 281 280 280 280 279 278 277 277 277 276 276 275 275 274 274 274 273 273 273 273 275 277 279 280 283 287 286 286 286 285 286 286
285 287 288 285 283 282 281 281 280 280 280 279 279 279 279 278 277 276 276 275 275 274 274 273 273 273 272 272 272 272 272 274 276 277 280 280 284 285 285 285 285 285 285
288 285 282 282 281 280 280 279 279 278 278 278 278 277 276 276 275 275 274 274 273 273 272 272 271 271 271 270 271 271 271 273 274 275 277 279 280 283 285 285 285 285 285
284 283 281 280 279 279 279 278 277 277 277 276 276 276 275 274 274 273 273 272 272 271 271 270 270 270 270 269 270 270 270 271 272 274 276 278 280 282 283 284 285 286 285
280 280 279 279 278 278 277 277 276 276 275 275 274 274 273 273 273 272 271 271 270 270 270 270 270 270 270 269 269 268 269 269 271 272 274 276 278 280 282 283 284 284 284
279 278 278 277 277 276 276 275 275 274 274 273 273 272 272 272 271 271 270 270 269 269 269 269 269 269 270 269 269 270 270 270 270 271 273 275 276 278 280 282 283 284 284
278 278 277 276 275 274 274 273 273 273 272 272 271 271 271 270 269 269 269 268 268 268 269 269 270 270 270 270 270 271 270 270 271 272 273 274 276 277 279 280 282 284 283
277 275 275 274 273 273 272 272 271 271 271 270 270 269 268 268 268 267 267 267 267 268 269 269 270 270 270 271 270 270 270 271 272 272 273 274 276 277 278 280 282 283 283

GFSGL_850_thetae_057.txt.gz
Theta_e
327 326 327 327 327 327 326 326 325 325 327 326 325 324 324 324 322 321 321 319 316 314 313 310 309 305 304 305 303 302 301 301 300 300 299 298 298 297 297 296 295 294 294
329 328 328 328 327 327 324 325 325 326 328 326 325 322 321 320 321 320 319 317 314 312 310 308 305 304 303 302 301 301 301 300 300 299 299 298 298 297 297 296 295 294 294
330 330 329 328 322 324 325 326 326 327 325 323 322 322 320 319 319 318 314 311 309 308 306 304 303 303 301 300 300 299 300 300 300 299 298 298 297 297 297 297 296 295 294
329 331 330 330 328 328 328 326 326 324 323 322 321 320 320 318 315 312 310 308 307 305 303 302 302 301 300 299 299 299 299 298 297 297 297 297 297 296 296 295 295 295 294
331 330 330 330 329 328 327 325 323 322 322 321 320 318 316 314 312 309 308 306 303 302 302 300 300 299 297 297 297 297 296 296 296 295 295 295 295 294 293 293 294 294 293
330 330 329 329 329 328 325 322 320 319 318 317 316 314 313 310 307 305 303 301 301 300 300 298 297 296 296 295 295 295 295 295 295 294 294 294 294 294 294 294 293 293 293
330 329 327 327 326 322 321 319 316 315 314 313 311 308 305 303 301 300 300 300 299 298 296 294 294 294 294 294 294 294 294 295 294 293 293 292 293 293 293 293 292 292 292
327 326 323 322 321 318 315 313 311 309 308 307 305 302 301 300 300 299 297 295 293 293 293 293 293 293 293 293 292 292 292 292 292 292 292 292 291 292 292 291 291 291 291
322 320 318 316 314 312 310 308 307 305 303 301 301 299 299 298 297 296 294 293 292 291 291 290 289 288 287 285 284 284 284 284 283 283 282 282 285 290 292 291 291 291 291
318 315 313 312 310 309 307 305 303 302 301 300 298 298 297 297 295 294 293 293 292 290 288 286 285 285 284 283 282 282 282 283 283 283 284 283 282 282 283 289 290 290 290
312 311 310 309 308 307 305 303 302 300 300 298 297 296 295 294 293 293 293 291 289 286 286 285 284 283 283 282 281 282 283 283 284 285 285 285 285 285 284 285 285 286 290
309 308 307 307 306 304 303 300 300 299 298 297 295 293 293 293 292 292 290 287 285 285 284 283 283 282 281 280 281 280 280 281 282 283 283 284 285 286 285 285 285 287 288
308 307 306 305 303 302 300 298 298 297 296 294 294 293 292 291 289 288 286 284 283 283 282 282 281 280 280 281 280 279 279 279 279 280 281 282 283 284 286 286 285 286 288
307 306 303 301 300 298 296 295 295 295 294 294 293 290 289 288 287 285 283 282 282 282 281 281 280 280 280 279 279 279 278 278 278 279 279 281 282 283 285 286 286 287 288
304 301 299 297 297 296 295 294 294 294 292 289 287 286 285 284 283 283 282 282 281 281 280 280 280 279 279 279 278 278 278 278 277 278 279 281 282 283 284 285 287 287 287
300 297 295 295 294 294 293 291 289 287 286 285 284 284 284 283 282 281 281 280 279 279 279 279 278 278 277 277 277 277 277 276 276 277 278 280 280 282 285 286 287 287 286
296 295 293 291 290 289 288 287 287 286 285 285 284 283 283 282 281 281 280 279 279 279 278 278 277 276 276 276 275 275 275 274 275 276 277 279 280 280 285 286 287 287 286
294 292 290 288 287 287 286 286 286 286 284 283 282 282 282 281 281 280 278 278 278 277 277 276 276 275 275 275 274 274 273 273 274 275 276 278 279 279 285 286 287 286 286
290 289 287 286 286 286 288 287 283 282 282 281 281 281 280 280 279 279 278 276 276 276 275 275 274 274 274 273 273 272 272 272 272 273 275 276 278 279 282 285 286 286 285
286 286 287 288 289 286 285 285 285 281 281 280 280 280 279 279 279 278 276 276 275 274 274 273 273 273 273 272 272 272 272 271 272 272 273 275 277 279 280 283 285 285 285
289 288 288 287 286 285 283 281 281 280 279 279 278 278 278 277 276 275 274 274 273 273 272 272 272 272 271 271 271 271 270 270 271 271 272 274 276 278 279 280 283 285 285
286 285 284 283 282 283 281 279 278 278 277 277 277 277 276 275 274 274 273 273 272 271 271 271 270 270 270 270 269 270 269 270 270 270 271 272 275 276 278 279 282 284 285
283 282 282 281 280 279 278 277 277 277 276 276 275 275 274 273 273 272 272 271 271 270 270 270 270 270 270 270 270 270 269 269 270 270 270 271 273 275 276 278 280 282 283
281 279 278 278 277 277 277 276 275 275 274 274 273 273 272 272 271 271 270 270 269 269 269 269 269 269 270 270 270 270 269 269 269 269 270 271 273 275 276 277 279 281 282
279 278 278 277 276 275 274 274 273 273 273 272 272 271 271 270 270 269 269 268 268 268 269 268 269 269 269 270 270 270 270 270 270 270 270 271 273 274 275 276 278 280 282
276 275 274 274 273 273 272 272 272 271 271 270 270 269 269 268 267 267 267 267 268 268 268 268 269 269 269 270 270 270 271 271 271 271 271 272 273 274 275 276 277 279 281

GFSGL_850_thetae_060.txt.gz
Theta_e
324 325 324 325 325 325 326 325 326 326 325 324 323 322 323 324 323 322 323 322 321 320 318 316 314 313 310 308 305 305 304 304 302 301 301 300 300 299 299 298 298 297 296
325 325 326 325 326 326 325 325 322 324 325 325 323 324 325 323 322 322 321 321 320 318 315 313 311 309 307 304 304 303 301 301 301 301 300 299 298 299 299 298 298 297 297
326 326 326 325 325 326 322 324 323 320 321 324 324 325 322 320 319 318 319 319 317 314 311 309 307 305 304 303 301 300 299 299 300 300 300 299 297 297 296 296 296 296 295
326 327 327 327 327 325 326 324 323 322 322 326 325 323 321 320 319 319 318 315 313 310 308 306 304 303 301 300 299 298 297 297 297 296 296 296 296 295 295 295 294 294 293
328 327 328 327 323 324 327 326 323 325 326 325 322 321 320 320 319 317 315 312 309 307 304 303 302 300 299 298 297 296 296 296 296 296 296 296 295 294 294 294 293 293 293
330 329 328 328 328 326 326 325 325 324 324 322 321 320 319 317 315 314 311 308 305 303 302 300 299 298 297 296 295 295 295 295 295 294 294 294 294 293 292 292 292 292 292
331 329 329 327 327 326 326 324 323 322 321 319 317 316 315 313 311 308 305 302 301 300 299 298 297 295 293 293 293 293 294 294 293 292 292 291 289 287 286 288 290 291 291
330 329 328 328 326 326 325 321 320 319 316 314 313 311 309 306 303 301 300 299 299 298 297 293 292 292 292 292 291 290 288 286 285 284 283 283 283 283 283 282 281 283 288
328 328 326 326 324 322 319 319 317 314 312 310 307 305 303 302 300 300 299 296 293 292 292 291 291 290 289 286 284 284 284 284 283 283 283 283 283 284 285 285 285 284 285
327 326 325 323 321 320 318 314 311 309 306 304 302 301 300 299 298 296 295 293 292 292 291 290 286 285 284 284 284 283 283 283 282 282 281 281 281 282 284 285 285 283 284
323 321 320 318 316 313 310 309 307 305 303 301 300 299 298 297 296 294 293 293 292 290 286 284 284 283 283 283 283 282 282 281 281 280 280 280 280 280 281 283 284 285 285
319 317 314 312 310 308 307 305 303 302 301 299 298 297 296 295 294 293 293 292 289 285 284 283 283 282 282 282 281 281 281 280 280 280 279 279 280 281 282 281 283 284 286
315 311 309 308 307 306 304 302 301 300 300 298 296 296 295 293 293 292 291 288 285 283 283 282 282 281 281 281 280 280 279 279 279 279 279 279 279 280 281 282 282 284 285
310 308 307 306 304 303 301 300 300 299 297 297 295 293 293 292 290 288 287 284 282 282 282 281 281 281 280 280 279 279 278 278 277 277 277 278 278 280 281 282 283 284 285
308 307 305 305 303 300 298 298 296 296 296 295 294 293 291 289 287 286 283 282 282 281 281 280 280 280 279 278 278 277 277 277 276 276 276 277 278 280 281 281 283 285 286
307 305 303 301 299 297 296 294 293 293 292 290 289 288 287 285 282 282 281 281 280 280 280 279 279 278 278 278 277 276 276 275 275 275 274 275 277 279 280 281 283 285 286
305 301 298 297 296 295 293 292 292 289 286 285 284 283 283 282 282 281 280 280 279 279 279 278 278 277 277 276 275 275 274 274 273 273 273 274 276 277 279 280 282 285 286
300 296 295 293 291 289 289 288 286 287 290 290 286 286 286 284 282 281 280 279 279 278 277 277 276 276 275 274 274 273 273 273 273 273 273 273 274 276 278 280 280 283 285
294 291 290 289 289 288 287 287 289 288 286 285 285 283 282 281 280 279 279 279 277 276 276 276 275 274 274 273 273 272 273 273 272 272 272 273 273 275 277 279 279 281 283
292 291 290 288 286 287 288 287 286 285 284 282 281 281 280 279 279 278 278 276 276 275 274 274 273 273 272 272 272 272 272 272 272 272 272 272 272 273 276 277 278 279 283
289 287 288 288 287 286 285 284 283 282 281 280 279 279 278 278 277 276 275 275 274 274 273 272 272 271 271 271 271 271 271 271 271 271 271 271 272 273 274 276 277 278 281
287 287 286 285 284 283 282 281 280 279 278 277 277 277 276 276 275 274 274 273 273 272 271 271 270 270 270 269 270 270 270 270 271 271 271 271 271 272 273 275 277 278 279
285 284 283 282 282 281 280 279 277 277 276 276 275 275 274 274 273 273 272 271 271 270 270 270 269 269 269 269 270 270 270 270 270 270 270 270 271 272 272 274 276 277 278
282 281 280 279 278 277 276 276 275 275 274 274 273 273 272 272 271 271 270 269 269 269 268 268 268 268 269 269 270 270 270 270 270 270 269 270 270 271 272 273 275 276 278
279 278 277 277 276 275 274 273 273 273 272 272 271 270 270 269 269 268 268 267 267 267 267 267 268 268 268 269 269 269 269 269 270 270 269 270 270 271 272 273 274 276 277
276 275 275 274 273 272 272 271 271 270 270 269 269 268 268 267 267 266 266 266 266 266 267 267 267 268 268 269 269 269 269 269 270 269 269 270 271 271 272 273 274 275 277

GFSGL_850_thetae_063.txt.gz
Theta_e
317 316 315 314 314 314 315 317 319 320 322 323 324 324 324 323 320 323 323 323 325 322 321 321 320 318 315 313 312 310 308 305 304 304 303 302 301 300 300 299 299 299 298
321 320 318 317 317 318 320 321 322 323 324 324 320 323 324 324 323 323 323 322 322 322 321 319 318 315 313 310 308 305 304 303 301 300 300 301 300 299 298 298 297 297 296
321 321 322 322 323 319 321 322 319 323 324 323 320 320 324 324 324 323 321 322 321 321 319 316 314 312 309 307 305 303 303 301 300 299 298 298 297 297 296 296 295 295 295
324 323 323 323 325 322 321 322 323 323 324 323 320 321 322 323 323 321 319 319 319 317 315 312 310 308 306 304 302 301 300 299 296 296 296 296 295 295 295 295 294 294 294
325 325 325 326 325 325 324 324 325 325 325 323 323 321 321 323 322 320 319 319 318 315 313 310 307 304 303 302 301 300 298 296 295 295 294 294 294 293 293 293 293 292 292
326 326 326 326 326 326 326 326 326 326 326 324 324 322 323 321 320 319 319 316 315 311 309 306 304 302 301 300 298 297 295 294 294 293 293 293 293 293 291 288 285 283 282
328 327 326 326 326 326 327 327 326 324 325 323 324 324 321 320 319 317 315 312 309 307 305 303 301 300 299 298 296 294 293 293 292 292 291 289 285 283 283 283 283 284 284
328 329 328 328 327 327 326 325 324 323 323 323 322 320 319 316 314 312 310 308 305 303 301 299 298 298 296 293 292 291 291 289 286 284 284 283 283 282 282 282 283 284 284
330 330 329 327 327 325 325 325 323 324 322 320 318 316 314 311 308 307 304 303 301 299 299 298 295 293 291 290 289 287 285 285 284 283 283 282 282 281 280 280 280 283 283
329 328 327 325 325 325 325 324 322 320 318 315 313 310 308 305 302 301 300 299 298 295 293 292 291 290 289 285 284 284 284 284 283 283 282 282 281 280 280 280 281 280 281
328 326 324 323 324 323 323 320 318 315 312 310 307 304 302 301 300 298 296 295 293 292 292 291 288 285 284 284 284 283 282 282 281 280 280 280 280 280 279 279 280 281 281
326 325 324 323 321 319 317 315 311 309 306 304 302 301 299 297 297 296 295 293 293 292 290 285 283 283 283 282 282 281 281 280 280 279 279 279 279 279 279 279 280 281 282
324 322 320 318 315 313 311 308 305 303 303 302 300 299 297 296 296 294 293 292 291 288 284 283 283 282 281 280 280 280 280 279 279 279 279 279 278 278 278 278 280 281 282
319 316 314 312 308 306 305 304 302 301 300 300 299 298 297 295 293 292 291 290 287 284 282 281 281 280 280 280 279 279 279 279 278 278 278 278 277 277 277 278 279 281 282
314 311 308 307 306 304 302 302 301 300 300 299 297 296 295 293 291 290 288 286 283 282 281 281 280 280 280 279 278 278 278 277 277 277 277 276 276 276 276 277 279 281 282
310 307 306 305 304 303 301 300 297 297 296 295 294 293 292 290 289 287 284 284 284 281 280 279 279 279 278 277 277 277 276 276 276 275 275 275 275 275 276 276 278 280 281
309 307 305 304 302 301 299 298 296 291 290 290 290 289 288 285 282 283 282 280 280 279 278 278 277 277 276 276 276 275 275 274 274 274 274 274 274 274 274 275 277 279 280
306 304 302 300 297 295 293 292 292 291 289 286 285 287 287 286 285 284 282 280 279 279 277 277 276 276 275 275 274 274 273 273 273 273 273 273 273 273 273 274 276 278 279
300 297 295 293 292 291 290 290 288 288 288 288 286 285 284 282 281 280 280 280 279 277 276 275 275 275 274 274 273 273 272 272 272 272 272 272 272 272 273 273 274 277 277
294 292 292 291 290 289 288 287 287 287 286 285 283 282 281 280 279 279 278 277 276 276 275 275 274 273 273 272 272 271 271 271 272 272 272 272 272 272 272 272 273 275 277
290 289 288 288 287 287 286 285 284 283 282 281 280 279 279 278 278 277 276 275 275 274 273 273 272 272 271 271 271 270 270 271 271 271 271 271 271 271 271 271 272 274 276
287 287 286 285 284 283 283 282 281 280 279 278 278 277 277 276 275 275 274 273 272 272 272 271 271 270 270 269 269 269 270 270 270 270 271 270 270 271 271 271 272 273 275
284 284 283 282 281 280 280 279 278 277 276 276 275 275 274 274 273 272 272 271 270 270 269 269 269 268 268 268 268 268 269 269 270 270 270 270 270 270 270 271 272 273 274
282 281 281 280 279 278 277 276 275 275 274 274 273 272 272 271 271 270 270 269 268 268 267 267 267 267 267 267 267 268 268 269 269 269 269 269 270 270 270 271 271 272 274
279 279 278 277 276 275 275 274 273 272 272 271 271 270 270 269 269 268 267 267 266 266 266 266 266 266 266 267 267 268 268 268 268 268 268 268 269 269 270 271 271 272 273
276 275 274 273 273 272 272 271 270 270 269 269 268 268 268 267 267 266 265 265 265 265 265 265 266 266 267 267 267 268 268 268 269 268 268 268 268 269 270 271 272 272 273

GFSGL_850_thetae_066.txt.gz
Theta_e
316 315 315 315 315 316 315 315 315 315 314 314 314 314 315 322 323 322 322 322 321 320 322 321 322 321 320 319 317 315 313 312 310 307 306 305 304 303 301 300 299 299 298
319 318 316 315 314 314 314 314 314 313 314 315 316 321 321 322 322 324 324 322 320 322 322 322 321 320 319 317 315 313 311 310 307 305 303 302 302 299 299 298 297 297 296
323 319 319 318 316 315 317 321 320 318 319 318 318 320 322 322 320 320 321 324 323 321 320 320 321 319 317 314 312 310 309 306 304 302 301 300 298 296 296 295 294 294 293
324 323 321 320 320 319 320 321 320 318 320 321 321 321 322 322 321 319 321 323 321 319 320 319 319 315 313 311 309 307 305 303 302 301 299 295 294 293 292 291 290 289 288
324 324 324 323 322 321 321 321 322 319 320 321 321 320 322 324 319 320 322 321 319 319 319 317 314 312 311 309 306 304 303 301 300 296 294 293 292 291 291 289 287 286 285
324 324 324 324 323 324 323 322 322 323 321 321 321 323 323 324 323 320 322 321 319 318 316 314 313 311 307 305 302 301 300 298 296 294 292 292 290 288 285 285 284 284 284
324 324 325 325 325 324 324 324 324 323 324 323 323 325 324 323 322 321 321 318 317 315 312 311 310 306 303 302 300 299 297 294 293 292 290 287 285 284 284 284 284 283 283
325 325 325 325 325 325 325 325 324 324 323 323 323 321 321 322 321 319 319 315 313 311 309 307 304 302 301 299 298 295 293 292 289 286 284 284 284 283 283 282 282 281 281
324 325 325 326 326 326 325 324 324 323 321 319 320 321 320 318 318 317 314 312 310 307 305 302 300 299 297 296 293 291 289 286 284 284 284 283 283 282 281 281 281 280 281
323 325 326 327 327 325 324 323 321 320 320 320 319 317 316 314 312 309 309 307 305 303 300 298 298 295 292 291 289 286 284 284 284 284 283 282 282 281 281 280 280 279 279
326 327 328 326 325 324 322 321 321 320 319 317 315 311 309 307 305 303 302 302 300 298 296 293 292 291 288 286 284 284 284 284 283 283 282 282 281 281 280 279 279 279 279
328 326 325 324 324 322 321 320 319 318 315 312 309 306 303 302 301 300 299 296 294 293 292 291 289 286 284 283 283 283 283 282 281 281 280 280 280 280 279 279 278 278 278
323 323 324 323 322 321 317 315 311 309 309 306 305 303 301 300 298 295 295 294 293 292 291 288 285 283 283 283 282 282 281 280 280 280 279 279 279 278 278 278 278 278 278
324 323 321 319 317 314 312 310 309 306 305 305 303 301 299 297 296 294 294 293 292 291 288 284 282 282 281 281 281 280 280 280 279 279 278 278 277 277 277 277 277 277 278
320 319 317 315 312 310 307 305 304 303 302 302 301 300 299 296 294 293 291 291 289 286 283 282 282 282 281 280 281 280 279 278 278 277 277 277 277 276 276 276 276 276 276
318 316 314 312 309 307 306 304 302 301 301 300 299 298 296 293 292 291 290 288 284 285 284 282 281 280 281 281 279 278 277 277 277 276 276 275 275 275 275 275 275 275 275
314 311 308 307 306 305 304 303 302 296 295 294 293 292 291 291 289 288 286 283 284 284 283 283 281 279 278 277 277 276 276 276 275 274 274 274 274 274 274 274 274 274 275
308 307 305 303 303 300 297 294 294 293 292 291 290 290 287 284 283 284 284 283 282 281 280 279 278 277 277 277 276 276 275 274 274 273 272 272 273 273 273 273 273 273 273
301 299 297 295 294 293 292 291 291 290 290 289 287 286 285 283 282 281 281 280 279 279 278 277 276 276 275 274 274 273 273 272 272 271 271 271 271 271 272 272 272 272 272
294 293 292 291 290 290 289 289 288 287 286 284 283 282 281 281 280 279 279 278 277 276 275 275 274 273 273 272 272 271 271 271 270 270 270 271 271 271 271 271 271 271 272
290 290 289 289 288 287 286 285 284 284 283 281 280 280 279 278 278 277 276 275 274 274 273 272 272 271 271 270 270 270 269 269 269 269 269 270 270 270 270 270 270 271 271
288 287 286 286 285 284 283 282 282 281 280 279 278 278 277 276 275 275 274 273 272 272 271 270 270 269 269 269 268 268 268 268 268 268 269 269 269 270 270 270 270 270 271
285 285 284 283 282 281 281 280 279 278 277 276 276 275 274 274 273 272 271 271 270 270 269 269 268 268 267 267 266 266 267 267 267 268 268 269 269 269 269 269 270 270 271
283 282 281 280 280 279 278 277 276 275 274 274 273 272 272 271 270 270 269 268 268 267 267 266 266 266 266 266 266 266 266 267 267 268 268 268 268 269 269 269 269 270 270
280 279 279 278 277 275 274 273 272 272 271 271 270 270 269 269 268 268 267 267 266 266 266 265 266 266 266 266 266 266 266 267 267 267 267 267 268 268 268 268 269 269 270
274 274 273 273 272 271 271 270 270 269 269 269 268 268 268 267 267 267 266 266 266 266 266 266 266 265 266 266 266 266 266 267 267 267 267 267 267 268 268 268 269 269 270

GFSGL_850_thetae_069.txt.gz
Theta_e
317 316 316 316 316 316 316 317 317 318 318 317 316 316 315 316 315 315 315 314 318 321 321 321 321 319 321 321 321 320 319 316 315 312 309 309 308 306 305 304 302 300 300
323 318 316 316 315 315 315 314 313 313 314 314 315 316 315 314 314 314 314 317 320 322 323 320 319 321 321 322 320 319 317 315 312 311 309 307 305 305 304 302 296 296 295
324 323 320 318 316 316 315 315 315 315 314 314 313 314 313 314 313 318 320 321 320 320 320 323 323 320 321 319 320 318 314 312 311 309 307 304 304 303 298 294 293 292 291
324 324 324 322 321 321 317 315 315 314 314 314 314 314 317 317 317 318 321 322 322 321 321 322 320 320 320 318 317 314 312 311 308 305 304 303 301 294 292 291 290 289 288
323 323 323 324 324 321 320 319 317 315 315 316 319 319 319 319 321 321 321 322 320 320 322 320 319 318 318 316 314 312 311 308 304 303 301 299 294 292 291 289 286 286 287
321 320 322 322 323 323 323 321 319 319 318 318 319 321 320 320 321 322 323 323 319 321 321 319 319 318 315 313 311 310 306 303 302 300 297 294 292 290 287 285 285 284 285
321 321 322 322 322 323 323 323 323 322 321 321 321 322 322 322 321 322 322 321 320 320 321 320 317 313 310 310 307 304 302 301 299 296 293 291 289 285 285 285 284 283 284
321 321 322 323 323 324 324 324 324 323 323 323 323 322 323 323 323 323 322 320 319 319 318 316 312 309 306 305 303 301 299 297 294 292 289 286 285 284 284 284 283 283 283
322 322 323 323 324 324 325 325 324 324 323 323 323 322 321 321 321 321 321 318 316 314 310 307 305 304 303 301 299 298 295 292 290 287 285 284 284 283 282 282 282 282 281
322 323 323 324 324 324 325 324 325 324 324 323 321 321 320 319 318 318 317 316 313 309 306 305 301 300 299 298 295 292 289 286 284 284 283 283 282 281 282 281 282 281 280
324 325 324 324 324 324 324 323 323 322 321 320 319 318 317 314 313 309 310 310 309 306 304 301 299 298 296 292 290 286 284 284 283 283 282 282 281 281 281 281 281 280 279
325 325 324 323 323 323 322 321 321 320 319 318 316 314 309 307 305 302 302 301 301 301 299 297 294 292 290 287 284 283 283 283 282 282 282 281 281 281 281 280 280 280 279
323 323 323 323 322 322 321 320 319 318 317 313 310 306 303 300 299 299 299 299 296 294 293 292 290 288 284 283 283 282 282 281 281 282 281 280 280 279 280 280 279 279 279
323 323 322 321 321 320 318 315 314 313 308 307 304 303 300 300 299 297 295 293 293 292 291 288 284 282 282 282 282 282 282 282 282 280 279 278 278 279 279 278 278 277 278
321 320 320 319 318 316 312 310 308 306 306 305 303 302 301 299 296 293 293 293 291 288 285 284 283 283 283 283 282 280 282 281 278 278 278 278 279 278 277 276 276 276 276
318 316 314 313 312 310 307 304 302 303 302 301 300 300 297 296 295 293 292 291 290 287 284 285 285 283 281 280 281 279 278 277 277 278 278 277 277 276 275 275 274 274 274
314 313 311 309 306 305 303 301 300 296 295 294 294 293 292 291 290 290 289 288 285 284 284 284 283 282 281 279 278 277 277 277 277 276 276 276 275 273 273 273 273 273 273
308 307 307 303 301 301 298 296 293 293 292 289 288 289 289 289 288 287 285 284 283 282 282 281 280 279 278 277 277 276 275 275 274 274 274 273 272 271 271 271 271 271 271
300 297 296 295 294 292 292 291 291 291 290 288 286 286 285 284 283 282 282 281 281 280 279 278 277 276 276 275 274 274 273 273 272 272 271 271 270 270 270 271 270 270 271
293 292 292 291 290 290 290 290 289 288 286 285 284 283 283 282 281 280 280 279 278 277 276 275 274 274 273 273 272 271 271 269 269 268 268 269 269 269 269 268 267 268 268
290 289 289 289 289 288 287 287 286 285 284 283 282 281 280 279 279 278 277 276 275 274 273 273 272 272 271 271 270 269 269 268 268 268 267 267 268 268 269 267 267 267 267
288 287 287 287 285 285 284 284 283 282 281 280 279 278 277 277 276 275 274 273 273 272 272 271 270 270 269 268 268 267 267 267 267 267 267 267 267 266 265 265 266 266 267
285 285 285 284 283 282 282 280 280 279 278 277 276 276 275 274 273 273 272 271 270 270 269 269 268 268 267 267 267 266 266 266 266 266 266 267 267 266 265 265 265 266 267
283 282 282 281 280 280 279 278 277 276 275 274 273 272 272 271 270 270 269 269 268 268 268 267 267 267 267 267 267 266 266 266 266 266 266 266 267 267 266 265 266 266 267
280 279 278 277 276 275 274 273 272 272 271 271 270 270 269 269 269 268 268 268 267 267 267 267 267 267 267 267 266 266 266 266 266 266 266 266 267 267 267 267 267 267 267
274 274 273 272 272 271 271 270 270 270 269 269 269 269 268 268 268 268 267 267 267 267 267 267 267 266 266 267 266 266 266 266 266 266 266 267 267 267 267 267 267 267 267

GFSGL_850_thetae_075.txt.gz
Theta_e
324 325 325 324 324 324 323 323 322 322 321 320 320 320 316 316 316 317 317 317 317 317 319 320 319 319 320 321 321 319 321 320 318 317 317 318 317 315 316 315 312 310 309
324 324 324 324 324 323 324 324 323 322 322 321 321 320 320 319 317 318 317 318 318 319 320 320 319 319 319 320 320 320 321 319 317 315 315 316 316 315 314 311 310 307 307
325 324 323 324 323 322 322 322 323 324 323 322 321 321 320 319 320 319 319 319 320 320 319 320 320 319 319 319 320 320 318 317 316 315 314 315 314 313 310 310 309 307 305
326 325 324 324 322 321 322 322 323 323 323 322 322 321 321 320 320 320 320 320 320 320 320 320 319 318 317 318 318 317 314 315 316 316 313 313 312 309 309 309 307 305 301
328 326 325 324 324 324 323 323 322 322 322 322 322 322 322 321 321 320 320 320 320 319 319 319 319 318 314 315 317 316 318 316 316 315 311 311 309 307 308 307 304 299 296
328 327 327 327 326 325 324 323 322 322 321 322 321 322 322 321 321 321 320 320 320 319 317 316 315 315 317 319 320 320 320 319 317 316 311 309 309 307 306 303 298 296 292
328 328 328 327 327 326 325 324 323 322 321 320 320 320 320 320 320 319 318 318 317 315 315 316 319 321 322 322 320 320 319 317 314 314 310 307 304 302 301 297 295 292 290
328 327 327 327 326 327 326 325 324 323 322 322 322 321 321 321 321 321 320 319 317 317 318 320 322 322 321 320 319 318 314 307 305 305 305 303 302 298 296 293 290 289 289
328 327 327 326 326 326 326 325 325 324 323 323 323 322 321 321 321 320 320 321 321 320 320 322 321 320 317 316 315 311 305 302 302 301 300 298 297 294 290 287 286 286 286
326 327 327 326 326 326 325 325 324 324 324 323 322 321 320 320 321 322 321 321 320 320 319 317 315 312 309 308 305 303 302 300 298 299 297 293 288 285 284 284 284 284 285
322 325 326 326 326 325 325 325 325 324 323 323 322 322 321 321 321 321 321 320 318 317 314 311 307 302 301 300 299 299 298 296 294 292 289 285 284 283 284 283 283 283 283
322 323 325 326 326 326 326 326 325 324 323 321 322 322 321 320 319 321 320 314 311 310 308 303 300 298 298 297 297 295 291 287 286 284 283 283 283 283 283 283 284 285 283
321 322 324 325 325 325 325 325 325 323 322 321 320 321 319 321 312 309 308 306 303 303 301 298 296 295 296 296 295 289 285 284 283 282 283 283 283 284 285 284 281 280 280
317 320 321 322 323 323 323 322 322 321 320 318 316 314 314 309 304 303 302 301 298 297 296 294 294 294 292 288 285 285 283 284 286 285 286 285 284 283 282 280 279 280 280
310 309 311 315 316 319 315 313 310 313 311 311 312 305 306 302 300 298 298 297 296 296 295 293 293 291 287 286 286 287 286 285 284 284 283 281 280 278 278 278 278 278 277
307 304 301 302 303 306 307 302 301 302 302 303 303 299 297 296 296 295 294 294 294 293 291 289 286 285 284 283 282 282 282 281 280 280 278 277 277 276 276 276 276 276 277
307 306 304 295 298 297 297 299 299 294 293 293 294 294 292 290 290 291 290 289 287 286 285 284 284 283 282 282 281 280 278 278 278 276 275 275 275 275 274 274 275 275 276
299 299 300 299 293 291 292 291 291 291 289 287 287 288 288 287 287 286 286 286 285 285 284 283 282 281 279 278 278 277 276 276 275 274 274 273 273 273 273 273 274 274 274
294 291 291 292 292 290 290 289 287 288 287 285 285 285 285 285 285 284 282 283 282 281 280 279 278 278 277 276 275 275 274 273 273 272 273 272 272 271 272 272 272 272 272
289 288 287 287 287 286 287 287 285 284 283 282 282 281 281 281 281 281 280 280 279 278 277 276 276 275 274 273 273 273 273 272 272 271 271 270 270 270 270 270 270 271 271
288 287 287 287 286 285 284 284 283 283 282 281 280 280 280 280 278 278 278 277 277 276 275 274 273 272 272 272 271 271 270 270 269 269 269 269 269 268 269 269 269 270 270
287 287 286 285 284 283 282 281 281 281 280 279 278 278 278 278 276 276 275 275 274 272 271 271 271 270 269 269 268 268 268 268 268 268 267 267 267 268 268 268 268 269 269
283 283 282 282 281 281 280 278 278 277 277 276 275 275 275 274 272 271 271 270 270 269 271 270 269 269 268 269 269 267 267 266 266 266 265 265 266 266 267 267 267 268 268
278 278 277 277 276 276 275 275 275 274 274 273 272 272 271 271 270 269 269 269 268 268 268 269 269 269 269 269 269 268 267 267 267 267 266 264 265 265 266 266 267 267 267
274 274 274 274 274 273 273 272 272 272 272 271 271 270 270 269 269 268 267 268 269 269 269 269 269 269 269 269 269 268 268 268 268 267 267 268 266 265 265 266 266 267 267
272 272 272 271 271 271 271 271 270 270 269 269 269 268 268 268 267 267 268 268 269 269 269 268 268 268 268 268 268 268 267 268 268 268 268 268 267 264 265 266 266 266 267

GFSGL_850_thetae_078.txt.gz
Theta_e
326 326 323 323 324 323 323 323 322 322 322 322 321 318 316 316 315 318 315 315 318 317 317 317 317 316 316 318 319 318 318 319 320 319 318 319 319 317 317 316 316 316 315
325 326 325 325 324 323 324 323 323 323 322 322 322 320 320 320 318 318 317 315 316 317 317 317 317 316 316 318 320 319 318 318 319 320 319 319 318 317 316 316 316 314 314
325 326 326 325 325 325 324 324 324 323 323 323 322 322 320 320 319 318 316 316 316 318 318 319 319 319 318 319 320 319 318 318 319 319 319 317 316 315 315 315 315 314 312
327 326 325 325 324 324 324 324 325 324 324 324 323 322 322 321 320 319 320 319 318 317 318 320 319 319 320 320 320 320 319 319 319 318 317 316 315 314 313 314 313 311 309
329 328 326 325 325 325 324 324 324 325 325 325 324 323 323 322 322 321 320 320 319 319 320 320 320 319 319 318 318 319 319 319 316 316 315 316 315 314 314 314 310 309 307
330 329 328 326 325 325 326 325 324 323 323 324 325 324 323 322 322 321 321 320 321 321 321 321 321 320 320 319 318 319 320 317 317 317 317 315 316 316 313 312 307 305 303
330 330 329 328 327 326 326 326 325 324 324 323 324 324 324 323 322 322 322 321 321 321 321 321 320 320 320 319 319 319 318 317 318 316 313 311 310 308 307 304 302 299 298
329 329 330 329 329 328 327 326 326 325 325 324 323 324 324 324 324 323 323 323 322 322 322 321 321 320 319 317 317 319 319 313 318 313 310 309 306 303 302 302 301 299 297
320 328 329 329 329 329 328 328 327 326 326 325 324 324 323 323 323 323 323 322 321 321 321 320 319 319 318 318 319 315 311 310 307 306 302 302 301 300 299 298 296 291 290
323 322 323 329 328 328 328 328 328 327 326 325 324 323 323 323 322 322 322 323 321 321 321 320 319 318 318 318 314 310 307 304 300 300 299 298 296 296 296 291 287 286 285
322 323 321 324 329 328 328 328 327 327 327 326 325 324 323 323 322 322 322 322 321 321 320 320 317 317 314 311 305 302 301 299 297 296 295 293 291 287 286 284 283 283 283
318 321 323 323 327 328 327 327 327 326 326 326 325 324 323 322 322 322 321 321 321 320 319 314 310 307 303 300 298 297 296 296 295 293 289 285 284 284 284 287 289 287 285
315 316 319 321 323 325 326 327 326 326 326 325 324 323 322 321 320 319 318 319 317 311 307 303 298 295 296 296 295 295 295 293 288 286 285 284 285 286 287 285 285 284 282
309 310 312 313 317 318 322 323 324 325 324 323 322 321 318 314 309 307 303 301 304 302 296 294 293 293 293 293 292 291 287 284 285 286 286 285 284 284 283 282 281 281 280
308 308 307 305 304 306 308 312 313 314 314 313 310 307 303 299 293 295 298 294 295 293 292 290 290 290 289 287 286 285 285 285 285 284 283 282 281 280 280 279 279 278 278
306 305 303 303 299 298 294 296 296 299 299 301 298 300 293 296 295 292 292 292 291 289 290 288 286 285 285 285 285 284 283 283 282 281 280 279 278 278 277 277 276 276 276
300 301 299 296 296 291 291 286 286 288 291 291 290 289 289 289 290 289 289 289 287 287 287 285 285 284 283 282 282 281 280 280 278 278 278 277 276 275 275 274 274 274 274
294 293 293 292 291 290 289 286 286 284 285 285 285 286 286 286 287 286 286 287 286 285 285 283 283 282 281 280 280 279 278 278 277 276 275 274 273 273 273 272 272 272 272
289 288 287 286 286 286 286 285 284 283 284 283 283 284 283 283 284 284 285 284 283 282 281 281 280 279 279 278 277 276 276 275 274 273 273 272 272 271 271 271 271 270 271
286 286 286 286 286 286 285 284 284 283 282 281 281 281 282 284 284 283 282 281 280 279 278 278 278 277 277 276 274 274 273 272 272 272 271 270 270 270 269 269 269 269 269
285 285 284 284 284 284 284 284 283 283 282 281 280 280 281 282 280 279 279 278 278 277 276 275 274 274 273 272 272 272 271 270 270 269 269 269 269 268 268 268 268 269 269
284 284 284 282 281 281 280 280 279 279 278 278 278 277 278 278 277 276 276 275 275 274 273 273 272 272 271 271 270 270 269 269 268 268 268 268 267 267 267 268 268 268 268
281 281 280 279 279 279 279 278 278 277 277 276 276 275 275 274 273 272 272 271 271 271 271 271 270 270 270 270 270 270 269 268 269 269 269 268 268 267 267 267 267 267 267
278 277 277 277 277 276 275 275 275 274 274 273 273 272 271 271 270 271 271 270 270 270 270 270 270 270 270 269 269 268 269 269 268 268 268 268 268 267 266 266 266 267 267
275 274 274 274 273 273 273 272 272 272 272 271 271 270 270 269 269 269 269 270 269 269 269 269 269 269 269 268 269 269 269 269 268 268 268 268 268 268 267 266 266 266 267
272 272 272 272 272 271 271 271 270 270 270 269 269 269 269 269 268 268 269 269 268 269 268 268 269 269 269 269 269 268 268 268 268 268 268 268 268 268 267 267 267 266 266

GFSGL_850_thetae_081.txt.gz
Theta_e
322 322 322 323 324 323 323 323 323 322 322 322 321 316 313 311 312 314 314 314 315 313 314 316 317 317 317 317 317 317 317 318 319 319 318 318 318 318 319 317 317 317 317
323 324 325 324 321 324 325 323 322 323 322 322 322 322 319 314 311 312 313 314 315 315 313 315 317 318 317 317 317 317 317 316 316 317 319 318 318 318 319 318 317 318 316
327 324 325 326 325 321 322 324 323 323 322 322 321 322 322 322 320 315 313 314 314 315 316 315 315 316 318 317 317 317 317 317 317 318 320 319 318 318 319 318 318 317 316
329 326 325 326 325 325 323 322 322 321 323 323 322 322 322 322 321 321 319 317 317 318 316 316 316 315 315 315 316 317 317 318 319 319 320 319 318 319 318 318 317 316 315
330 329 327 325 326 326 325 325 324 324 323 323 323 323 323 322 322 322 321 320 320 320 319 318 317 316 316 316 317 317 318 319 319 317 318 319 318 318 315 315 316 315 314
331 330 330 328 326 326 326 325 325 325 325 325 324 324 323 323 322 322 322 322 321 320 319 319 318 319 318 318 318 318 319 320 320 319 318 318 318 319 318 314 312 311 308
327 330 330 330 329 328 327 326 325 325 325 325 325 325 325 324 323 323 323 322 322 321 321 321 320 319 319 319 320 320 321 321 321 320 319 318 318 318 317 313 312 309 307
322 321 326 329 329 329 328 327 327 326 326 325 325 325 325 325 325 324 324 323 323 322 321 321 320 320 320 321 321 321 321 321 320 320 319 317 316 315 313 310 308 304 302
320 321 322 323 326 328 329 329 328 327 326 326 326 325 324 324 324 325 324 323 322 322 322 321 321 320 320 321 320 321 320 318 318 317 313 310 308 307 305 304 301 299 297
319 320 322 322 322 323 328 329 329 328 328 327 327 326 325 324 324 324 324 324 324 324 323 323 323 322 321 321 321 320 318 316 312 306 303 302 300 298 298 297 297 296 295
314 315 317 319 321 322 324 328 328 329 328 328 327 327 326 325 324 323 323 324 323 322 322 322 322 321 320 320 319 318 314 308 301 299 298 296 295 295 294 293 289 287 286
310 311 313 316 318 320 322 325 327 327 328 328 328 327 326 325 324 324 323 323 323 323 322 321 317 317 315 308 302 301 299 297 295 294 293 292 291 290 290 289 286 284 286
308 309 309 310 314 316 317 321 322 322 325 328 327 327 324 322 322 323 323 323 322 322 316 309 304 297 296 295 294 293 292 291 291 290 290 289 288 287 286 287 287 287 287
306 306 306 305 306 310 313 313 313 314 311 315 319 318 319 315 310 306 308 306 303 302 294 292 293 293 293 290 289 289 290 290 289 288 286 285 286 286 285 285 285 284 283
303 303 301 300 298 298 302 305 304 300 299 299 301 301 298 300 296 296 297 294 296 291 291 290 289 288 289 289 288 288 287 285 286 285 285 285 284 283 283 282 280 279 279
298 299 297 296 294 293 291 293 294 295 295 292 293 292 292 291 291 292 291 290 289 289 290 290 287 286 285 285 286 285 285 284 284 284 283 282 281 280 279 278 277 276 275
294 293 293 292 291 290 289 288 287 286 289 287 287 287 285 285 285 288 289 290 289 290 289 286 284 284 284 283 283 283 282 281 280 280 279 278 277 276 275 274 274 273 273
289 289 289 288 288 287 287 286 286 285 285 284 285 286 287 286 286 286 287 288 287 286 285 284 283 283 282 281 280 279 279 278 277 276 275 275 274 274 273 273 272 272 271
287 287 287 286 286 285 284 285 284 284 283 283 284 285 285 286 286 286 286 287 285 284 283 282 281 280 279 278 278 277 276 275 275 274 273 273 273 272 272 271 271 270 270
285 285 286 286 285 284 284 284 283 283 283 282 282 282 283 284 284 283 282 282 281 280 279 279 278 278 278 277 276 275 274 273 273 273 272 272 271 271 270 270 269 269 269
285 284 284 284 283 283 283 283 282 282 281 280 280 280 281 282 280 279 279 278 278 278 277 277 276 275 274 273 273 273 273 272 272 271 271 271 270 270 269 269 268 268 268
283 283 282 282 281 281 280 280 279 279 278 278 277 278 278 279 278 277 276 275 275 274 274 273 273 272 272 272 272 272 272 271 271 271 270 270 269 269 269 268 268 267 267
281 281 280 279 278 278 278 277 276 276 275 275 275 274 274 273 272 272 272 272 271 271 271 271 271 271 271 270 270 271 270 270 270 270 269 269 269 268 268 268 267 267 267
277 278 277 276 276 276 275 275 274 273 273 272 272 271 271 271 271 270 270 270 270 271 271 271 270 270 270 270 270 270 269 269 269 269 269 269 269 269 268 268 267 267 267
274 274 274 274 273 273 273 272 272 271 271 271 270 270 270 270 271 270 270 270 270 270 270 270 270 270 270 270 269 269 269 269 269 269 269 269 269 269 269 268 268 268 267
272 272 272 272 271 271 271 271 270 270 270 269 270 269 269 269 270 269 269 269 269 269 269 269 269 269 269 269 269 269 269 269 269 269 268 268 268 268 268 268 268 267 267

GFSGL_850_thetae_084.txt.gz
Theta_e
324 319 318 323 325 324 323 322 322 321 321 322 320 315 314 316 317 317 319 319 316 315 314 314 315 318 318 316 317 317 317 317 317 317 317 317 317 317 317 318 318 318 318
328 324 320 318 322 324 324 323 322 322 321 321 321 320 315 314 314 316 317 317 316 315 315 314 314 314 317 318 318 317 317 317 317 317 317 317 317 317 317 317 317 318 318
328 327 324 321 321 321 320 322 322 322 322 322 321 321 322 320 316 316 316 316 316 316 316 315 315 314 314 315 315 316 317 317 317 317 317 317 317 317 318 318 319 319 318
327 327 327 326 324 323 324 322 322 322 323 322 321 321 321 321 322 322 321 318 315 314 312 312 313 314 314 314 314 313 315 317 317 317 317 317 317 318 318 318 318 318 317
327 327 326 327 326 325 325 325 324 323 321 322 321 322 321 321 321 321 322 322 322 321 319 317 314 312 313 314 315 315 316 315 315 316 316 317 318 319 318 317 317 318 317
328 327 325 325 325 325 326 326 325 325 324 323 323 322 321 322 322 322 322 322 322 321 321 320 320 319 318 316 317 318 317 317 316 317 317 318 318 319 319 318 318 317 317
323 326 327 327 327 326 325 326 326 326 325 325 325 324 324 323 323 323 323 322 322 322 322 321 321 321 320 319 319 318 318 317 318 318 318 318 319 319 319 319 318 317 316
318 319 321 323 325 326 326 325 325 326 326 326 326 325 325 325 324 324 324 324 324 323 323 322 322 322 321 321 320 320 320 319 319 319 320 320 320 319 318 317 316 315 312
315 315 316 318 319 320 322 324 326 325 326 326 326 326 325 326 325 325 325 325 324 323 323 322 322 321 321 321 320 320 320 320 320 320 321 320 320 320 317 314 311 309 304
311 310 311 313 315 317 319 320 321 325 325 325 326 327 326 326 326 326 325 325 325 324 324 324 323 322 321 321 321 321 321 321 320 319 317 316 315 314 311 307 304 304 301
309 309 310 310 311 313 315 317 318 321 324 325 324 325 326 326 326 326 325 325 325 324 324 325 324 323 322 321 320 320 319 318 311 304 300 300 299 298 298 296 297 296 296
308 308 308 308 308 309 311 312 315 317 320 323 324 323 324 324 324 325 325 324 324 324 324 323 322 320 320 319 319 317 316 310 302 297 295 294 293 294 294 293 292 292 291
306 306 305 305 305 305 306 308 310 312 314 317 318 315 314 313 313 317 323 324 322 323 320 311 305 304 303 301 298 296 296 293 293 293 293 291 291 290 291 289 288 287 287
303 302 301 301 301 301 301 301 302 303 301 304 305 304 303 303 301 296 304 306 310 305 294 298 297 295 293 290 290 290 291 290 291 290 290 288 287 287 287 287 286 286 285
298 298 298 297 296 295 295 294 294 293 296 295 295 297 297 296 294 292 292 295 293 292 292 291 291 291 291 291 290 290 289 289 289 287 286 285 284 284 284 283 283 283 282
296 295 294 293 291 290 289 288 290 289 289 289 288 289 289 290 291 292 288 288 289 290 291 290 289 288 289 288 288 287 286 285 285 285 284 283 283 282 281 280 279 277 276
291 290 290 290 289 289 287 287 287 286 288 286 285 285 285 286 287 288 289 288 289 290 289 287 285 284 284 285 284 284 283 282 282 282 281 281 279 277 276 275 274 274 274
289 289 289 287 286 287 287 286 286 286 286 286 285 285 285 286 286 286 288 288 288 286 285 285 284 283 281 280 280 280 280 280 280 278 277 275 275 274 274 273 272 272 272
287 287 287 287 286 285 285 285 285 285 284 284 284 285 285 285 285 285 285 285 284 283 281 281 280 280 281 280 279 278 277 276 275 274 273 273 272 272 272 272 271 271 271
286 286 285 285 285 285 284 284 284 283 284 283 283 282 283 284 285 283 283 282 281 280 279 279 278 278 277 276 275 274 274 273 273 272 272 271 271 271 271 271 271 271 270
285 284 284 284 284 283 283 283 282 282 282 281 280 280 281 282 281 280 279 279 278 277 277 276 275 274 273 273 273 272 272 272 271 271 271 272 272 271 271 271 270 270 269
283 283 283 283 281 281 281 280 280 280 280 279 278 278 278 278 277 277 276 275 274 274 273 273 273 272 272 272 272 271 271 271 271 271 271 271 271 270 270 270 270 269 269
281 280 280 280 280 279 279 278 278 277 277 276 275 275 274 273 273 273 272 272 272 272 271 271 271 271 271 271 271 271 271 270 270 270 270 270 270 270 269 269 269 268 268
277 278 277 277 277 277 276 275 275 274 273 273 273 272 272 271 271 271 271 271 271 271 271 270 270 270 270 270 270 270 270 270 270 270 270 269 269 269 269 269 268 268 268
274 274 274 274 273 273 273 272 272 272 272 272 272 271 271 271 271 271 271 271 271 271 271 271 270 270 270 270 270 270 270 269 269 269 269 269 269 269 269 268 268 268 268
273 272 272 272 272 271 271 271 271 270 270 270 270 270 270 269 269 269 269 269 269 269 269 269 269 269 269 269 269 269 269 269 269 269 268 268 268 268 268 268 268 268 268

GFSGL_850_thetae_090.txt.gz
Theta_e
326 322 318 320 321 322 321 322 323 322 322 322 322 322 321 320 321 322 322 320 320 320 320 319 318 318 317 316 316 317 316 316 316 316 317 317 317 317 317 317 317 317 316
327 324 321 319 319 321 320 321 321 321 322 322 322 322 322 321 321 320 318 319 320 319 319 320 320 318 319 319 318 318 317 315 316 316 315 317 318 317 317 316 316 317 317
327 326 324 322 320 320 321 320 320 320 320 321 321 322 322 321 321 321 319 317 316 318 319 319 319 319 319 319 318 318 318 316 316 316 315 315 315 315 316 316 316 317 317
326 326 325 325 323 322 321 320 321 320 320 320 320 320 320 320 320 321 321 321 320 318 317 317 318 318 318 318 318 318 318 318 318 317 316 316 315 315 316 316 316 315 315
325 325 325 325 325 325 324 323 322 322 321 321 320 320 320 320 320 320 320 320 320 320 320 319 318 317 316 317 317 316 316 317 317 317 316 315 315 315 315 314 315 314 315
324 323 323 323 323 323 324 324 324 324 324 324 323 322 322 322 321 321 320 320 319 319 319 319 319 320 320 320 320 320 318 317 317 316 316 316 315 315 315 315 315 315 315
321 321 322 322 323 323 323 322 322 321 323 323 324 324 324 324 324 324 323 322 322 321 321 321 321 321 320 320 320 320 320 320 319 317 316 316 316 316 316 316 316 316 316
315 316 318 320 321 321 321 321 321 322 322 322 321 321 322 322 323 323 324 324 323 323 324 324 323 323 323 323 322 321 320 320 320 319 319 319 317 315 315 315 315 315 316
310 310 310 310 310 312 314 317 319 320 321 321 321 322 322 322 321 321 322 322 323 323 324 324 324 324 324 323 323 324 323 323 321 320 319 319 319 319 317 315 315 315 315
307 306 306 307 308 309 309 310 310 311 313 315 316 317 318 320 320 322 322 322 322 322 322 322 320 319 321 321 319 321 321 322 322 320 319 317 316 315 314 314 315 311 309
303 304 305 305 306 306 306 306 307 308 308 309 309 311 312 314 315 318 319 320 319 318 316 316 317 318 319 319 320 318 316 315 315 314 308 299 301 301 301 301 304 302 302
300 301 302 303 303 303 303 304 304 305 305 305 303 305 306 306 307 308 309 311 312 313 312 310 309 310 312 313 310 311 312 308 308 302 298 297 294 293 294 295 295 295 295
299 300 301 301 300 299 300 301 301 301 301 300 300 299 298 298 299 300 301 302 303 304 303 300 299 299 300 300 301 300 299 297 296 295 292 291 290 289 289 289 290 289 289
297 298 298 298 297 296 297 296 297 297 296 296 295 294 293 293 293 293 293 294 294 294 294 294 294 294 293 292 291 292 291 292 292 289 287 285 285 286 286 286 287 287 288
294 294 294 294 293 293 293 292 292 290 290 290 289 289 289 289 289 290 290 291 291 291 291 291 290 290 289 289 288 287 287 287 286 285 285 285 285 285 285 284 284 284 284
291 291 290 289 289 289 288 288 287 287 287 287 287 288 288 288 288 289 289 289 289 289 290 288 287 287 287 286 286 285 285 284 284 284 285 285 284 284 284 283 280 278 278
289 288 288 287 287 287 287 287 287 287 287 288 288 288 288 288 288 288 288 288 287 288 288 286 285 284 284 284 285 284 283 283 282 283 283 282 280 278 276 276 275 275 275
288 287 287 286 286 286 286 286 286 286 287 286 286 286 285 285 286 286 286 286 287 286 285 284 283 282 282 282 282 282 282 281 279 277 276 276 276 275 275 275 275 275 274
286 285 285 285 285 285 285 285 285 285 285 284 283 284 284 284 284 284 284 285 284 283 282 282 281 281 280 279 278 276 276 275 275 275 274 274 274 274 274 274 273 273 273
284 283 284 284 284 284 284 284 284 283 283 283 283 282 281 282 283 283 282 282 281 279 278 277 276 275 275 275 274 274 274 274 273 273 273 273 273 272 273 272 272 272 272
283 283 282 282 282 282 282 282 281 281 281 281 281 280 280 280 279 278 277 276 275 275 274 274 274 274 273 273 273 273 272 272 272 272 272 272 272 272 272 272 271 271 271
281 281 281 281 280 280 280 280 279 279 278 277 276 275 274 274 274 274 274 273 273 273 273 272 272 272 272 272 272 272 271 271 271 271 271 271 271 271 271 270 270 271 271
278 278 279 279 278 278 277 277 275 274 274 274 273 273 273 273 273 273 272 272 272 271 271 271 271 271 271 271 271 271 271 271 271 270 270 270 270 270 270 270 270 270 270
275 275 275 275 275 274 274 273 273 273 272 272 272 272 272 271 271 271 271 271 270 270 270 270 270 270 270 270 270 270 270 270 270 270 270 270 270 270 270 270 269 269 269
274 274 273 273 273 272 272 272 271 271 271 271 271 271 270 270 270 270 270 270 270 270 270 270 270 270 270 270 270 270 270 270 270 270 270 269 269 269 269 269 269 269 269
272 272 272 272 271 271 271 271 271 270 270 270 270 270 270 270 270 270 270 270 269 269 269 269 269 269 269 269 269 269 269 269 269 269 269 269 268 268 269 269 269 269 269

GFSGL_850_thetae_093.txt.gz
Theta_e
327 326 322 317 318 323 323 323 323 323 322 322 322 323 323 323 323 322 320 311 312 315 316 317 317 315 316 319 319 318 317 317 317 316 316 315 316 315 315 316 317 318 317
326 325 321 317 318 323 321 321 322 322 322 322 322 323 322 323 322 321 320 315 318 316 316 315 316 317 317 319 319 319 318 317 316 316 316 316 316 315 315 316 316 316 316
326 325 322 320 318 320 320 320 320 321 321 321 321 322 321 322 321 321 320 321 321 321 322 321 319 320 320 319 320 320 318 317 317 316 317 318 317 316 315 315 315 315 315
325 325 324 323 322 320 320 320 320 320 320 320 320 320 321 321 321 321 321 321 320 320 319 319 318 317 318 319 319 319 319 319 319 318 318 318 318 318 318 317 317 316 316
323 323 324 324 324 323 322 321 321 321 320 320 320 320 320 320 319 319 320 320 320 320 320 320 320 320 320 319 318 318 319 318 318 318 318 318 318 317 317 317 317 316 315
323 323 323 323 322 322 322 323 323 322 322 322 322 321 320 321 320 320 320 320 320 320 319 319 319 319 319 319 319 320 319 319 318 317 317 317 317 317 317 317 317 317 317
318 317 321 323 322 322 322 322 323 322 322 321 321 321 322 322 322 322 322 322 322 322 322 322 322 322 322 322 322 321 321 320 320 319 318 318 317 317 318 317 317 316 316
314 309 317 319 319 320 320 320 321 321 321 321 321 320 321 321 321 321 321 322 322 322 322 322 322 322 322 322 323 322 322 323 323 322 320 319 317 316 316 316 316 316 316
308 307 306 308 310 313 316 318 318 318 318 318 318 319 319 319 320 320 321 321 321 321 320 319 319 320 320 321 319 319 319 320 319 320 318 317 316 316 316 316 315 314 314
303 304 302 305 306 307 308 308 309 310 311 312 311 313 313 313 314 316 317 318 318 318 317 316 316 317 317 318 318 318 318 315 314 314 315 313 312 311 311 310 309 308 308
301 301 302 304 304 305 304 304 305 305 305 305 306 306 307 307 308 309 310 311 312 312 313 314 313 313 314 314 315 316 315 313 311 309 308 307 305 304 302 303 302 302 303
299 300 300 301 301 301 302 302 302 302 301 301 299 300 300 300 301 302 302 303 305 305 305 304 303 302 303 305 306 307 307 307 304 302 299 297 296 295 293 294 294 295 294
296 297 298 297 297 297 298 298 298 298 298 298 297 296 296 295 295 295 296 297 297 298 296 296 295 295 296 297 294 295 296 296 296 295 293 292 290 289 288 288 288 288 289
293 293 293 293 293 294 295 295 295 295 294 293 292 292 292 292 292 292 292 292 292 293 292 292 292 292 292 291 291 291 291 290 290 290 288 287 287 288 288 288 288 287 288
291 291 291 291 290 291 292 290 290 289 289 290 289 290 290 290 289 290 290 291 291 290 290 290 290 289 289 288 288 287 287 286 287 286 286 286 286 286 286 285 285 285 284
290 290 290 290 289 289 289 289 289 289 289 288 288 288 288 288 288 288 289 289 288 288 289 289 287 287 286 286 286 286 286 285 285 285 284 284 285 284 283 281 278 278 277
290 289 289 289 288 288 288 288 288 287 287 288 288 287 287 287 287 288 287 287 287 288 289 287 286 285 284 284 283 283 283 282 281 281 279 278 277 276 276 276 276 276 275
288 287 287 287 287 287 287 287 287 287 287 287 286 286 286 286 286 286 286 286 287 287 286 285 284 283 282 282 281 280 278 277 276 276 276 276 275 275 275 274 274 274 273
286 286 286 286 286 285 285 285 285 285 285 285 285 285 285 285 285 285 285 285 285 284 283 282 280 278 276 276 275 275 274 274 274 274 274 274 274 274 274 273 273 273 273
284 284 284 284 284 284 284 284 284 284 284 283 283 283 282 282 282 283 282 280 279 277 276 275 275 275 274 274 273 273 273 273 273 273 273 273 273 273 273 272 272 272 272
282 282 282 282 282 282 282 281 281 281 281 281 280 279 278 278 277 276 275 275 275 274 274 273 273 273 273 273 273 273 272 272 272 272 272 272 272 272 272 272 272 271 271
280 281 281 280 280 280 279 279 278 277 276 275 274 274 273 274 274 273 273 273 273 272 272 272 272 272 272 272 272 272 272 272 272 271 271 271 271 271 271 271 271 271 271
277 278 278 278 278 277 276 275 274 274 273 273 272 272 272 272 272 272 272 272 271 271 271 271 271 271 271 271 271 271 271 271 271 271 270 270 270 270 270 270 270 270 270
275 275 275 275 274 274 273 273 272 272 272 272 271 271 271 271 271 271 271 271 270 270 270 270 270 270 270 270 270 270 270 270 270 270 270 270 269 269 269 269 269 269 269
273 273 273 273 272 272 272 272 271 271 271 271 271 270 270 270 270 270 270 270 269 269 269 269 269 269 269 269 269 269 269 269 269 269 269 269 269 269 269 269 269 269 269
272 272 271 271 271 271 271 270 270 270 270 270 269 269 269 269 269 269 269 269 269 269 269 269 269 269 269 269 269 269 269 269 269 269 269 269 269 268 268 268 268 268 269

GFSGL_850_thetae_096.txt.gz
Theta_e
327 326 326 323 322 326 323 322 322 323 323 323 322 324 325 324 324 324 324 323 320 316 311 314 313 316 314 318 317 315 314 315 318 318 318 317 317 319 318 317 316 315 315
328 325 325 322 322 324 323 323 323 323 324 324 322 323 323 323 324 323 322 323 319 316 316 311 311 310 316 315 314 314 314 315 317 318 317 318 317 317 316 316 316 317 317
326 325 326 326 324 323 325 322 322 323 323 323 322 322 322 322 322 323 322 322 320 318 317 313 314 313 314 316 317 317 316 316 317 319 319 319 318 319 319 319 319 320 319
326 325 323 323 324 324 323 321 321 321 321 322 322 322 322 322 322 322 322 322 321 320 316 315 318 317 316 319 318 318 321 321 321 320 320 320 320 320 320 320 320 320 319
323 322 322 323 324 324 322 322 321 320 320 320 320 320 320 321 321 321 322 321 321 321 321 321 320 320 320 319 320 321 321 321 321 321 321 320 320 320 320 320 320 320 319
321 321 321 321 322 322 322 322 322 321 321 321 320 320 320 320 320 319 320 319 319 319 319 320 320 320 320 320 320 320 320 320 320 321 321 321 320 320 320 320 320 319 318
316 318 319 320 320 322 322 322 322 322 322 322 321 321 321 322 322 321 321 321 320 320 320 321 321 321 321 321 321 322 321 321 320 319 319 320 320 320 319 319 319 319 318
307 311 312 316 315 318 319 320 320 320 320 320 321 321 320 321 321 321 322 322 322 321 320 319 319 320 319 320 319 320 321 321 319 318 318 317 317 318 317 317 317 317 316
305 306 308 311 312 307 314 314 314 315 316 316 317 317 317 317 319 320 321 320 320 320 320 320 320 319 319 319 319 318 318 317 317 317 317 316 316 316 316 315 314 313 313
304 305 305 305 307 307 307 312 310 311 311 311 312 311 312 312 313 314 315 315 316 316 317 316 316 316 316 317 317 316 316 315 313 312 313 313 312 311 310 309 308 308 306
302 303 304 304 305 304 301 302 302 303 303 304 305 305 305 304 304 305 305 306 308 309 309 309 308 308 310 310 311 310 310 310 309 307 305 303 301 300 300 300 299 300 300
300 300 300 300 300 298 298 297 298 300 300 299 299 298 298 297 298 299 301 302 302 301 301 301 300 300 300 301 302 300 299 299 299 298 297 296 295 294 293 293 293 293 293
296 296 296 296 297 295 295 296 296 296 296 296 295 294 294 294 294 295 295 296 296 297 296 295 294 294 294 294 293 294 295 294 293 293 292 291 290 289 289 289 289 289 289
294 293 293 293 293 294 294 291 292 292 291 290 290 291 290 291 291 291 291 292 291 292 291 291 291 291 291 291 291 291 290 290 290 289 287 287 287 287 287 287 287 287 287
290 290 291 291 291 291 292 291 289 290 289 288 289 289 289 290 290 290 290 291 290 290 289 290 290 289 289 289 288 288 288 287 287 286 285 284 284 284 285 284 283 282 281
285 285 285 284 284 285 287 288 288 288 289 289 289 288 288 288 288 289 289 289 289 289 290 289 288 287 287 286 285 286 286 286 285 284 283 282 281 280 279 279 278 278 278
287 285 285 284 283 284 284 283 286 286 286 287 288 288 288 288 288 287 287 287 287 288 288 286 284 283 282 281 281 281 281 281 280 279 278 278 277 277 277 278 277 277 277
286 286 286 286 286 286 286 286 285 284 285 285 285 286 286 286 285 285 285 285 286 285 282 280 279 278 277 277 277 277 276 276 276 276 276 276 276 276 276 276 276 276 276
286 286 286 285 285 285 285 284 284 283 283 282 281 283 283 283 283 284 283 284 282 280 278 277 276 275 275 275 275 275 275 275 275 275 274 274 274 274 274 274 274 274 274
284 284 284 284 284 284 284 283 283 282 282 282 283 283 282 281 282 282 281 279 277 276 275 275 274 275 274 274 274 274 274 274 273 273 273 273 273 273 273 273 273 273 273
282 282 282 282 282 281 281 280 280 280 280 279 279 279 279 277 276 276 275 275 275 274 274 274 274 274 273 273 273 273 273 273 273 272 272 272 272 271 271 272 272 272 272
278 278 279 279 279 280 279 279 278 277 276 275 275 274 274 275 274 274 274 274 274 274 273 273 273 273 272 272 272 272 272 272 272 272 271 271 270 270 270 271 271 271 271
276 276 276 276 277 276 275 274 274 274 274 273 273 273 273 273 273 273 273 273 273 272 272 272 272 272 271 271 271 271 271 271 271 271 271 270 269 270 270 270 270 270 270
274 274 274 274 274 273 273 272 273 273 272 272 272 272 272 272 272 272 272 272 271 271 271 271 270 270 270 270 270 270 270 270 270 270 270 270 269 269 268 268 269 269 269
273 273 273 272 272 272 271 271 271 271 271 271 270 270 270 270 270 270 270 270 270 270 270 270 270 270 270 270 270 270 269 269 269 269 269 269 269 269 269 268 269 268 268
272 272 271 271 271 271 270 270 270 269 269 269 269 269 269 269 269 269 269 269 269 269 269 269 269 269 269 269 269 269 269 269 269 268 268 268 268 268 267 267 267 267 267

GFSGL_850_thetae_099.txt.gz
Theta_e
327 327 331 330 327 325 325 326 326 324 324 323 325 325 325 324 324 322 322 324 322 319 319 319 317 318 318 317 317 319 319 319 318 318 318 318 319 320 320 319 319 319 317
326 326 328 328 326 324 325 325 324 324 323 324 325 323 324 325 325 324 322 323 323 320 321 321 319 316 315 318 320 319 318 317 317 317 316 314 314 315 316 317 317 317 319
325 325 326 326 327 324 324 323 323 323 322 323 323 322 323 324 324 323 323 323 324 324 323 322 318 317 312 313 316 316 316 316 315 315 315 315 314 315 316 319 320 319 319
325 325 325 324 321 322 323 323 323 323 324 323 324 323 322 323 323 324 323 323 323 321 321 320 319 319 316 315 315 312 315 315 316 317 317 318 319 320 321 321 321 321 321
324 324 323 322 321 321 323 324 323 323 325 324 323 323 323 323 323 322 322 322 322 322 321 321 320 319 315 313 314 316 316 317 321 320 320 322 322 322 322 322 322 322 322
322 322 322 321 320 321 323 323 321 320 321 321 321 321 322 323 323 322 322 323 322 322 322 321 321 321 321 320 320 320 320 320 320 320 321 321 321 322 322 322 322 322 322
315 317 318 320 321 321 323 323 323 321 320 320 321 319 320 320 320 320 320 320 321 321 321 321 321 322 322 322 322 321 321 321 320 320 319 319 319 320 320 320 321 320 320
304 306 308 310 314 319 321 322 322 322 321 321 321 321 321 321 321 321 321 320 320 320 320 321 322 322 322 321 321 320 320 320 319 319 318 318 318 318 318 317 317 317 317
303 301 301 302 304 306 308 308 312 314 313 315 316 316 315 316 318 320 320 320 319 318 318 319 319 319 318 319 319 318 317 316 316 316 315 315 314 314 314 313 312 311 310
301 300 300 300 301 301 300 303 304 309 302 306 308 308 307 309 309 312 314 315 315 314 313 313 313 313 313 315 316 315 313 313 312 311 310 309 307 306 305 305 305 305 304
300 300 300 300 298 299 300 302 302 305 305 301 300 304 306 303 305 305 307 309 309 309 308 307 306 307 308 308 308 309 308 307 305 304 302 301 300 299 298 298 298 298 298
298 296 296 300 298 298 301 303 301 300 300 302 302 299 298 296 296 299 300 302 302 302 302 301 300 299 300 300 301 299 298 298 298 297 296 295 295 294 292 292 292 292 292
293 293 295 294 297 298 296 296 298 297 296 293 295 292 290 291 292 293 295 296 296 296 296 294 294 294 294 294 293 295 295 295 294 294 292 291 290 290 290 290 289 289 289
290 289 292 294 292 292 292 293 293 291 292 291 290 291 291 292 292 291 291 292 292 292 291 291 291 291 292 291 291 291 290 290 290 289 288 288 288 288 289 288 288 287 285
287 286 286 287 288 289 290 287 288 288 288 289 290 290 290 290 289 290 290 290 290 289 289 288 288 287 287 287 288 287 287 287 287 286 285 284 284 283 283 283 283 282 282
286 286 285 285 285 285 287 287 287 288 288 288 288 288 288 288 288 288 288 288 288 287 286 285 284 284 283 283 283 282 283 283 282 281 281 281 281 280 281 280 280 280 280
285 285 284 284 284 284 284 284 285 285 286 287 288 288 288 287 287 286 286 286 287 286 286 283 282 281 281 280 280 280 279 279 279 279 279 279 279 279 279 279 279 279 279
285 285 284 283 283 284 283 283 283 282 283 284 285 286 286 285 285 285 285 283 283 283 281 279 279 279 279 278 277 277 277 277 277 277 277 277 277 278 278 277 276 277 277
285 284 283 284 284 283 282 282 281 281 280 279 279 282 283 283 283 283 283 282 279 278 278 277 277 277 276 276 276 276 275 275 275 275 275 275 275 276 276 276 276 276 276
282 283 281 281 281 281 281 281 280 280 279 278 280 281 278 278 277 278 277 276 276 276 276 275 275 274 274 274 274 274 274 274 274 274 274 273 274 274 275 275 274 275 275
280 280 280 280 280 280 280 279 279 278 277 276 276 276 276 276 275 274 274 274 273 273 273 273 272 272 272 272 272 272 272 272 272 272 272 272 273 273 273 273 274 274 274
279 279 278 278 278 277 278 277 277 277 276 275 274 274 273 274 273 273 272 272 272 271 271 271 271 271 272 272 271 271 271 271 272 272 271 271 272 272 272 273 272 273 273
278 277 278 277 277 276 276 276 276 275 275 274 273 273 272 272 271 271 270 271 270 271 272 272 272 271 272 271 271 271 272 272 272 272 272 271 270 270 271 271 272 271 271
276 276 276 275 275 275 275 274 274 273 273 273 272 272 271 271 270 270 270 271 270 271 271 271 271 271 271 271 271 271 271 271 271 271 271 271 270 269 269 270 270 271 270
274 274 274 274 274 274 274 273 273 272 272 272 271 271 270 270 269 269 269 270 270 270 270 270 271 270 271 270 270 270 270 270 270 270 270 270 268 269 268 269 268 268 270
273 273 273 273 272 272 272 272 271 271 271 270 270 269 269 269 268 268 269 269 270 269 269 269 270 270 269 269 270 269 269 269 269 269 269 269 268 267 267 267 268 268 268

GFSGL_850_thetae_102.txt.gz
Theta_e
331 327 331 333 332 329 328 326 325 325 325 325 325 325 324 322 323 322 321 323 323 323 323 321 320 319 318 316 317 319 319 321 318 319 318 319 320 320 320 319 320 319 319
329 327 330 332 330 328 327 326 325 325 325 324 324 324 324 325 325 324 322 322 322 324 322 321 320 319 321 318 318 316 315 318 317 319 318 317 317 317 317 317 316 315 315
328 327 328 329 327 326 326 325 324 324 324 324 323 323 324 324 323 324 323 322 322 322 323 323 321 319 320 319 317 318 318 318 319 319 317 316 315 315 314 315 316 316 316
325 326 327 327 326 324 324 324 324 324 323 323 323 323 323 323 324 324 324 323 323 322 323 323 321 321 321 319 318 316 317 319 318 318 318 316 316 319 319 319 320 320 321
324 325 325 324 324 323 323 323 323 322 323 322 322 323 322 322 322 322 323 323 323 322 323 321 321 321 320 320 319 317 315 315 314 315 314 314 319 321 321 322 322 322 322
314 320 323 324 323 321 322 325 325 325 325 325 323 325 323 322 322 322 323 323 323 323 322 321 320 320 320 320 320 319 316 313 315 319 320 321 322 321 321 321 322 321 321
306 309 313 318 321 321 321 323 324 323 323 324 324 324 324 323 323 322 322 322 322 322 323 322 322 322 321 321 320 320 320 320 320 320 319 320 320 320 320 320 319 319 318
302 303 304 307 311 315 318 320 321 320 321 321 321 321 321 321 321 321 321 322 322 321 322 322 321 321 319 319 321 321 321 320 320 320 320 319 318 319 318 318 317 316 315
300 301 302 303 304 305 305 306 308 312 316 318 318 318 318 318 319 320 320 320 319 320 320 319 319 320 319 320 319 317 317 317 317 316 316 315 313 313 312 312 310 309 309
298 299 300 301 302 303 302 301 300 301 301 301 305 308 307 309 311 313 315 313 311 310 310 311 312 314 315 314 314 315 311 310 310 308 308 306 305 304 304 304 304 304 304
295 298 299 300 301 300 301 299 297 301 301 300 301 299 303 301 305 305 307 309 306 307 305 304 303 305 307 306 306 306 305 303 302 301 301 300 299 298 299 298 298 298 297
294 296 295 296 298 297 299 297 295 296 299 299 300 299 298 298 298 297 300 301 304 300 302 298 296 297 298 298 299 297 296 296 296 296 297 297 296 295 293 293 293 292 292
291 293 294 295 294 294 294 293 292 294 296 294 295 295 295 295 293 294 295 296 295 297 295 293 293 294 294 295 294 294 294 294 293 293 292 291 290 289 289 290 290 290 288
289 289 291 293 293 293 292 291 292 291 290 290 290 290 290 291 291 291 292 291 291 291 290 289 291 291 292 291 291 290 290 289 288 287 286 285 285 287 287 286 285 285 283
287 287 287 288 288 289 290 290 290 289 289 289 289 289 290 290 288 288 289 289 289 288 288 289 289 288 288 288 289 288 288 287 287 285 284 283 283 282 282 281 281 281 281
286 286 286 286 286 286 286 287 286 287 288 289 288 288 288 287 287 288 288 288 287 287 287 286 286 285 285 285 285 285 285 284 283 282 282 281 281 280 280 280 280 280 279
285 284 284 285 285 285 285 284 285 284 286 286 287 287 286 286 286 285 284 285 285 286 286 284 283 282 282 282 282 281 281 279 279 279 279 279 279 279 278 278 279 279 278
284 284 284 283 283 283 283 283 283 282 283 283 283 284 284 284 284 283 282 284 283 283 282 281 280 279 278 278 278 278 277 278 278 278 278 277 277 277 277 277 277 276 277
283 282 282 282 282 282 282 282 281 281 281 281 281 281 281 282 283 283 282 282 280 279 278 277 277 277 277 276 276 276 276 276 276 276 276 276 276 276 276 276 276 276 276
281 281 281 281 281 281 281 281 281 280 280 280 280 280 278 278 278 278 278 277 277 276 276 276 276 275 275 275 275 275 275 274 274 274 274 274 274 274 274 274 274 274 274
280 280 280 280 280 279 279 279 279 278 277 277 275 276 276 276 275 275 275 275 275 274 274 274 274 274 274 274 273 273 273 274 273 274 273 273 273 273 273 273 273 274 273
279 279 279 278 278 278 278 278 277 277 276 276 275 274 274 274 274 273 273 273 273 273 273 273 273 273 273 273 273 273 273 273 273 272 272 272 272 272 272 272 272 272 272
278 278 278 277 277 277 277 276 276 276 275 274 274 273 273 273 272 272 272 271 272 272 272 272 272 272 272 272 273 272 272 272 272 272 271 271 271 271 271 271 271 271 271
276 277 276 276 276 276 275 275 275 274 274 274 273 272 272 271 270 271 271 271 271 271 271 271 272 271 271 271 271 271 271 271 271 271 271 271 271 271 270 270 270 270 270
275 275 275 275 275 274 274 274 274 273 273 272 272 271 271 270 270 270 270 270 270 270 270 271 270 270 269 270 270 270 270 270 270 270 270 270 269 269 269 268 268 269 269
273 273 274 274 273 273 273 273 272 272 271 271 271 270 270 269 269 268 268 269 269 268 268 268 269 269 268 270 269 269 269 269 269 269 269 269 269 269 269 269 268 268 268

GFSGL_850_thetae_105.txt.gz
Theta_e
332 333 333 332 332 334 333 331 330 328 324 324 324 325 324 323 323 324 324 325 325 325 324 322 322 321 322 321 321 319 316 316 319 318 320 320 321 321 320 320 319 319 319
331 331 331 329 332 334 333 330 329 327 324 325 324 324 325 323 323 324 324 324 324 323 321 321 322 322 323 320 320 318 318 316 317 319 320 320 319 319 319 319 319 319 319
329 328 327 329 332 331 330 328 328 324 325 324 326 325 325 325 323 322 323 323 322 321 322 322 322 322 322 321 320 319 318 316 317 317 316 317 315 316 318 316 313 314 316
325 327 328 328 329 328 328 327 325 324 323 323 323 325 324 324 325 324 323 323 322 322 321 321 323 322 321 321 320 320 319 319 318 318 318 318 318 317 316 316 316 320 321
316 323 326 327 326 326 326 325 324 323 324 323 322 322 322 324 323 324 324 323 323 323 323 322 323 322 322 322 320 320 319 319 318 318 319 317 316 317 316 318 320 321 322
308 311 315 322 325 325 325 323 324 324 324 323 323 322 321 321 322 322 324 322 323 322 322 322 322 322 321 320 320 320 319 319 318 316 315 315 314 318 320 321 322 320 320
304 304 305 311 320 323 324 323 323 324 322 323 323 322 322 321 322 322 322 322 322 322 321 320 320 320 321 320 320 320 319 319 319 319 317 316 319 321 320 320 319 319 319
303 301 301 302 308 315 318 319 321 321 320 321 321 320 318 320 321 322 322 321 322 321 321 321 321 321 321 321 320 320 320 320 320 319 319 318 318 318 318 318 316 316 314
299 301 300 298 300 304 306 306 308 311 310 314 312 311 313 316 319 320 320 320 320 320 320 319 319 320 320 320 320 319 319 317 317 316 315 314 313 314 314 314 311 310 310
296 296 300 299 299 300 301 300 302 303 303 303 303 305 302 307 308 313 312 315 316 316 315 316 317 317 317 316 313 314 314 311 308 309 307 305 304 303 306 306 305 305 305
295 296 297 296 299 298 300 299 301 302 302 302 302 302 302 301 301 304 304 305 307 308 307 305 306 306 307 307 305 304 303 303 302 302 302 302 301 301 300 299 299 298 297
294 296 296 296 296 297 299 298 298 300 301 300 300 300 300 300 299 300 302 301 299 302 303 300 301 297 303 304 302 300 300 299 298 299 299 298 297 296 294 294 293 293 293
291 292 292 293 295 295 295 295 296 297 296 296 295 295 294 295 295 296 297 298 299 299 292 298 296 295 297 295 294 294 294 294 294 294 293 291 291 290 290 290 290 290 290
289 289 289 290 291 291 293 293 292 292 293 292 292 291 291 290 290 291 293 293 292 294 293 291 290 290 290 289 289 289 289 288 288 288 288 288 287 287 288 288 288 287 287
286 286 287 287 288 289 289 289 290 289 289 290 290 290 290 288 287 287 289 290 290 290 290 289 289 289 289 288 287 287 286 286 286 285 285 285 286 285 284 283 283 282 282
286 286 286 286 286 286 286 287 287 287 287 287 287 288 286 285 286 286 286 286 286 286 288 287 286 286 287 286 286 285 285 284 283 283 283 283 282 282 281 281 281 280 279
283 284 284 285 285 284 285 285 286 285 286 286 286 285 285 285 284 285 286 286 286 285 286 285 284 284 283 282 282 281 281 281 280 280 280 280 280 279 279 278 279 279 278
282 282 282 282 282 283 283 282 283 283 284 284 284 284 284 284 284 283 283 283 284 283 283 282 280 279 279 279 278 278 278 278 279 278 278 278 277 277 278 277 277 277 277
282 282 282 282 282 282 281 281 281 281 282 282 281 282 282 282 282 283 282 282 281 280 279 278 278 278 277 277 277 277 276 277 277 276 276 276 276 276 276 276 276 276 276
280 280 281 281 281 281 281 280 280 280 280 279 280 280 280 279 279 279 279 278 278 277 277 276 276 276 276 276 275 276 275 275 275 276 275 275 275 275 275 274 274 275 275
280 279 279 279 279 279 279 279 278 278 277 276 277 277 276 276 276 276 276 276 276 276 275 275 275 275 275 275 275 275 275 274 274 274 274 274 274 274 273 273 273 273 273
279 279 278 278 277 278 278 277 277 277 276 275 275 274 274 275 274 274 274 274 274 274 274 274 273 273 274 274 274 273 273 273 273 273 273 273 273 273 272 273 272 272 272
277 278 277 277 277 277 276 276 276 275 275 274 274 273 273 273 273 272 273 273 272 272 272 272 272 272 273 272 272 272 272 272 272 272 271 271 272 272 272 271 271 271 271
276 276 276 276 276 275 275 275 274 274 274 273 273 272 272 271 272 271 271 271 271 272 272 271 271 271 272 271 271 271 271 271 271 271 270 270 270 271 271 270 270 270 270
275 275 275 274 274 274 274 273 273 273 273 272 272 271 271 270 270 270 270 270 269 270 270 270 270 271 271 270 270 271 270 270 270 270 270 270 270 270 270 270 270 269 269
273 273 273 273 273 273 273 272 272 272 271 271 270 270 270 269 269 269 269 269 269 269 270 270 270 270 270 270 270 270 269 269 269 269 269 269 269 268 269 269 268 268 268

GFSGL_850_thetae_108.txt.gz
Theta_e
326 328 327 333 333 331 330 332 334 333 332 330 328 323 325 325 324 324 324 324 324 325 325 325 324 322 322 321 322 322 320 318 318 318 320 320 320 319 319 319 318 319 319
326 331 333 333 333 332 330 330 334 333 330 329 327 322 325 325 323 327 324 323 324 324 325 325 325 323 323 320 320 319 322 318 318 317 316 317 318 319 320 319 319 319 318
326 329 329 330 329 328 329 330 331 330 329 328 323 322 323 324 323 322 324 324 324 325 325 324 324 323 323 323 319 319 321 321 321 318 318 317 318 320 319 318 316 316 319
316 323 326 327 328 328 330 331 331 328 328 324 323 324 322 322 323 323 323 325 324 324 324 324 323 321 321 321 319 322 321 321 320 318 317 317 317 317 316 317 318 317 316
308 316 322 323 326 327 327 327 328 327 324 323 322 322 322 322 323 323 323 323 323 323 322 321 321 322 322 322 323 323 321 320 320 320 319 318 318 319 318 317 316 315 317
305 307 309 318 319 320 325 327 327 326 324 322 323 322 322 323 323 323 323 323 323 323 322 322 323 322 322 323 323 321 320 320 320 320 319 318 318 318 317 315 315 317 319
302 303 305 307 311 314 317 315 324 324 324 325 323 322 322 320 321 322 322 322 322 322 322 322 323 322 322 321 322 321 320 320 319 319 319 318 317 316 315 315 318 319 320
300 301 302 303 305 303 307 307 315 317 321 323 323 322 322 322 320 320 321 321 320 320 321 321 321 320 320 320 320 320 320 319 319 319 319 319 318 318 317 319 318 317 316
299 299 299 301 302 302 301 301 302 302 307 304 311 314 319 321 321 320 320 320 319 318 319 319 319 319 319 320 320 319 319 319 319 318 318 318 318 318 317 316 314 313 311
296 297 298 299 299 299 300 300 301 301 301 303 299 302 303 310 313 316 312 313 316 316 315 314 316 317 316 315 316 315 314 314 313 312 311 310 311 310 311 310 310 307 308
294 296 297 298 297 298 298 298 300 299 301 301 300 300 301 300 302 304 304 305 306 305 304 304 305 307 308 309 308 306 306 305 304 303 303 303 304 303 304 305 303 302 301
292 293 294 294 296 296 296 296 297 297 297 298 300 299 297 298 300 300 301 300 300 302 301 301 298 300 303 304 304 304 303 303 301 300 301 300 298 297 296 296 294 295 295
289 290 292 292 293 294 294 294 295 295 295 295 296 294 292 294 296 296 298 298 298 299 298 297 296 297 298 298 299 298 299 298 296 296 295 293 292 292 293 292 292 291 291
288 288 288 290 290 291 292 292 292 292 292 291 291 290 289 290 291 292 292 293 294 295 293 293 294 295 295 294 293 294 294 292 292 292 291 290 290 290 289 289 289 290 290
287 286 287 287 288 289 290 289 288 287 288 289 288 288 288 288 287 288 290 290 291 291 292 292 292 291 291 291 290 290 289 288 289 288 288 288 287 286 285 285 284 283 282
286 285 285 286 286 286 286 288 288 287 286 287 287 287 286 286 287 288 288 288 288 288 290 289 288 288 288 286 287 287 286 286 285 285 285 284 283 282 281 281 280 280 280
285 284 284 284 285 285 285 285 286 286 286 286 285 285 285 286 286 286 286 286 286 285 287 285 285 285 284 284 283 282 282 282 281 281 281 280 279 279 279 280 279 279 279
282 283 283 283 283 283 283 283 283 284 284 285 285 285 284 284 285 284 284 283 284 284 284 283 282 281 280 280 279 279 279 278 278 278 278 278 278 278 278 277 277 277 277
281 281 281 281 281 282 281 281 281 281 282 282 282 282 282 282 282 283 282 282 282 282 281 280 279 278 278 278 277 277 277 277 277 276 277 277 277 276 276 276 276 276 276
279 280 280 280 280 280 280 280 279 280 279 280 280 280 279 278 279 280 279 279 278 278 277 277 277 277 277 276 276 276 276 276 276 275 275 275 275 275 275 275 274 275 275
279 279 279 278 279 279 278 278 278 278 277 276 277 276 276 276 276 276 276 276 276 275 275 275 275 275 275 275 275 274 274 274 274 274 274 274 274 274 274 274 274 274 274
278 278 278 278 277 277 277 277 277 276 276 275 275 275 274 274 274 274 274 274 274 273 273 273 273 273 273 273 273 273 273 273 273 273 273 273 273 273 273 273 273 273 273
277 277 277 277 277 276 276 276 275 275 274 274 273 273 272 272 272 272 272 272 272 272 272 272 272 272 272 272 272 272 272 272 272 272 272 272 272 272 272 272 272 272 271
275 275 275 275 275 275 275 275 274 274 274 273 273 272 272 271 271 271 271 271 271 271 271 271 272 272 271 271 271 271 271 271 271 271 271 271 271 271 271 270 270 270 270
274 274 273 273 274 273 273 273 273 273 272 272 271 271 271 270 270 270 270 270 270 270 270 270 270 270 270 270 270 270 270 270 270 270 270 270 270 269 269 269 269 269 269
272 272 272 272 272 272 272 272 271 271 271 271 271 270 270 269 269 269 269 268 268 269 268 269 269 269 269 269 269 269 270 269 269 269 269 269 269 269 269 269 269 269 268

GFSGL_850_thetae_111.txt.gz
Theta_e
322 324 324 321 324 330 330 330 329 330 330 332 332 331 329 329 329 328 325 324 322 324 324 325 325 324 325 323 320 319 318 317 318 317 318 319 318 319 319 319 319 319 319
320 324 327 326 328 330 335 332 330 329 330 330 332 331 329 328 322 324 324 322 324 324 324 325 325 325 324 323 321 320 319 319 321 320 319 319 319 319 319 319 318 319 319
316 320 322 327 329 329 330 331 329 329 329 331 332 330 328 327 321 327 323 322 323 323 324 324 325 324 324 323 321 320 320 320 319 319 318 318 318 317 318 317 318 318 319
311 315 319 322 326 326 327 327 328 329 329 330 332 328 326 322 324 323 323 321 323 323 323 324 324 324 324 323 321 322 322 319 320 321 319 320 320 318 319 319 320 319 317
307 311 313 313 316 323 326 325 327 326 330 331 329 324 322 322 322 322 321 322 323 323 323 323 324 324 324 323 322 321 320 319 319 319 321 319 318 318 317 317 318 317 319
303 304 307 308 311 316 319 323 323 325 324 325 325 323 322 323 323 322 321 321 322 323 323 323 322 323 322 322 321 321 321 320 320 322 320 320 319 319 319 318 318 318 318
301 301 302 303 305 308 310 314 314 319 322 323 322 322 322 322 322 321 322 322 323 322 323 322 322 321 321 321 322 322 321 321 321 321 320 320 320 319 318 318 318 318 316
299 299 300 301 301 302 305 306 306 306 307 316 316 318 321 321 321 321 321 321 321 321 321 321 321 322 322 321 321 321 320 320 320 319 319 319 318 318 317 316 316 316 315
298 297 297 299 300 300 301 302 301 304 304 303 303 305 309 316 320 320 320 320 320 320 319 319 320 319 320 320 320 319 318 319 319 319 319 318 318 318 318 318 317 316 316
295 295 296 297 298 299 300 300 300 301 300 301 303 303 302 303 305 305 314 317 317 317 317 316 317 315 317 317 316 316 317 316 318 317 315 314 316 316 315 314 313 311 311
293 293 294 295 296 296 297 298 299 300 300 300 301 301 301 301 302 299 300 305 305 309 308 308 309 307 311 309 306 309 309 310 308 308 306 305 306 305 306 307 306 306 304
290 292 293 293 294 294 295 295 295 297 298 298 297 297 297 297 297 298 299 299 300 302 303 302 301 302 303 303 302 302 303 301 301 303 302 302 300 301 302 301 301 300 300
289 289 290 292 292 293 293 293 294 294 295 295 294 293 292 294 295 294 295 297 298 299 297 298 298 299 299 300 299 299 299 296 297 299 298 297 295 294 292 295 294 292 292
288 289 289 289 290 291 291 291 291 290 290 290 290 290 289 290 290 290 291 292 293 294 293 293 294 294 295 296 294 293 293 293 294 294 293 291 289 290 290 291 291 289 287
287 287 287 287 288 288 289 289 288 287 287 287 288 288 288 289 288 289 289 290 290 290 291 291 291 291 291 291 290 290 290 289 290 290 290 290 290 289 288 287 287 285 285
286 286 285 285 285 285 285 286 287 287 287 287 286 286 286 286 286 287 288 288 287 287 289 289 289 288 288 288 288 288 288 288 288 287 287 286 286 285 285 283 282 281 281
283 283 283 284 284 283 283 284 284 284 285 285 286 286 286 286 286 286 286 286 286 285 287 286 286 286 285 285 285 285 285 284 283 283 283 283 282 281 281 281 280 280 279
282 282 282 282 282 282 282 282 282 282 282 283 283 283 283 283 283 283 283 283 284 284 283 283 282 281 280 280 279 279 279 279 279 279 279 279 279 279 278 278 278 278 278
280 280 280 280 280 280 280 280 280 281 280 280 280 281 281 281 281 281 281 281 281 281 279 279 278 278 278 277 277 277 277 277 277 277 277 277 277 277 277 277 277 276 276
279 279 279 279 279 279 279 279 278 278 278 277 278 279 278 277 277 278 278 278 278 277 277 277 276 276 276 276 276 276 276 276 276 276 276 276 276 275 275 275 275 275 275
278 278 278 278 278 277 278 277 277 277 276 276 275 275 275 275 275 275 275 275 275 275 275 275 275 275 275 274 274 274 274 274 274 274 274 274 274 274 274 274 274 274 273
277 277 277 277 277 277 277 276 276 275 275 275 274 274 273 273 273 273 273 273 273 273 273 273 273 273 273 273 273 273 273 273 273 273 273 273 273 273 273 273 272 272 272
275 276 276 276 276 276 275 275 275 274 274 274 273 273 272 272 272 272 272 272 272 272 272 272 272 272 272 272 272 272 272 272 272 272 272 272 271 271 271 271 271 271 271
274 274 274 274 274 274 274 274 274 273 273 272 272 272 271 271 270 270 270 270 270 270 270 270 271 271 271 271 271 271 271 271 271 271 271 271 271 271 271 271 271 271 270
273 273 272 272 272 272 272 272 272 272 272 271 271 271 270 270 269 269 269 269 269 269 269 269 269 270 270 270 270 270 271 270 270 270 270 270 270 270 270 269 269 269 269
271 271 271 271 271 271 271 271 271 271 270 270 270 270 269 269 269 268 268 268 268 268 268 268 268 269 269 269 269 269 270 270 269 269 269 269 269 269 269 269 269 269 269

GFSGL_850_thetae_117.txt.gz
Theta_e
315 317 318 320 321 321 322 328 331 331 331 331 330 331 330 331 330 332 332 330 329 327 327 327 326 324 322 323 323 323 323 324 323 322 322 323 322 321 322 320 319 319 319
312 314 317 318 320 322 323 321 321 329 330 329 329 329 331 330 330 330 330 330 329 327 327 326 325 323 322 322 322 322 324 323 323 322 322 322 321 322 318 317 319 320 320
308 312 315 317 320 321 322 323 325 324 327 327 327 328 330 331 330 330 329 330 329 328 327 325 324 323 322 322 322 324 323 324 322 322 322 322 321 319 315 314 318 319 319
305 309 310 312 314 316 319 321 323 325 326 326 326 325 325 326 327 329 330 330 329 327 326 324 323 322 321 322 323 323 323 323 322 322 320 321 320 319 318 316 316 319 319
302 303 304 306 308 311 315 316 319 320 323 323 323 324 323 324 324 325 326 327 328 327 324 322 321 321 321 322 323 324 323 322 321 321 319 319 319 318 318 318 316 318 319
300 300 301 302 304 305 308 309 312 313 315 319 319 320 321 321 324 325 325 324 324 322 322 321 320 321 321 321 322 323 323 322 322 322 319 319 319 318 319 319 318 319 319
299 299 299 300 300 301 303 304 306 307 308 310 311 311 312 314 318 322 322 322 322 322 321 320 320 321 320 321 321 321 322 322 322 321 320 319 319 318 318 319 318 319 318
297 298 298 298 298 299 300 300 302 302 303 305 306 306 307 309 313 314 317 319 319 320 321 320 320 320 321 322 322 322 321 320 321 320 320 320 319 319 319 319 318 318 318
294 295 296 297 297 298 299 299 299 300 301 301 301 302 303 302 304 308 310 313 314 313 313 316 319 319 320 321 321 321 321 320 320 319 319 320 320 320 320 319 319 318 318
291 292 293 295 296 296 296 297 297 298 297 297 298 298 298 300 299 301 304 306 307 307 307 306 310 317 316 317 318 318 318 317 319 320 318 320 319 318 319 318 317 317 317
289 290 292 292 293 293 294 295 295 295 296 296 296 296 297 297 297 298 298 300 301 303 303 303 304 302 305 307 308 310 308 310 309 309 311 311 313 313 313 314 313 312 311
288 289 289 290 291 291 292 292 292 293 293 293 293 293 293 293 294 294 295 296 297 298 298 298 298 299 300 300 301 301 301 301 301 300 301 301 302 304 305 305 305 306 305
286 287 287 288 289 289 290 290 291 290 291 290 290 289 289 290 291 291 292 293 294 295 294 293 294 296 296 296 296 296 296 297 297 297 297 295 293 295 296 296 296 297 299
286 285 285 285 286 286 287 287 287 287 288 288 288 288 288 289 289 289 290 291 291 291 292 293 293 293 294 294 294 294 294 294 294 294 294 293 291 291 293 293 294 293 295
282 283 284 284 284 284 284 284 284 283 284 285 285 286 287 287 286 286 288 288 289 289 290 291 292 292 291 291 291 291 290 290 291 290 290 290 290 290 291 290 290 289 291
281 280 281 281 282 282 282 282 283 283 283 284 284 285 285 285 285 285 285 285 287 287 289 290 289 289 289 288 288 288 288 288 287 287 287 287 287 287 287 288 287 287 287
280 279 279 279 279 280 280 280 280 280 281 282 282 283 283 284 284 285 284 284 285 284 286 285 285 285 284 284 285 285 285 285 285 285 285 285 284 284 281 280 279 279 279
279 279 279 279 279 278 279 279 278 278 278 278 279 279 280 281 280 281 282 282 283 282 282 281 280 280 280 279 279 279 279 279 279 280 279 279 279 279 279 279 279 279 279
278 278 278 277 277 277 278 277 277 277 277 277 277 277 277 277 277 278 279 279 279 279 278 278 278 277 277 277 277 277 277 278 278 278 278 278 278 278 278 277 277 277 277
276 276 276 276 276 276 276 276 276 276 276 275 275 275 275 275 275 276 276 276 276 276 276 276 276 276 276 276 276 276 276 276 276 276 276 276 276 276 276 276 276 276 276
275 275 275 275 275 275 275 275 275 274 274 274 274 273 273 273 273 273 273 274 274 274 274 274 274 274 275 275 274 274 275 275 275 275 275 275 275 275 275 275 275 275 274
273 274 274 274 274 274 274 274 274 273 273 273 272 272 272 272 272 272 272 272 272 272 272 272 272 272 272 273 273 273 273 273 273 273 273 273 273 273 273 273 273 273 273
272 272 272 272 272 272 273 273 273 272 272 272 271 271 271 270 270 270 270 270 270 270 270 270 270 270 271 271 271 272 272 272 272 272 272 272 272 272 272 272 272 272 272
271 271 271 271 271 271 271 271 272 271 271 271 270 270 270 269 269 269 269 269 269 269 269 269 269 269 270 270 270 270 271 271 271 271 271 271 271 270 271 271 271 271 271
270 270 270 270 270 270 270 270 270 270 270 270 269 269 269 268 268 268 268 268 268 268 268 268 268 268 268 269 269 269 270 270 270 270 270 270 270 270 270 270 270 270 270
270 270 269 269 269 269 269 269 269 269 269 268 268 268 268 267 267 267 267 267 267 267 267 267 267 267 267 267 268 268 269 269 269 269 269 269 269 269 269 269 269 269 269

GFSGL_850_thetae_120.txt.gz
Theta_e
314 316 318 319 322 324 325 327 329 330 330 331 332 333 332 331 330 330 329 328 325 333 332 329 329 328 329 329 327 325 323 324 324 324 324 324 324 324 324 324 322 319 319
310 312 316 317 319 320 321 321 322 323 327 329 330 330 330 329 329 331 330 329 330 332 332 331 329 328 327 328 327 325 324 323 323 323 323 323 323 323 323 323 324 319 319
309 311 312 314 316 317 318 320 322 323 323 325 328 328 328 328 328 328 329 331 330 331 332 331 330 329 327 327 326 324 323 323 323 323 323 323 322 323 322 322 322 319 319
303 304 308 309 310 312 314 317 320 321 322 324 326 326 326 327 326 326 327 327 328 329 329 330 329 328 327 326 324 324 323 323 324 324 323 322 322 322 322 321 321 321 320
300 301 301 303 305 307 309 311 313 315 317 319 321 322 323 324 325 325 325 325 325 325 327 327 328 328 327 324 323 322 322 324 323 323 321 321 320 321 321 321 321 319 316
297 298 299 300 301 302 303 305 306 308 308 310 313 315 317 318 319 322 322 324 325 325 323 323 324 323 321 322 321 321 322 322 322 322 322 320 320 321 320 320 318 316 316
296 298 299 299 300 300 300 301 302 303 303 305 306 308 308 310 312 315 319 320 320 320 322 322 322 321 321 321 321 321 322 322 323 323 322 322 321 321 320 320 319 318 317
295 297 297 298 298 299 300 300 300 300 301 301 301 302 303 304 307 309 311 312 312 316 318 319 321 320 321 321 322 321 322 321 322 321 321 320 320 320 320 319 318 319 318
292 292 294 295 296 296 296 297 297 298 298 298 298 299 299 300 301 303 305 306 307 309 310 310 311 314 318 320 320 320 320 321 322 321 320 320 320 319 319 319 319 318 318
289 290 292 293 293 294 293 294 295 296 296 295 296 296 296 298 298 300 300 301 302 302 303 305 307 308 307 311 318 312 317 317 318 318 318 319 319 319 319 319 319 318 318
289 290 290 291 291 291 292 292 293 293 294 294 294 294 294 295 295 296 297 298 298 299 300 301 300 300 303 307 307 305 305 308 308 308 308 311 313 314 315 316 315 315 315
286 287 288 288 289 289 290 290 290 291 291 291 292 292 292 292 293 293 294 294 295 296 295 295 295 296 299 300 301 302 301 300 302 300 301 300 303 305 304 307 306 308 307
286 286 285 285 286 287 287 288 288 288 288 287 288 288 290 290 291 291 291 292 292 293 292 292 293 294 296 297 296 296 296 298 298 298 297 296 295 296 296 297 298 298 300
284 284 285 285 284 284 285 285 285 286 284 285 286 286 286 287 288 289 289 290 290 291 291 291 292 292 292 292 293 294 294 293 294 294 293 292 291 292 294 293 294 294 295
283 283 283 283 283 283 282 282 282 284 284 284 284 284 285 285 285 285 287 287 288 289 289 290 290 291 290 290 290 290 290 290 290 289 289 290 291 291 291 291 291 292 292
282 282 281 282 282 281 281 281 281 280 280 280 281 282 283 283 284 285 285 285 285 286 287 288 288 287 287 287 287 287 287 287 287 288 288 288 288 288 289 289 289 289 288
279 279 280 281 281 280 280 280 280 279 279 279 279 279 279 280 281 281 282 283 283 283 283 281 281 281 281 281 282 282 284 285 285 285 285 285 286 286 286 286 286 286 286
278 279 279 279 279 278 278 278 278 278 278 278 278 278 278 278 278 279 279 279 279 280 279 279 278 278 278 278 278 278 279 279 279 279 279 279 279 279 279 279 279 279 279
277 277 277 278 278 277 278 278 278 277 277 277 276 276 276 276 276 276 277 276 276 276 276 276 276 276 276 276 276 276 276 277 277 277 277 277 278 278 278 278 278 278 278
276 276 276 277 277 277 277 277 277 277 277 276 275 273 275 274 274 274 274 273 273 273 273 274 273 273 274 274 274 274 275 275 276 276 276 276 276 277 276 276 276 276 276
275 276 275 276 276 276 276 276 276 276 275 275 274 272 272 272 272 272 271 271 271 271 271 271 271 272 272 272 272 273 273 273 273 274 274 274 275 276 275 275 275 275 275
274 274 275 275 275 275 274 274 275 275 274 274 273 272 271 271 271 271 270 269 269 269 269 269 270 271 272 272 272 271 272 272 273 272 272 273 273 274 274 274 274 274 274
273 273 273 274 273 273 274 274 274 274 274 273 272 272 271 270 270 270 269 268 268 268 270 269 270 270 270 271 271 271 271 271 272 272 271 271 272 272 273 273 272 273 273
272 272 272 272 272 271 272 272 272 272 272 272 272 271 271 270 269 269 268 267 267 267 268 269 269 269 269 270 270 270 270 271 271 271 271 271 270 271 271 271 271 271 271
272 271 271 271 271 271 271 271 271 271 271 271 271 271 270 270 269 268 268 267 267 266 267 268 268 268 268 268 269 269 270 270 270 270 270 270 270 270 270 270 270 270 270
271 271 271 271 271 271 270 270 270 270 270 270 270 269 269 269 268 268 267 266 266 266 266 265 266 267 267 267 268 268 268 269 269 269 269 269 269 269 268 269 269 269 269

GFSGL_850_thetae_123.txt.gz
Theta_e
305 305 312 313 318 323 325 326 329 331 332 334 333 332 334 333 334 334 335 334 333 331 330 327 326 328 331 329 329 329 329 328 328 325 326 324 323 324 325 324 324 324 324
305 309 311 314 321 321 319 322 324 324 326 328 329 330 329 330 330 333 333 333 330 330 328 324 324 324 328 330 331 330 329 328 328 325 325 324 324 324 323 324 324 324 323
301 305 308 310 308 310 314 316 319 320 321 324 326 328 328 329 330 330 329 329 328 329 329 329 329 330 331 331 331 331 328 328 328 325 324 324 324 324 324 323 323 322 323
294 294 299 304 305 308 309 311 315 316 320 321 322 324 325 326 326 326 327 327 328 328 328 328 329 330 330 329 330 330 328 327 326 325 326 323 323 324 324 323 322 322 321
295 296 297 300 302 305 306 308 310 312 312 312 314 317 319 321 322 324 325 326 326 326 327 326 326 327 327 328 328 328 327 326 325 324 322 323 324 323 323 322 321 321 321
298 298 297 300 301 301 303 304 306 306 307 308 310 310 312 313 315 318 319 320 322 323 324 323 324 324 325 325 325 325 323 320 323 322 322 322 323 322 322 322 321 320 319
296 298 299 299 299 299 298 299 301 301 302 304 304 305 306 307 309 311 313 314 315 316 317 318 320 322 323 323 324 322 322 322 321 322 322 322 322 322 322 321 320 320 320
293 295 297 296 296 296 297 298 297 298 298 299 299 300 301 303 304 305 306 307 307 307 308 309 314 316 317 321 321 321 321 321 321 322 322 321 321 322 321 321 321 319 318
290 290 292 292 293 294 295 296 296 296 297 296 297 297 298 298 300 301 302 302 303 303 304 305 306 308 310 312 313 314 316 317 320 321 321 321 321 320 320 320 319 318 317
288 289 289 290 291 292 292 292 292 293 293 293 293 293 294 295 296 297 298 299 300 300 300 301 302 303 304 307 309 309 308 307 307 315 311 313 318 318 319 319 319 318 318
288 288 289 290 290 290 290 291 291 291 292 292 292 292 292 292 293 294 295 296 295 296 296 297 297 297 299 301 301 304 303 302 303 305 305 304 306 311 312 315 315 316 315
288 288 287 287 287 287 287 288 289 290 290 290 291 290 290 290 290 291 292 292 292 293 293 293 293 294 296 297 298 297 297 297 298 300 301 301 301 304 303 306 305 308 308
287 287 287 286 286 286 285 285 286 287 286 287 287 287 288 289 289 289 289 289 290 291 290 290 291 292 292 294 294 294 295 295 295 297 296 295 295 294 297 299 300 299 300
286 286 285 286 285 285 285 284 283 282 282 281 282 283 285 287 288 288 288 288 288 288 289 290 290 290 290 290 291 292 291 291 291 290 290 291 291 292 293 293 294 295 296
284 284 284 285 284 284 284 283 282 281 280 279 279 279 280 281 282 284 285 286 286 285 286 287 288 289 289 289 288 289 289 288 289 288 288 289 289 290 291 290 291 291 292
283 282 283 283 283 283 283 283 283 281 280 280 279 278 279 279 279 280 281 282 283 284 284 283 283 283 283 283 283 284 286 286 285 285 286 287 287 288 288 288 289 288 287
280 281 281 282 282 281 281 281 281 281 281 280 279 278 278 278 278 278 279 280 280 281 281 281 281 280 281 281 281 281 281 281 282 283 283 283 283 284 285 286 286 286 286
278 280 279 280 280 280 280 280 280 280 280 280 279 277 277 276 276 277 277 279 280 280 279 279 279 279 279 279 279 278 279 279 279 280 280 280 280 281 281 281 281 281 282
278 279 278 279 279 279 280 280 280 279 279 279 279 278 275 276 276 276 275 276 276 277 277 277 276 276 276 276 276 277 277 277 277 278 279 279 279 280 279 279 279 279 280
278 278 277 278 279 279 279 279 279 279 278 278 278 276 274 274 276 275 274 273 274 274 274 274 274 273 273 274 275 275 276 276 277 277 277 278 278 279 278 278 279 279 279
277 277 277 278 278 277 277 277 277 277 277 277 277 276 274 273 274 274 273 272 271 272 272 272 272 271 271 271 272 273 273 274 274 275 275 276 276 277 277 277 277 277 277
276 276 276 276 276 276 276 276 276 276 276 276 276 275 274 274 273 273 272 271 270 270 269 270 270 269 269 269 269 270 270 270 271 273 273 274 275 275 276 276 276 276 276
275 275 275 275 275 275 275 275 275 275 275 275 275 275 274 273 272 272 271 270 269 269 268 268 268 268 268 267 268 268 269 270 270 271 272 273 273 274 274 275 274 275 274
275 274 274 274 274 274 274 274 273 274 273 273 274 274 273 273 272 271 270 270 268 268 268 267 267 268 268 269 269 269 270 270 270 271 271 271 272 272 273 273 272 272 272
274 274 274 274 273 273 273 273 273 272 272 272 272 272 272 272 271 271 270 269 268 267 267 267 266 265 267 268 268 268 269 269 269 269 270 269 269 269 270 271 272 271 271
274 274 274 274 273 273 273 272 272 272 272 271 271 271 271 271 271 270 270 269 268 268 267 267 266 266 266 265 267 267 268 268 269 269 268 268 268 269 269 269 269 270 270

GFSGL_850_thetae_126.txt.gz
Theta_e
296 303 316 317 320 321 323 322 324 326 327 328 329 331 332 332 331 332 332 333 333 333 333 330 325 324 328 323 323 324 328 331 330 328 328 328 327 326 325 324 323 324 324
297 307 309 307 308 314 320 321 322 325 325 325 329 330 330 331 331 330 331 333 333 331 330 332 331 330 328 322 322 323 324 324 325 330 328 328 328 326 324 323 324 324 323
299 304 307 306 304 312 314 319 321 322 322 321 322 325 328 329 329 329 329 329 329 329 329 329 331 329 328 325 324 326 328 326 326 328 329 327 328 326 324 323 322 322 323
296 299 307 302 301 301 306 310 315 318 319 320 322 320 321 324 325 326 326 326 326 326 327 328 328 328 329 329 330 330 331 328 329 329 327 327 327 325 324 323 323 323 323
296 297 299 303 301 300 304 307 307 312 312 311 314 316 316 317 318 319 321 322 323 323 324 324 325 325 326 327 328 329 329 328 329 326 327 324 325 323 323 322 323 322 322
294 291 292 296 297 295 297 298 299 301 303 306 305 306 307 308 309 312 314 315 315 316 319 320 321 322 323 324 326 326 326 327 327 327 325 323 324 324 323 322 323 322 321
293 294 294 294 293 294 294 296 297 299 299 299 301 301 302 303 304 305 307 308 308 309 310 311 312 314 316 319 321 323 324 324 324 324 322 323 322 321 321 322 322 322 322
290 291 292 292 293 293 294 295 295 295 295 297 298 299 300 300 300 302 303 303 302 303 304 305 306 307 309 312 314 315 315 318 320 321 321 322 321 321 322 322 322 321 321
289 288 288 289 290 289 290 291 292 294 294 294 295 295 296 296 297 298 299 299 300 300 300 300 301 302 304 306 308 309 310 310 312 311 312 315 316 319 319 321 321 320 319
288 287 288 288 289 289 290 291 290 291 290 290 291 291 291 292 293 295 296 296 297 297 297 297 298 298 299 301 303 304 305 303 304 304 306 307 307 307 310 313 317 316 318
287 287 287 286 286 286 287 287 288 289 289 290 290 290 290 290 289 290 291 293 293 293 294 294 295 295 296 297 298 299 299 299 299 299 300 301 302 303 304 306 309 310 311
286 287 286 286 285 285 285 285 285 285 286 286 287 287 288 288 289 289 288 288 289 290 290 291 291 292 293 294 295 294 294 296 296 296 297 298 298 299 299 300 301 304 307
285 285 286 285 285 285 284 284 284 284 284 284 284 284 284 284 285 286 287 287 287 287 287 287 289 290 291 291 292 292 292 293 292 293 292 292 292 293 294 295 296 296 298
284 284 284 284 284 284 284 283 283 282 282 282 281 281 282 283 283 284 283 284 285 286 285 284 285 285 287 289 290 290 290 289 289 288 288 289 290 291 293 293 293 294 296
283 282 283 283 283 283 283 283 282 281 281 281 280 280 280 280 279 279 280 281 282 283 283 283 283 283 283 284 284 286 286 287 287 287 287 288 288 289 289 289 290 291 291
281 281 281 282 282 281 281 282 281 281 280 280 280 279 278 278 278 279 279 280 280 281 281 281 280 280 281 281 281 281 282 283 283 283 284 285 285 286 286 287 287 288 287
279 280 280 280 281 280 280 280 280 280 280 280 280 279 278 276 277 277 277 279 280 280 280 279 279 279 279 279 279 279 279 280 280 281 281 282 282 283 284 285 285 285 285
279 279 279 279 279 279 279 279 279 279 279 279 279 279 278 277 276 276 276 277 278 277 277 277 277 276 276 277 277 277 277 278 278 279 279 280 280 280 281 282 282 282 283
278 278 278 278 278 279 278 278 278 278 278 278 278 278 277 276 275 275 275 274 274 274 274 275 274 274 274 275 275 276 277 277 278 278 278 278 279 279 279 279 279 280 280
277 278 277 277 278 278 277 277 277 277 277 277 277 277 276 275 274 274 274 273 272 272 272 272 272 272 272 272 273 274 274 275 276 276 277 277 278 278 278 278 279 278 278
277 277 277 276 277 277 276 276 275 276 276 276 276 276 276 275 274 273 273 272 271 271 270 271 271 271 270 270 271 272 272 272 273 275 275 276 276 277 277 277 277 277 278
276 276 276 276 276 275 275 275 275 275 274 275 274 274 275 274 274 273 272 272 271 270 269 269 269 269 269 268 268 270 270 271 272 273 274 274 275 275 276 275 276 276 276
275 275 275 275 275 274 274 274 274 273 274 273 273 273 273 274 273 273 272 271 270 270 269 268 267 268 268 268 268 269 270 270 271 272 273 273 273 274 274 274 274 275 275
274 275 275 274 274 274 274 274 273 273 273 273 272 272 273 272 272 272 272 271 270 270 268 268 267 267 267 267 268 268 269 269 270 270 270 272 272 272 273 273 273 273 273
274 274 274 274 274 274 273 273 273 273 273 272 272 272 272 272 271 271 271 271 270 269 268 268 267 267 266 266 267 267 267 268 269 269 269 270 270 270 271 272 272 271 271
273 274 274 274 274 274 273 273 273 273 273 272 272 271 271 271 271 270 270 270 269 269 268 268 267 267 266 266 266 266 266 267 268 268 268 269 269 269 269 270 270 270 270

GFSGL_850_thetae_129.txt.gz
Theta_e
294 294 296 299 312 315 320 324 323 321 321 317 328 334 334 334 334 333 333 333 332 331 331 332 331 330 330 330 328 325 324 324 322 323 326 324 328 328 327 327 327 325 324
293 293 293 297 306 311 316 320 320 319 321 322 323 327 330 326 331 332 332 332 332 333 332 332 332 333 332 331 328 327 326 323 324 324 325 325 325 328 328 327 327 326 324
291 291 292 298 308 307 306 313 315 313 314 322 321 321 321 323 327 327 329 328 329 330 329 329 329 330 329 330 330 329 327 325 325 327 326 326 327 327 328 327 327 326 324
291 292 293 294 300 302 301 304 311 310 311 313 315 316 318 319 321 323 324 325 324 325 326 326 325 327 327 327 327 327 328 328 327 327 327 327 330 328 326 326 324 326 323
294 294 293 293 295 300 305 303 302 302 304 302 308 311 315 316 317 318 318 319 319 320 320 320 320 322 322 324 324 324 325 325 326 328 327 328 327 327 326 325 323 325 323
293 293 294 296 297 298 300 303 302 300 301 302 302 304 305 304 305 307 311 312 311 312 315 314 313 314 316 317 320 320 323 323 325 325 324 325 326 326 325 324 324 323 321
290 291 292 293 294 295 298 300 298 297 296 295 297 299 298 298 300 302 304 305 306 306 307 308 309 310 312 312 312 313 314 316 319 321 322 321 323 323 323 322 321 321 320
288 289 290 290 292 293 294 295 295 295 295 295 296 297 297 297 298 299 300 300 301 301 301 302 302 303 304 306 307 308 309 310 312 312 314 313 317 318 318 319 320 319 320
287 286 287 288 289 290 291 291 291 292 292 292 292 293 293 294 294 296 297 297 297 297 297 297 299 299 300 301 302 303 304 304 304 305 306 306 308 310 310 316 315 318 317
286 286 285 286 286 287 287 287 287 289 290 290 290 290 290 291 291 292 292 293 295 295 295 296 296 296 296 298 299 300 300 300 300 301 301 302 302 304 305 309 309 310 311
286 285 285 285 285 284 285 285 286 286 286 286 286 287 287 289 290 290 290 290 290 291 291 292 293 293 293 294 295 295 295 295 297 297 298 298 299 300 301 303 303 305 306
285 285 284 284 284 284 284 283 283 284 284 284 284 285 285 284 285 285 286 287 287 288 287 288 289 290 291 291 292 292 293 293 294 295 295 296 296 295 296 297 297 298 300
283 283 283 283 283 282 283 282 282 282 282 282 282 282 282 283 283 282 282 283 283 285 284 284 285 285 288 290 289 290 291 291 291 292 292 291 291 292 293 294 295 295 296
282 282 282 282 282 282 282 281 281 281 280 280 280 280 280 280 281 281 282 281 281 282 282 282 283 283 284 285 287 287 287 287 287 288 288 288 289 290 291 292 293 294 294
281 280 281 281 281 280 280 280 280 280 280 279 279 279 279 278 277 278 278 280 280 280 280 281 282 282 283 283 283 283 284 285 286 285 285 286 287 287 288 288 289 290 290
281 280 279 280 280 279 280 280 279 280 279 279 279 279 278 277 277 277 277 279 279 279 279 279 278 278 279 279 279 279 280 280 281 281 282 283 284 285 286 286 287 287 287
280 279 278 278 279 279 279 278 278 279 279 279 278 278 277 277 276 276 275 276 277 277 277 276 276 276 276 276 277 277 277 278 279 279 279 280 281 281 283 284 284 284 285
278 278 278 278 278 278 278 277 277 277 277 277 277 277 277 276 275 275 275 274 274 274 274 274 274 273 273 274 275 275 276 277 277 278 278 279 279 279 280 281 281 282 283
278 277 277 277 277 277 277 276 276 276 276 276 276 276 276 275 275 274 273 273 272 272 272 272 271 271 272 272 273 274 274 275 275 276 277 278 278 278 278 279 279 280 280
277 276 276 276 276 276 276 275 275 275 275 274 275 274 274 274 274 274 273 272 272 271 270 270 270 270 270 270 271 271 272 273 274 275 276 276 277 277 277 278 278 278 278
276 276 275 275 275 275 274 274 274 274 274 274 274 273 273 273 274 274 273 272 272 271 270 270 269 269 269 269 270 270 270 271 272 273 274 275 275 276 276 276 277 277 278
276 275 275 275 274 274 274 274 274 273 273 273 273 272 272 273 273 273 272 272 271 271 270 270 269 268 268 268 269 269 269 269 270 271 272 273 274 274 275 275 276 276 277
276 275 274 274 274 274 274 274 273 273 273 273 272 272 272 272 272 272 272 271 271 270 270 269 268 268 267 267 268 268 268 268 269 270 271 272 273 273 273 274 274 274 275
275 275 274 274 274 274 274 274 273 273 273 273 273 273 272 272 271 271 271 271 270 270 270 269 268 268 267 267 267 267 267 267 268 269 269 271 271 272 272 272 273 273 273
273 273 273 273 274 274 273 273 273 273 273 272 272 272 272 272 271 271 271 270 270 269 269 268 268 267 266 266 266 266 266 266 267 268 268 269 270 270 270 271 271 272 272
272 272 273 273 272 272 272 272 271 271 271 271 270 270 271 271 271 271 270 270 269 269 269 268 268 267 267 266 265 265 265 266 266 267 267 268 268 269 269 270 270 271 271